<?xml version='1.0' encoding='UTF-8'?><gpx version="1.1" creator="JPX - https://github.com/jenetics/jpx" xmlns="http://www.topografix.com/GPX/1/1"><trk><trkseg><trkpt lat="47.24659124874409" lon="-1.569040535411479"><ele>29.0</ele><time>2026-04-20T16:31:22.445Z</time></trkpt><trkpt lat="47.24665255290199" lon="-1.568850288169057"><ele>29.0</ele><time>2026-04-20T16:31:29.031Z</time></trkpt><trkpt lat="47.24673859313805" lon="-1.5688471030458517"><ele>29.0</ele><time>2026-04-20T16:31:41.038Z</time></trkpt><trkpt lat="47.24680309188295" lon="-1.568827908487589"><ele>29.0</ele><time>2026-04-20T16:31:44.037Z</time></trkpt><trkpt lat="47.24688766528595" lon="-1.5688325185343333"><ele>29.0</ele><time>2026-04-20T16:31:46.035Z</time></trkpt><trkpt lat="47.24696729336609" lon="-1.5688019245877571"><ele>29.0</ele><time>2026-04-20T16:31:49.039Z</time></trkpt><trkpt lat="47.24700480238278" lon="-1.5687059517964428"><ele>29.0</ele><time>2026-04-20T16:31:52.045Z</time></trkpt><trkpt lat="47.24702680487861" lon="-1.5685962326839273"><ele>29.0</ele><time>2026-04-20T16:31:54.042Z</time></trkpt><trkpt lat="47.24704436496575" lon="-1.568454578520328"><ele>29.0</ele><time>2026-04-20T16:31:56.046Z</time></trkpt><trkpt lat="47.24705966193904" lon="-1.5683113317951265"><ele>29.0</ele><time>2026-04-20T16:31:58.039Z</time></trkpt><trkpt lat="47.24708023951133" lon="-1.568157691509992"><ele>28.799999999999997</ele><time>2026-04-20T16:32:00.045Z</time></trkpt><trkpt lat="47.2471042117544" lon="-1.5679781511440574"><ele>28.599999999999998</ele><time>2026-04-20T16:32:02.035Z</time></trkpt><trkpt lat="47.24711176542977" lon="-1.5678364173971708"><ele>28.4</ele><time>2026-04-20T16:32:04.033Z</time></trkpt><trkpt lat="47.24716611210932" lon="-1.5677557792529162"><ele>28.2</ele><time>2026-04-20T16:32:06.04Z</time></trkpt><trkpt lat="47.24722172603686" lon="-1.5676466468736228"><ele>28.0</ele><time>2026-04-20T16:32:09.027Z</time></trkpt><trkpt lat="47.24723895084788" lon="-1.5675173979267174"><ele>28.000000000000004</ele><time>2026-04-20T16:32:12.03Z</time></trkpt><trkpt lat="47.247303240045206" lon="-1.5674940962359005"><ele>28.0</ele><time>2026-04-20T16:32:14.027Z</time></trkpt><trkpt lat="47.24736602049996" lon="-1.5675293840482527"><ele>28.0</ele><time>2026-04-20T16:32:16.032Z</time></trkpt><trkpt lat="47.24743647039612" lon="-1.5676073357477482"><ele>28.0</ele><time>2026-04-20T16:32:19.024Z</time></trkpt><trkpt lat="47.247505495368735" lon="-1.5676468145116862"><ele>28.000000000000004</ele><time>2026-04-20T16:32:21.016Z</time></trkpt><trkpt lat="47.24757657390763" lon="-1.5676954295500811"><ele>28.0</ele><time>2026-04-20T16:32:23.023Z</time></trkpt><trkpt lat="47.24764132410963" lon="-1.5677539352342185"><ele>28.0</ele><time>2026-04-20T16:32:25.035Z</time></trkpt><trkpt lat="47.24771994636138" lon="-1.5678188949837981"><ele>27.999999999999996</ele><time>2026-04-20T16:32:27.027Z</time></trkpt><trkpt lat="47.24778876178642" lon="-1.5678343176856337"><ele>27.999999999999996</ele><time>2026-04-20T16:32:28.023Z</time></trkpt><trkpt lat="47.247904012955026" lon="-1.5679239202305375"><ele>28.0</ele><time>2026-04-20T16:32:30.023Z</time></trkpt><trkpt lat="47.24798925691028" lon="-1.5680069848909675"><ele>28.0</ele><time>2026-04-20T16:32:32.026Z</time></trkpt><trkpt lat="47.248051241084234" lon="-1.5680452901884616"><ele>28.333333333333336</ele><time>2026-04-20T16:32:33.026Z</time></trkpt><trkpt lat="47.248111339329974" lon="-1.5680744592114986"><ele>28.666666666666668</ele><time>2026-04-20T16:32:34.023Z</time></trkpt><trkpt lat="47.248223740651504" lon="-1.568129109220177"><ele>29.0</ele><time>2026-04-20T16:32:36.028Z</time></trkpt><trkpt lat="47.24829875868489" lon="-1.5681270137443841"><ele>29.333333333333336</ele><time>2026-04-20T16:32:37.037Z</time></trkpt><trkpt lat="47.248361832506255" lon="-1.568132378162414"><ele>29.666666666666668</ele><time>2026-04-20T16:32:38.024Z</time></trkpt><trkpt lat="47.24842545115133" lon="-1.5681583620622457"><ele>30.0</ele><time>2026-04-20T16:32:39.031Z</time></trkpt><trkpt lat="47.248491542457835" lon="-1.5681685041650832"><ele>30.4</ele><time>2026-04-20T16:32:40.031Z</time></trkpt><trkpt lat="47.24855654411693" lon="-1.5681828372195066"><ele>30.8</ele><time>2026-04-20T16:32:41.027Z</time></trkpt><trkpt lat="47.24867078945716" lon="-1.5681959129884542"><ele>31.200000000000003</ele><time>2026-04-20T16:32:43.03Z</time></trkpt><trkpt lat="47.24878775891592" lon="-1.568222483621508"><ele>31.6</ele><time>2026-04-20T16:32:45.023Z</time></trkpt><trkpt lat="47.24890946414997" lon="-1.5682396665230096"><ele>32.0</ele><time>2026-04-20T16:32:47.031Z</time></trkpt><trkpt lat="47.248994372829095" lon="-1.5682746190592352"><ele>32.800000000000004</ele><time>2026-04-20T16:32:49.034Z</time></trkpt><trkpt lat="47.24909286019136" lon="-1.5682958252742591"><ele>33.6</ele><time>2026-04-20T16:32:51.037Z</time></trkpt><trkpt lat="47.24918887489219" lon="-1.5683332085624042"><ele>34.400000000000006</ele><time>2026-04-20T16:32:53.025Z</time></trkpt><trkpt lat="47.24929863591422" lon="-1.5683716814979616"><ele>35.2</ele><time>2026-04-20T16:32:55.031Z</time></trkpt><trkpt lat="47.249387023083166" lon="-1.5684030298158231"><ele>36.0</ele><time>2026-04-20T16:32:57.034Z</time></trkpt><trkpt lat="47.24946916573425" lon="-1.568432534114987"><ele>36.0</ele><time>2026-04-20T16:32:59.039Z</time></trkpt><trkpt lat="47.24957108967681" lon="-1.568493470551044"><ele>36.0</ele><time>2026-04-20T16:33:01.034Z</time></trkpt><trkpt lat="47.249656249813036" lon="-1.5685148444041317"><ele>36.0</ele><time>2026-04-20T16:33:03.027Z</time></trkpt><trkpt lat="47.249746397181646" lon="-1.5685310214772528"><ele>36.0</ele><time>2026-04-20T16:33:05.033Z</time></trkpt><trkpt lat="47.24983130586077" lon="-1.5685500483974522"><ele>36.0</ele><time>2026-04-20T16:33:07.043Z</time></trkpt><trkpt lat="47.24990188148548" lon="-1.5685566701009577"><ele>36.0</ele><time>2026-04-20T16:33:08.03Z</time></trkpt><trkpt lat="47.25001738411118" lon="-1.5684992540642324"><ele>36.4</ele><time>2026-04-20T16:33:10.035Z</time></trkpt><trkpt lat="47.25008213431318" lon="-1.5684998407974544"><ele>36.8</ele><time>2026-04-20T16:33:12.029Z</time></trkpt><trkpt lat="47.25016976711084" lon="-1.5685098152622288"><ele>37.199999999999996</ele><time>2026-04-20T16:33:14.03Z</time></trkpt><trkpt lat="47.250303584194974" lon="-1.5684891957804266"><ele>37.6</ele><time>2026-04-20T16:33:17.03Z</time></trkpt><trkpt lat="47.250410621098474" lon="-1.5684639662518802"><ele>38.0</ele><time>2026-04-20T16:33:19.032Z</time></trkpt><trkpt lat="47.25047671240498" lon="-1.568456673996121"><ele>38.0</ele><time>2026-04-20T16:33:21.034Z</time></trkpt><trkpt lat="47.25054540210147" lon="-1.568416608498961"><ele>38.0</ele><time>2026-04-20T16:33:23.031Z</time></trkpt><trkpt lat="47.25062192887743" lon="-1.5683797281250063"><ele>38.0</ele><time>2026-04-20T16:33:26.033Z</time></trkpt><trkpt lat="47.250678925818995" lon="-1.5683352202191654"><ele>38.0</ele><time>2026-04-20T16:33:27.033Z</time></trkpt><trkpt lat="47.25078583699395" lon="-1.5682231541737617"><ele>38.0</ele><time>2026-04-20T16:33:29.026Z</time></trkpt><trkpt lat="47.25084057082166" lon="-1.5681717731073201"><ele>38.0</ele><time>2026-04-20T16:33:30.031Z</time></trkpt><trkpt lat="47.25092380312015" lon="-1.568074626849562"><ele>37.8</ele><time>2026-04-20T16:33:32.029Z</time></trkpt><trkpt lat="47.25099433683534" lon="-1.5679878741517363"><ele>37.599999999999994</ele><time>2026-04-20T16:33:34.031Z</time></trkpt><trkpt lat="47.251056865833" lon="-1.5679404325797854"><ele>37.400000000000006</ele><time>2026-04-20T16:33:35.032Z</time></trkpt><trkpt lat="47.25114952777256" lon="-1.5678426995888053"><ele>37.2</ele><time>2026-04-20T16:33:37.035Z</time></trkpt><trkpt lat="47.25124659021129" lon="-1.5677009616061743"><ele>37.0</ele><time>2026-04-20T16:33:39.033Z</time></trkpt><trkpt lat="47.251287912993924" lon="-1.567621836440235"><ele>37.5</ele><time>2026-04-20T16:33:40.033Z</time></trkpt><trkpt lat="47.251338497779564" lon="-1.5675186552121931"><ele>38.0</ele><time>2026-04-20T16:33:41.028Z</time></trkpt><trkpt lat="47.251376719258026" lon="-1.567444475369125"><ele>38.5</ele><time>2026-04-20T16:33:42.024Z</time></trkpt><trkpt lat="47.251416281840996" lon="-1.5673671104028517"><ele>39.0</ele><time>2026-04-20T16:33:43.035Z</time></trkpt><trkpt lat="47.25150186107238" lon="-1.5672695450499348"><ele>39.5</ele><time>2026-04-20T16:33:45.031Z</time></trkpt><trkpt lat="47.25154008255084" lon="-1.5671939402833275"><ele>40.0</ele><time>2026-04-20T16:33:46.033Z</time></trkpt><trkpt lat="47.25155353550543" lon="-1.5670822095140509"><ele>39.16666666666667</ele><time>2026-04-20T16:33:47.025Z</time></trkpt><trkpt lat="47.25158630874683" lon="-1.5669058542713215"><ele>38.333333333333336</ele><time>2026-04-20T16:33:49.117Z</time></trkpt><trkpt lat="47.25158823658456" lon="-1.5668047685190725"><ele>37.5</ele><time>2026-04-20T16:33:50.034Z</time></trkpt><trkpt lat="47.25160160572012" lon="-1.566712735222249"><ele>36.666666666666664</ele><time>2026-04-20T16:33:51.035Z</time></trkpt><trkpt lat="47.25164628126402" lon="-1.5665945503875303"><ele>35.83333333333333</ele><time>2026-04-20T16:33:52.024Z</time></trkpt><trkpt lat="47.251665685369865" lon="-1.5665048640235946"><ele>35.0</ele><time>2026-04-20T16:33:53.038Z</time></trkpt><trkpt lat="47.251688442236976" lon="-1.5664047840997264"><ele>35.0</ele><time>2026-04-20T16:33:54.027Z</time></trkpt><trkpt lat="47.251704116395906" lon="-1.5663032792523188"><ele>35.0</ele><time>2026-04-20T16:33:55.03Z</time></trkpt><trkpt lat="47.25169506394048" lon="-1.5662098210319562"><ele>35.0</ele><time>2026-04-20T16:33:56.025Z</time></trkpt><trkpt lat="47.2517146775939" lon="-1.5660250000670235"><ele>35.0</ele><time>2026-04-20T16:33:58.024Z</time></trkpt><trkpt lat="47.25172188603063" lon="-1.565929697827963"><ele>35.0</ele><time>2026-04-20T16:33:59.026Z</time></trkpt><trkpt lat="47.251719916283385" lon="-1.5657596290126123"><ele>35.0</ele><time>2026-04-20T16:34:01.03Z</time></trkpt><trkpt lat="47.251714845231966" lon="-1.5656609740122833"><ele>34.714285714285715</ele><time>2026-04-20T16:34:02.025Z</time></trkpt><trkpt lat="47.25171702452679" lon="-1.5655658394112861"><ele>34.42857142857143</ele><time>2026-04-20T16:34:03.027Z</time></trkpt><trkpt lat="47.25172276613046" lon="-1.565466932953862"><ele>34.14285714285714</ele><time>2026-04-20T16:34:04.025Z</time></trkpt><trkpt lat="47.25174841475417" lon="-1.5653283800944362"><ele>33.85714285714286</ele><time>2026-04-20T16:34:06.026Z</time></trkpt><trkpt lat="47.25176396318455" lon="-1.5652290545418535"><ele>33.57142857142857</ele><time>2026-04-20T16:34:07.025Z</time></trkpt><trkpt lat="47.25177611694415" lon="-1.565132830293444"><ele>33.285714285714285</ele><time>2026-04-20T16:34:08.034Z</time></trkpt><trkpt lat="47.25177884106268" lon="-1.5650273021325143"><ele>33.0</ele><time>2026-04-20T16:34:09.032Z</time></trkpt><trkpt lat="47.251782235733465" lon="-1.5649245399996312"><ele>32.666666666666664</ele><time>2026-04-20T16:34:10.036Z</time></trkpt><trkpt lat="47.25179292266001" lon="-1.5648293215796023"><ele>32.333333333333336</ele><time>2026-04-20T16:34:11.032Z</time></trkpt><trkpt lat="47.25181094375183" lon="-1.5647176746293574"><ele>32.0</ele><time>2026-04-20T16:34:12.035Z</time></trkpt><trkpt lat="47.25181706254114" lon="-1.5646231267615822"><ele>31.666666666666668</ele><time>2026-04-20T16:34:13.033Z</time></trkpt><trkpt lat="47.251818445555166" lon="-1.5645194426193503"><ele>31.333333333333336</ele><time>2026-04-20T16:34:14.034Z</time></trkpt><trkpt lat="47.25184287880291" lon="-1.5643614437445665"><ele>31.0</ele><time>2026-04-20T16:34:16.03Z</time></trkpt><trkpt lat="47.251874101392225" lon="-1.5642010979368948"><ele>30.4</ele><time>2026-04-20T16:34:18.033Z</time></trkpt><trkpt lat="47.25189287685533" lon="-1.564109735192325"><ele>29.8</ele><time>2026-04-20T16:34:19.032Z</time></trkpt><trkpt lat="47.25188801535149" lon="-1.564014600591328"><ele>29.199999999999996</ele><time>2026-04-20T16:34:20.031Z</time></trkpt><trkpt lat="47.25190603644331" lon="-1.5638494770988485"><ele>28.599999999999998</ele><time>2026-04-20T16:34:22.037Z</time></trkpt><trkpt lat="47.25195704032411" lon="-1.5637014526888389"><ele>28.0</ele><time>2026-04-20T16:34:24.028Z</time></trkpt><trkpt lat="47.25205728788604" lon="-1.5635666716858405"><ele>28.0</ele><time>2026-04-20T16:34:26.031Z</time></trkpt><trkpt lat="47.252116212665335" lon="-1.563430717216398"><ele>27.999999999999996</ele><time>2026-04-20T16:34:28.024Z</time></trkpt><trkpt lat="47.252177442468" lon="-1.5632691141232506"><ele>27.999999999999996</ele><time>2026-04-20T16:34:30.029Z</time></trkpt><trkpt lat="47.25223946855147" lon="-1.5631211735322728"><ele>28.0</ele><time>2026-04-20T16:34:32.031Z</time></trkpt><trkpt lat="47.25226557817985" lon="-1.563035091386701"><ele>28.0</ele><time>2026-04-20T16:34:33.042Z</time></trkpt><trkpt lat="47.25230078217317" lon="-1.5629414655282747"><ele>27.571428571428573</ele><time>2026-04-20T16:34:34.029Z</time></trkpt><trkpt lat="47.25233569279988" lon="-1.5628573950394642"><ele>27.142857142857142</ele><time>2026-04-20T16:34:35.031Z</time></trkpt><trkpt lat="47.25236230534245" lon="-1.5627579856678495"><ele>26.714285714285715</ele><time>2026-04-20T16:34:36.03Z</time></trkpt><trkpt lat="47.252396880693034" lon="-1.5626648627236137"><ele>26.285714285714285</ele><time>2026-04-20T16:34:37.042Z</time></trkpt><trkpt lat="47.25242169112642" lon="-1.5625624358668575"><ele>25.857142857142858</ele><time>2026-04-20T16:34:38.027Z</time></trkpt><trkpt lat="47.25244981241156" lon="-1.5624659601613529"><ele>25.42857142857143</ele><time>2026-04-20T16:34:39.03Z</time></trkpt><trkpt lat="47.252486106052295" lon="-1.562388762833143"><ele>25.0</ele><time>2026-04-20T16:34:40.026Z</time></trkpt><trkpt lat="47.252541342794196" lon="-1.5622253157212977"><ele>25.0</ele><time>2026-04-20T16:34:42.027Z</time></trkpt><trkpt lat="47.25260102194478" lon="-1.5620501339450124"><ele>25.0</ele><time>2026-04-20T16:34:44.025Z</time></trkpt><trkpt lat="47.25263731558551" lon="-1.561964806170726"><ele>25.0</ele><time>2026-04-20T16:34:45.047Z</time></trkpt><trkpt lat="47.25271761421789" lon="-1.561807477848196"><ele>25.0</ele><time>2026-04-20T16:34:47.045Z</time></trkpt><trkpt lat="47.25275709298183" lon="-1.5616588667049647"><ele>25.0</ele><time>2026-04-20T16:34:49.03Z</time></trkpt><trkpt lat="47.252799044407205" lon="-1.5615018736585615"><ele>25.2</ele><time>2026-04-20T16:34:51.023Z</time></trkpt><trkpt lat="47.25283781070937" lon="-1.5614088345333574"><ele>25.4</ele><time>2026-04-20T16:34:52.028Z</time></trkpt><trkpt lat="47.25288562946697" lon="-1.561268689112329"><ele>25.6</ele><time>2026-04-20T16:34:54.026Z</time></trkpt><trkpt lat="47.25293152038683" lon="-1.5611210837974783"><ele>25.8</ele><time>2026-04-20T16:34:56.03Z</time></trkpt><trkpt lat="47.25298969079484" lon="-1.5609873086228603"><ele>26.0</ele><time>2026-04-20T16:34:58.024Z</time></trkpt><trkpt lat="47.25304622673173" lon="-1.5608765836819642"><ele>25.999999999999996</ele><time>2026-04-20T16:35:00.029Z</time></trkpt><trkpt lat="47.253080005801515" lon="-1.5607872325941554"><ele>26.0</ele><time>2026-04-20T16:35:01.025Z</time></trkpt><trkpt lat="47.25310686980118" lon="-1.5606433991357318"><ele>26.0</ele><time>2026-04-20T16:35:03.025Z</time></trkpt><trkpt lat="47.25314178042789" lon="-1.560491602869295"><ele>26.0</ele><time>2026-04-20T16:35:05.024Z</time></trkpt><trkpt lat="47.25316960834642" lon="-1.560401748867296"><ele>25.999999999999996</ele><time>2026-04-20T16:35:06.023Z</time></trkpt><trkpt lat="47.25317815788765" lon="-1.5602533891811596"><ele>26.0</ele><time>2026-04-20T16:35:08.029Z</time></trkpt><trkpt lat="47.253173589750425" lon="-1.5601033531143889"><ele>25.6</ele><time>2026-04-20T16:35:10.026Z</time></trkpt><trkpt lat="47.25317082372238" lon="-1.5599662251785025"><ele>25.200000000000003</ele><time>2026-04-20T16:35:12.031Z</time></trkpt><trkpt lat="47.25316977598448" lon="-1.559800514952801"><ele>24.799999999999997</ele><time>2026-04-20T16:35:14.025Z</time></trkpt><trkpt lat="47.25315552674909" lon="-1.559623405338786"><ele>24.4</ele><time>2026-04-20T16:35:16.028Z</time></trkpt><trkpt lat="47.25314877931704" lon="-1.5594636462643365"><ele>24.0</ele><time>2026-04-20T16:35:18.027Z</time></trkpt><trkpt lat="47.253127363554434" lon="-1.5592798311277845"><ele>24.0</ele><time>2026-04-20T16:35:20.025Z</time></trkpt><trkpt lat="47.25311990366061" lon="-1.559182098136804"><ele>24.0</ele><time>2026-04-20T16:35:21.026Z</time></trkpt><trkpt lat="47.25309249483724" lon="-1.5590344090029216"><ele>24.0</ele><time>2026-04-20T16:35:23.129Z</time></trkpt><trkpt lat="47.25307074379851" lon="-1.558858975769541"><ele>24.0</ele><time>2026-04-20T16:35:25.04Z</time></trkpt><trkpt lat="47.253059679686324" lon="-1.5586938522770615"><ele>24.0</ele><time>2026-04-20T16:35:27.028Z</time></trkpt><trkpt lat="47.253052890344755" lon="-1.5585287287845822"><ele>24.2</ele><time>2026-04-20T16:35:29.035Z</time></trkpt><trkpt lat="47.25304220341821" lon="-1.5583771839752405"><ele>24.4</ele><time>2026-04-20T16:35:31.025Z</time></trkpt><trkpt lat="47.25302267358382" lon="-1.5582465939238277"><ele>24.6</ele><time>2026-04-20T16:35:33.037Z</time></trkpt><trkpt lat="47.252998156517044" lon="-1.5580977313235012"><ele>24.8</ele><time>2026-04-20T16:35:35.023Z</time></trkpt><trkpt lat="47.25297196306963" lon="-1.5579296741649116"><ele>25.0</ele><time>2026-04-20T16:35:37.048Z</time></trkpt><trkpt lat="47.2529443866082" lon="-1.5577738545849527"><ele>25.4</ele><time>2026-04-20T16:35:39.023Z</time></trkpt><trkpt lat="47.25293017928232" lon="-1.5576145984246932"><ele>25.8</ele><time>2026-04-20T16:35:41.04Z</time></trkpt><trkpt lat="47.252918025522725" lon="-1.5575125906630953"><ele>26.200000000000003</ele><time>2026-04-20T16:35:42.036Z</time></trkpt><trkpt lat="47.25288722202857" lon="-1.557353921236058"><ele>26.6</ele><time>2026-04-20T16:35:44.027Z</time></trkpt><trkpt lat="47.25285201803525" lon="-1.5572061482831436"><ele>27.0</ele><time>2026-04-20T16:35:46.034Z</time></trkpt><trkpt lat="47.25285432305862" lon="-1.557052256540914"><ele>26.75</ele><time>2026-04-20T16:35:48.023Z</time></trkpt><trkpt lat="47.25284279794176" lon="-1.5569172240808204"><ele>26.5</ele><time>2026-04-20T16:35:50.031Z</time></trkpt><trkpt lat="47.252805205106036" lon="-1.5567472390845014"><ele>26.25</ele><time>2026-04-20T16:35:52.028Z</time></trkpt><trkpt lat="47.2527794726633" lon="-1.5565712191178989"><ele>26.0</ele><time>2026-04-20T16:35:54.037Z</time></trkpt><trkpt lat="47.25274665751238" lon="-1.5564051736160707"><ele>26.0</ele><time>2026-04-20T16:35:56.033Z</time></trkpt><trkpt lat="47.25272876214911" lon="-1.5562523715212533"><ele>26.0</ele><time>2026-04-20T16:35:58.032Z</time></trkpt><trkpt lat="47.252691797956125" lon="-1.5560829732581563"><ele>26.0</ele><time>2026-04-20T16:36:00.034Z</time></trkpt><trkpt lat="47.25265801888634" lon="-1.5559212025269455"><ele>26.0</ele><time>2026-04-20T16:36:02.028Z</time></trkpt><trkpt lat="47.25265877325763" lon="-1.5558124892428105"><ele>26.0</ele><time>2026-04-20T16:36:03.025Z</time></trkpt><trkpt lat="47.25265827034344" lon="-1.5556941367700283"><ele>25.666666666666664</ele><time>2026-04-20T16:36:04.031Z</time></trkpt><trkpt lat="47.252629268958465" lon="-1.5555179491653623"><ele>25.333333333333332</ele><time>2026-04-20T16:36:06.033Z</time></trkpt><trkpt lat="47.25261011630972" lon="-1.55542499385919"><ele>25.0</ele><time>2026-04-20T16:36:07.034Z</time></trkpt><trkpt lat="47.25260177631606" lon="-1.5553202200695455"><ele>24.666666666666664</ele><time>2026-04-20T16:36:08.032Z</time></trkpt><trkpt lat="47.252594861245946" lon="-1.5552130155279815"><ele>24.333333333333332</ele><time>2026-04-20T16:36:09.031Z</time></trkpt><trkpt lat="47.252596705264644" lon="-1.5551019553109584"><ele>24.0</ele><time>2026-04-20T16:36:10.032Z</time></trkpt><trkpt lat="47.25257587623526" lon="-1.554915625603455"><ele>23.71428571428571</ele><time>2026-04-20T16:36:12.024Z</time></trkpt><trkpt lat="47.25254645575513" lon="-1.5548238437637265"><ele>23.428571428571427</ele><time>2026-04-20T16:36:13.034Z</time></trkpt><trkpt lat="47.25252914712508" lon="-1.5547223389163192"><ele>23.142857142857142</ele><time>2026-04-20T16:36:14.033Z</time></trkpt><trkpt lat="47.25250454623927" lon="-1.5546212531640702"><ele>22.857142857142854</ele><time>2026-04-20T16:36:15.034Z</time></trkpt><trkpt lat="47.25248342384328" lon="-1.5545237716301852"><ele>22.57142857142857</ele><time>2026-04-20T16:36:16.035Z</time></trkpt><trkpt lat="47.25246896506031" lon="-1.5544178243740967"><ele>22.285714285714285</ele><time>2026-04-20T16:36:17.03Z</time></trkpt><trkpt lat="47.2524538776346" lon="-1.5543106198325327"><ele>22.0</ele><time>2026-04-20T16:36:18.031Z</time></trkpt><trkpt lat="47.25244348407467" lon="-1.5541889984175135"><ele>21.666666666666664</ele><time>2026-04-20T16:36:19.046Z</time></trkpt><trkpt lat="47.25242516961624" lon="-1.5540687181070019"><ele>21.333333333333332</ele><time>2026-04-20T16:36:20.039Z</time></trkpt><trkpt lat="47.25240957927634" lon="-1.5539444983019994"><ele>21.0</ele><time>2026-04-20T16:36:21.037Z</time></trkpt><trkpt lat="47.25239461757918" lon="-1.5538304205998348"><ele>20.666666666666668</ele><time>2026-04-20T16:36:22.033Z</time></trkpt><trkpt lat="47.25236737639387" lon="-1.553739644588487"><ele>20.333333333333336</ele><time>2026-04-20T16:36:23.036Z</time></trkpt><trkpt lat="47.252298435240284" lon="-1.5535946376636192"><ele>20.0</ele><time>2026-04-20T16:36:25.033Z</time></trkpt><trkpt lat="47.25224097729404" lon="-1.553477374838249"><ele>20.0</ele><time>2026-04-20T16:36:27.031Z</time></trkpt><trkpt lat="47.252215580127434" lon="-1.5533741097911757"><ele>20.0</ele><time>2026-04-20T16:36:29.034Z</time></trkpt><trkpt lat="47.25223121237685" lon="-1.5532743651434344"><ele>20.0</ele><time>2026-04-20T16:36:32.021Z</time></trkpt><trkpt lat="47.25227471445431" lon="-1.5531820803895156"><ele>20.0</ele><time>2026-04-20T16:36:37.029Z</time></trkpt><trkpt lat="47.252304512120084" lon="-1.5530339721604745"><ele>20.0</ele><time>2026-04-20T16:36:39.022Z</time></trkpt><trkpt lat="47.25228707776149" lon="-1.5528824273511328"><ele>20.0</ele><time>2026-04-20T16:36:41.035Z</time></trkpt><trkpt lat="47.25225346632977" lon="-1.552733900026933"><ele>19.8</ele><time>2026-04-20T16:36:43.031Z</time></trkpt><trkpt lat="47.25223766644229" lon="-1.552556287498728"><ele>19.6</ele><time>2026-04-20T16:36:45.031Z</time></trkpt><trkpt lat="47.25220774304797" lon="-1.5524580515935573"><ele>19.4</ele><time>2026-04-20T16:36:46.034Z</time></trkpt><trkpt lat="47.25216604307969" lon="-1.552286976949826"><ele>19.2</ele><time>2026-04-20T16:36:48.033Z</time></trkpt><trkpt lat="47.252150117463664" lon="-1.5521919261678607"><ele>19.0</ele><time>2026-04-20T16:36:49.03Z</time></trkpt><trkpt lat="47.25213155154814" lon="-1.5520977973952443"><ele>18.833333333333332</ele><time>2026-04-20T16:36:50.035Z</time></trkpt><trkpt lat="47.252115500203566" lon="-1.5519922692343144"><ele>18.666666666666664</ele><time>2026-04-20T16:36:51.03Z</time></trkpt><trkpt lat="47.25209509026934" lon="-1.5518867410733848"><ele>18.5</ele><time>2026-04-20T16:36:52.037Z</time></trkpt><trkpt lat="47.252084235704736" lon="-1.551784733311787"><ele>18.333333333333332</ele><time>2026-04-20T16:36:53.036Z</time></trkpt><trkpt lat="47.25206261039455" lon="-1.5516790375127938"><ele>18.166666666666668</ele><time>2026-04-20T16:36:54.035Z</time></trkpt><trkpt lat="47.252032645090715" lon="-1.5515632834299946"><ele>18.0</ele><time>2026-04-20T16:36:55.034Z</time></trkpt><trkpt lat="47.25201500118454" lon="-1.5514517202987814"><ele>18.0</ele><time>2026-04-20T16:36:56.036Z</time></trkpt><trkpt lat="47.25199563898821" lon="-1.551358513535514"><ele>18.0</ele><time>2026-04-20T16:36:57.035Z</time></trkpt><trkpt lat="47.25198637698521" lon="-1.5512496326133154"><ele>18.0</ele><time>2026-04-20T16:36:58.032Z</time></trkpt><trkpt lat="47.25197904281993" lon="-1.5511353034540556"><ele>18.0</ele><time>2026-04-20T16:36:59.029Z</time></trkpt><trkpt lat="47.251966469965176" lon="-1.5509497281178375"><ele>18.0</ele><time>2026-04-20T16:37:01.034Z</time></trkpt><trkpt lat="47.25194488656451" lon="-1.5508555993452209"><ele>18.0</ele><time>2026-04-20T16:37:02.033Z</time></trkpt><trkpt lat="47.25193600174715" lon="-1.550761302934541"><ele>17.75</ele><time>2026-04-20T16:37:03.031Z</time></trkpt><trkpt lat="47.251928625672356" lon="-1.5505788289024964"><ele>17.5</ele><time>2026-04-20T16:37:05.035Z</time></trkpt><trkpt lat="47.25193114024331" lon="-1.5504038147642747"><ele>17.25</ele><time>2026-04-20T16:37:07.035Z</time></trkpt><trkpt lat="47.251942497722105" lon="-1.5502289682641162"><ele>17.0</ele><time>2026-04-20T16:37:09.032Z</time></trkpt><trkpt lat="47.25195398092945" lon="-1.5500667784377467"><ele>17.0</ele><time>2026-04-20T16:37:11.031Z</time></trkpt><trkpt lat="47.252006242095725" lon="-1.5499201789512764"><ele>17.0</ele><time>2026-04-20T16:37:13.033Z</time></trkpt><trkpt lat="47.25203448910941" lon="-1.5497660357519516"><ele>17.0</ele><time>2026-04-20T16:37:15.034Z</time></trkpt><trkpt lat="47.25206596315582" lon="-1.5496108867242462"><ele>17.0</ele><time>2026-04-20T16:37:17.03Z</time></trkpt><trkpt lat="47.252079080834285" lon="-1.5495195239796764"><ele>17.0</ele><time>2026-04-20T16:37:18.048Z</time></trkpt><trkpt lat="47.25211118352343" lon="-1.5493697393700008"><ele>17.0</ele><time>2026-04-20T16:37:20.033Z</time></trkpt><trkpt lat="47.252136664509074" lon="-1.5492799691870336"><ele>17.0</ele><time>2026-04-20T16:37:21.031Z</time></trkpt><trkpt lat="47.25217937030573" lon="-1.5492017660304431"><ele>17.0</ele><time>2026-04-20T16:37:22.028Z</time></trkpt><trkpt lat="47.25226800893177" lon="-1.5490667335703494"><ele>17.0</ele><time>2026-04-20T16:37:24.034Z</time></trkpt><trkpt lat="47.252311678647295" lon="-1.5489892847850444"><ele>17.0</ele><time>2026-04-20T16:37:25.035Z</time></trkpt><trkpt lat="47.25235237278719" lon="-1.5489066392197728"><ele>17.0</ele><time>2026-04-20T16:37:26.036Z</time></trkpt><trkpt lat="47.252392815469996" lon="-1.5487455390408158"><ele>16.5</ele><time>2026-04-20T16:37:28.033Z</time></trkpt><trkpt lat="47.25242261313577" lon="-1.548655014486563"><ele>16.0</ele><time>2026-04-20T16:37:29.032Z</time></trkpt><trkpt lat="47.252468713603214" lon="-1.548510091380727"><ele>15.5</ele><time>2026-04-20T16:37:31.029Z</time></trkpt><trkpt lat="47.252504630058304" lon="-1.5484195668264742"><ele>15.0</ele><time>2026-04-20T16:37:32.028Z</time></trkpt><trkpt lat="47.252537696666316" lon="-1.5483220852925892"><ele>14.500000000000002</ele><time>2026-04-20T16:37:33.033Z</time></trkpt><trkpt lat="47.25255504720588" lon="-1.5482286270722263"><ele>14.0</ele><time>2026-04-20T16:37:34.055Z</time></trkpt><trkpt lat="47.25257943854411" lon="-1.548138270156037"><ele>14.0</ele><time>2026-04-20T16:37:35.035Z</time></trkpt><trkpt lat="47.25259339441289" lon="-1.5479477494969478"><ele>13.999999999999998</ele><time>2026-04-20T16:37:37.028Z</time></trkpt><trkpt lat="47.25258987401356" lon="-1.547849345953714"><ele>13.999999999999998</ele><time>2026-04-20T16:37:38.048Z</time></trkpt><trkpt lat="47.2525773011588" lon="-1.547659328208815"><ele>14.0</ele><time>2026-04-20T16:37:40.03Z</time></trkpt><trkpt lat="47.25255295173009" lon="-1.54749638401116"><ele>14.0</ele><time>2026-04-20T16:37:42.052Z</time></trkpt><trkpt lat="47.25253673274745" lon="-1.5473227109774457"><ele>14.2</ele><time>2026-04-20T16:37:44.026Z</time></trkpt><trkpt lat="47.252510581209556" lon="-1.5471462719156845"><ele>14.399999999999999</ele><time>2026-04-20T16:37:46.041Z</time></trkpt><trkpt lat="47.25249092564662" lon="-1.546970838682304"><ele>14.6</ele><time>2026-04-20T16:37:48.027Z</time></trkpt><trkpt lat="47.25247307219286" lon="-1.546877464280973"><ele>14.8</ele><time>2026-04-20T16:37:49.032Z</time></trkpt><trkpt lat="47.252463558732764" lon="-1.5467813238515953"><ele>15.0</ele><time>2026-04-20T16:37:50.046Z</time></trkpt><trkpt lat="47.252435521266655" lon="-1.5466056391611198"><ele>15.2</ele><time>2026-04-20T16:37:52.031Z</time></trkpt><trkpt lat="47.252428019463316" lon="-1.5464701037868358"><ele>15.4</ele><time>2026-04-20T16:37:54.039Z</time></trkpt><trkpt lat="47.252407483800546" lon="-1.5463278628900148"><ele>15.600000000000001</ele><time>2026-04-20T16:37:56.035Z</time></trkpt><trkpt lat="47.252387576780514" lon="-1.5461700316532945"><ele>15.8</ele><time>2026-04-20T16:37:58.047Z</time></trkpt><trkpt lat="47.252365700013236" lon="-1.5460038185134026"><ele>16.0</ele><time>2026-04-20T16:38:00.022Z</time></trkpt><trkpt lat="47.252350444949464" lon="-1.5458367671831936"><ele>16.400000000000002</ele><time>2026-04-20T16:38:02.03Z</time></trkpt><trkpt lat="47.25233196285297" lon="-1.545703830198893"><ele>16.8</ele><time>2026-04-20T16:38:04.024Z</time></trkpt><trkpt lat="47.252311175733105" lon="-1.5455787722035734"><ele>17.200000000000003</ele><time>2026-04-20T16:38:06.054Z</time></trkpt><trkpt lat="47.25228795786132" lon="-1.5454579051598398"><ele>17.6</ele><time>2026-04-20T16:38:08.03Z</time></trkpt><trkpt lat="47.25227148742159" lon="-1.5453155804439869"><ele>18.0</ele><time>2026-04-20T16:38:10.026Z</time></trkpt><trkpt lat="47.25225095175882" lon="-1.5451845712974157"><ele>19.2</ele><time>2026-04-20T16:38:12.025Z</time></trkpt><trkpt lat="47.2522302903675" lon="-1.5450373012586915"><ele>20.4</ele><time>2026-04-20T16:38:14.043Z</time></trkpt><trkpt lat="47.25221754987468" lon="-1.5448591019972644"><ele>21.599999999999998</ele><time>2026-04-20T16:38:16.034Z</time></trkpt><trkpt lat="47.25219743330707" lon="-1.5447309426977716"><ele>22.8</ele><time>2026-04-20T16:38:18.033Z</time></trkpt><trkpt lat="47.2521803342246" lon="-1.5446254983558734"><ele>24.0</ele><time>2026-04-20T16:38:20.038Z</time></trkpt><trkpt lat="47.25214395676483" lon="-1.5445273462697346"><ele>24.6</ele><time>2026-04-20T16:38:22.046Z</time></trkpt><trkpt lat="47.25211596120824" lon="-1.5443832613542157"><ele>25.2</ele><time>2026-04-20T16:38:24.036Z</time></trkpt><trkpt lat="47.252103053077356" lon="-1.544239176438697"><ele>25.800000000000004</ele><time>2026-04-20T16:38:26.05Z</time></trkpt><trkpt lat="47.25209190514614" lon="-1.5440899785622433"><ele>26.400000000000002</ele><time>2026-04-20T16:38:28.036Z</time></trkpt><trkpt lat="47.25208972585131" lon="-1.5439323149635864"><ele>27.0</ele><time>2026-04-20T16:38:30.039Z</time></trkpt><trkpt lat="47.25207237531175" lon="-1.5437673591091705"><ele>26.333333333333332</ele><time>2026-04-20T16:38:32.037Z</time></trkpt><trkpt lat="47.2520619398423" lon="-1.5436730626984905"><ele>25.666666666666668</ele><time>2026-04-20T16:38:33.024Z</time></trkpt><trkpt lat="47.25204492457886" lon="-1.5434930194183658"><ele>25.0</ele><time>2026-04-20T16:38:35.037Z</time></trkpt><trkpt lat="47.25202853795816" lon="-1.5433707274510928"><ele>24.333333333333336</ele><time>2026-04-20T16:38:36.023Z</time></trkpt><trkpt lat="47.25199660290708" lon="-1.5432624332621165"><ele>23.666666666666668</ele><time>2026-04-20T16:38:37.023Z</time></trkpt><trkpt lat="47.2519823955812" lon="-1.5431601740434235"><ele>23.0</ele><time>2026-04-20T16:38:38.022Z</time></trkpt><trkpt lat="47.25195339419623" lon="-1.5430454257890052"><ele>23.0</ele><time>2026-04-20T16:38:39.015Z</time></trkpt><trkpt lat="47.25194534756918" lon="-1.5429425798370902"><ele>23.0</ele><time>2026-04-20T16:38:40.015Z</time></trkpt><trkpt lat="47.251955741129116" lon="-1.5428143367185656"><ele>23.0</ele><time>2026-04-20T16:38:41.019Z</time></trkpt><trkpt lat="47.25193952214648" lon="-1.542705791072494"><ele>23.0</ele><time>2026-04-20T16:38:42.019Z</time></trkpt><trkpt lat="47.25191672336985" lon="-1.5426023583873572"><ele>23.0</ele><time>2026-04-20T16:38:43.022Z</time></trkpt><trkpt lat="47.25191622045566" lon="-1.542483335362321"><ele>23.0</ele><time>2026-04-20T16:38:44.028Z</time></trkpt><trkpt lat="47.251895559064344" lon="-1.5423825010671675"><ele>22.28571428571429</ele><time>2026-04-20T16:38:45.027Z</time></trkpt><trkpt lat="47.25189337976952" lon="-1.5422784816488087"><ele>21.57142857142857</ele><time>2026-04-20T16:38:46.026Z</time></trkpt><trkpt lat="47.25190037865867" lon="-1.5421712771072444"><ele>20.857142857142858</ele><time>2026-04-20T16:38:47.023Z</time></trkpt><trkpt lat="47.2518935893171" lon="-1.542073627935296"><ele>20.142857142857146</ele><time>2026-04-20T16:38:48.028Z</time></trkpt><trkpt lat="47.25187649023463" lon="-1.5419774036868865"><ele>19.42857142857143</ele><time>2026-04-20T16:38:49.028Z</time></trkpt><trkpt lat="47.25180704616685" lon="-1.5419069118812139"><ele>18.714285714285715</ele><time>2026-04-20T16:38:50.049Z</time></trkpt><trkpt lat="47.25175130651076" lon="-1.5418542735292966"><ele>18.0</ele><time>2026-04-20T16:38:51.032Z</time></trkpt><trkpt lat="47.25168487992813" lon="-1.5418183151646907"><ele>16.8</ele><time>2026-04-20T16:38:52.032Z</time></trkpt><trkpt lat="47.25161962681194" lon="-1.541786380113607"><ele>15.600000000000001</ele><time>2026-04-20T16:38:53.026Z</time></trkpt><trkpt lat="47.251562881327466" lon="-1.54173131100977"><ele>14.399999999999999</ele><time>2026-04-20T16:38:54.051Z</time></trkpt><trkpt lat="47.25152105563064" lon="-1.541536515580063"><ele>13.2</ele><time>2026-04-20T16:38:56.031Z</time></trkpt><trkpt lat="47.25153543059458" lon="-1.541360747070556"><ele>12.0</ele><time>2026-04-20T16:38:58.032Z</time></trkpt><trkpt lat="47.25159959406336" lon="-1.541209286080246"><ele>10.666666666666666</ele><time>2026-04-20T16:38:59.033Z</time></trkpt><trkpt lat="47.25161354993214" lon="-1.5411000698819208"><ele>9.333333333333334</ele><time>2026-04-20T16:39:00.03Z</time></trkpt><trkpt lat="47.251665475822286" lon="-1.5409999061390207"><ele>8.0</ele><time>2026-04-20T16:39:01.032Z</time></trkpt><trkpt lat="47.25173768591811" lon="-1.5408899355694101"><ele>6.666666666666666</ele><time>2026-04-20T16:39:02.032Z</time></trkpt><trkpt lat="47.251790240450994" lon="-1.5408015064909502"><ele>5.333333333333333</ele><time>2026-04-20T16:39:03.032Z</time></trkpt><trkpt lat="47.25186647386034" lon="-1.5407791268094821"><ele>4.0</ele><time>2026-04-20T16:39:04.028Z</time></trkpt><trkpt lat="47.251929547681705" lon="-1.5407349541797681"><ele>3.9999999999999996</ele><time>2026-04-20T16:39:05.021Z</time></trkpt><trkpt lat="47.252007960385875" lon="-1.540730595590119"><ele>4.0</ele><time>2026-04-20T16:39:06.027Z</time></trkpt><trkpt lat="47.25207480606367" lon="-1.5407104790225072"><ele>4.0</ele><time>2026-04-20T16:39:07.03Z</time></trkpt><trkpt lat="47.25214144219388" lon="-1.5406815614565654"><ele>4.0</ele><time>2026-04-20T16:39:08.027Z</time></trkpt><trkpt lat="47.252299650616244" lon="-1.5406375564649148"><ele>3.9999999999999996</ele><time>2026-04-20T16:39:10.027Z</time></trkpt><trkpt lat="47.25236867558886" lon="-1.5406255703433795"><ele>4.0</ele><time>2026-04-20T16:39:11.028Z</time></trkpt><trkpt lat="47.252434515438274" lon="-1.5406146738692565"><ele>4.6</ele><time>2026-04-20T16:39:12.025Z</time></trkpt><trkpt lat="47.252509784928755" lon="-1.5405800566091579"><ele>5.2</ele><time>2026-04-20T16:39:13.03Z</time></trkpt><trkpt lat="47.252598214007214" lon="-1.540563208983783"><ele>5.799999999999999</ele><time>2026-04-20T16:39:14.032Z</time></trkpt><trkpt lat="47.252708394124404" lon="-1.540528759361748"><ele>6.3999999999999995</ele><time>2026-04-20T16:39:16.027Z</time></trkpt><trkpt lat="47.252789111851946" lon="-1.5405124984695953"><ele>7.0</ele><time>2026-04-20T16:39:17.028Z</time></trkpt><trkpt lat="47.252974184273974" lon="-1.5405066311373752"><ele>7.000000000000001</ele><time>2026-04-20T16:39:19.035Z</time></trkpt><trkpt lat="47.25304304160853" lon="-1.5404939744635862"><ele>7.0</ele><time>2026-04-20T16:39:20.031Z</time></trkpt><trkpt lat="47.25313658364792" lon="-1.5404829103513997"><ele>7.0</ele><time>2026-04-20T16:39:22.031Z</time></trkpt><trkpt lat="47.25324194417079" lon="-1.540412167088632"><ele>7.0</ele><time>2026-04-20T16:39:24.031Z</time></trkpt><trkpt lat="47.25330413789232" lon="-1.5403975825771135"><ele>7.000000000000001</ele><time>2026-04-20T16:39:25.032Z</time></trkpt><trkpt lat="47.25338263441552" lon="-1.5403745323433917"><ele>7.0</ele><time>2026-04-20T16:39:26.033Z</time></trkpt><trkpt lat="47.253446043513016" lon="-1.5403573494418898"><ele>6.666666666666667</ele><time>2026-04-20T16:39:27.034Z</time></trkpt><trkpt lat="47.25351024889131" lon="-1.5403371490552464"><ele>6.333333333333334</ele><time>2026-04-20T16:39:28.03Z</time></trkpt><trkpt lat="47.25362277594139" lon="-1.5403073932989875"><ele>6.0</ele><time>2026-04-20T16:39:30.026Z</time></trkpt><trkpt lat="47.25372390360315" lon="-1.5402820799514094"><ele>5.666666666666667</ele><time>2026-04-20T16:39:32.044Z</time></trkpt><trkpt lat="47.25381208122452" lon="-1.5402333810939828"><ele>5.333333333333334</ele><time>2026-04-20T16:39:34.035Z</time></trkpt><trkpt lat="47.25387930408795" lon="-1.5402294415994922"><ele>5.0</ele><time>2026-04-20T16:39:35.041Z</time></trkpt><trkpt lat="47.253945856399135" lon="-1.5402102470412293"><ele>5.0</ele><time>2026-04-20T16:39:36.034Z</time></trkpt><trkpt lat="47.25403885361482" lon="-1.5401637274786273"><ele>5.0</ele><time>2026-04-20T16:39:38.026Z</time></trkpt><trkpt lat="47.2541109379821" lon="-1.5401652362211982"><ele>5.0</ele><time>2026-04-20T16:39:39.025Z</time></trkpt><trkpt lat="47.254237630448536" lon="-1.540149394424204"><ele>5.0</ele><time>2026-04-20T16:39:41.033Z</time></trkpt><trkpt lat="47.2543490678512" lon="-1.540118716658596"><ele>5.0</ele><time>2026-04-20T16:39:43.032Z</time></trkpt><trkpt lat="47.25447345529427" lon="-1.5401192195727862"><ele>5.0</ele><time>2026-04-20T16:39:44.027Z</time></trkpt><trkpt lat="47.25454558157106" lon="-1.5401262603714503"><ele>5.0</ele><time>2026-04-20T16:39:45.032Z</time></trkpt><trkpt lat="47.25461925849994" lon="-1.5401291102185288"><ele>5.0</ele><time>2026-04-20T16:39:47.034Z</time></trkpt><trkpt lat="47.254695114723646" lon="-1.5401151962592639"><ele>5.0</ele><time>2026-04-20T16:39:48.033Z</time></trkpt><trkpt lat="47.25477998149326" lon="-1.5401165373637713"><ele>5.0</ele><time>2026-04-20T16:39:50.028Z</time></trkpt><trkpt lat="47.25484716244718" lon="-1.5401199739440716"><ele>5.0</ele><time>2026-04-20T16:39:51.037Z</time></trkpt><trkpt lat="47.254912750839495" lon="-1.5401083230986632"><ele>5.0</ele><time>2026-04-20T16:39:52.039Z</time></trkpt><trkpt lat="47.25500696343114" lon="-1.5401055570706166"><ele>6.0</ele><time>2026-04-20T16:39:54.034Z</time></trkpt><trkpt lat="47.25507498257538" lon="-1.5400819201036728"><ele>7.0</ele><time>2026-04-20T16:39:55.041Z</time></trkpt><trkpt lat="47.255217977843486" lon="-1.5400158707066811"><ele>8.0</ele><time>2026-04-20T16:39:57.029Z</time></trkpt><trkpt lat="47.25528545216402" lon="-1.539992066101674"><ele>9.0</ele><time>2026-04-20T16:39:58.046Z</time></trkpt><trkpt lat="47.25538284987887" lon="-1.539967339487318"><ele>10.0</ele><time>2026-04-20T16:40:00.031Z</time></trkpt><trkpt lat="47.255492066077196" lon="-1.539934314788822"><ele>10.0</ele><time>2026-04-20T16:40:02.033Z</time></trkpt><trkpt lat="47.25560748488387" lon="-1.5399093367173708"><ele>10.0</ele><time>2026-04-20T16:40:04.035Z</time></trkpt><trkpt lat="47.25567009770056" lon="-1.5398989431574381"><ele>10.0</ele><time>2026-04-20T16:40:05.031Z</time></trkpt><trkpt lat="47.25574092478236" lon="-1.5398723725243841"><ele>10.0</ele><time>2026-04-20T16:40:06.033Z</time></trkpt><trkpt lat="47.255828767127596" lon="-1.5398333966746365"><ele>10.0</ele><time>2026-04-20T16:40:08.033Z</time></trkpt><trkpt lat="47.25591681902041" lon="-1.5397857036455904"><ele>10.0</ele><time>2026-04-20T16:40:10.027Z</time></trkpt><trkpt lat="47.255994100167655" lon="-1.5397521760329043"><ele>10.666666666666668</ele><time>2026-04-20T16:40:12.037Z</time></trkpt><trkpt lat="47.256068070463144" lon="-1.5397122781738077"><ele>11.333333333333334</ele><time>2026-04-20T16:40:14.031Z</time></trkpt><trkpt lat="47.25638469685545" lon="-1.5396059118225607"><ele>12.0</ele><time>2026-04-20T16:40:19.031Z</time></trkpt><trkpt lat="47.256512017964624" lon="-1.5395300555988582"><ele>10.75</ele><time>2026-04-20T16:40:20.033Z</time></trkpt><trkpt lat="47.256660042374634" lon="-1.5394739806666407"><ele>9.5</ele><time>2026-04-20T16:40:22.035Z</time></trkpt><trkpt lat="47.256742687939905" lon="-1.5394387766733202"><ele>8.25</ele><time>2026-04-20T16:40:23.036Z</time></trkpt><trkpt lat="47.25685546644708" lon="-1.5394290536656412"><ele>7.0</ele><time>2026-04-20T16:40:25.03Z</time></trkpt><trkpt lat="47.25697189108213" lon="-1.5394455660148891"><ele>7.0</ele><time>2026-04-20T16:40:27.031Z</time></trkpt><trkpt lat="47.25705881141802" lon="-1.539470627905372"><ele>6.999999999999999</ele><time>2026-04-20T16:40:29.032Z</time></trkpt><trkpt lat="47.257165093950235" lon="-1.539511280135754"><ele>6.999999999999999</ele><time>2026-04-20T16:40:31.035Z</time></trkpt><trkpt lat="47.25727196321567" lon="-1.5395810175701412"><ele>7.0</ele><time>2026-04-20T16:40:33.038Z</time></trkpt><trkpt lat="47.25732166790148" lon="-1.5397026389851605"><ele>7.0</ele><time>2026-04-20T16:40:36.032Z</time></trkpt><trkpt lat="47.25737920966675" lon="-1.5397750586285626"><ele>8.0</ele><time>2026-04-20T16:40:38.027Z</time></trkpt><trkpt lat="47.2574224183776" lon="-1.5398972667768038"><ele>9.0</ele><time>2026-04-20T16:40:40.022Z</time></trkpt><trkpt lat="47.25748918023636" lon="-1.539999442176465"><ele>10.0</ele><time>2026-04-20T16:40:42.022Z</time></trkpt><trkpt lat="47.257536705627345" lon="-1.540139336140398"><ele>11.0</ele><time>2026-04-20T16:40:44.032Z</time></trkpt><trkpt lat="47.25753238894721" lon="-1.5402684174492398"><ele>12.0</ele><time>2026-04-20T16:40:45.024Z</time></trkpt><trkpt lat="47.25758397956123" lon="-1.5404134243741077"><ele>12.399999999999999</ele><time>2026-04-20T16:40:47.037Z</time></trkpt><trkpt lat="47.25762567952951" lon="-1.540538817645554"><ele>12.799999999999999</ele><time>2026-04-20T16:40:49.028Z</time></trkpt><trkpt lat="47.257655267647706" lon="-1.5406782925143285"><ele>13.2</ele><time>2026-04-20T16:40:51.039Z</time></trkpt><trkpt lat="47.25768213164737" lon="-1.540801255033855"><ele>13.6</ele><time>2026-04-20T16:40:53.02Z</time></trkpt><trkpt lat="47.257676222405635" lon="-1.5409428253784225"><ele>14.0</ele><time>2026-04-20T16:40:55.026Z</time></trkpt><trkpt lat="47.257759287066065" lon="-1.541072577239518"><ele>14.0</ele><time>2026-04-20T16:40:57.023Z</time></trkpt><trkpt lat="47.257817667021655" lon="-1.5412017423673916"><ele>13.999999999999998</ele><time>2026-04-20T16:40:59.021Z</time></trkpt><trkpt lat="47.2578629712083" lon="-1.541293188930993"><ele>13.999999999999998</ele><time>2026-04-20T16:41:01.022Z</time></trkpt><trkpt lat="47.25790576082399" lon="-1.541398717091923"><ele>14.0</ele><time>2026-04-20T16:41:03.026Z</time></trkpt><trkpt lat="47.25790496454319" lon="-1.5415567997857382"><ele>14.0</ele><time>2026-04-20T16:41:05.021Z</time></trkpt><trkpt lat="47.25793941416522" lon="-1.5416966099306397"><ele>14.2</ele><time>2026-04-20T16:41:07.023Z</time></trkpt><trkpt lat="47.2580313217335" lon="-1.5417849551900678"><ele>14.399999999999999</ele><time>2026-04-20T16:41:09.022Z</time></trkpt><trkpt lat="47.258048965639674" lon="-1.5419352427139337"><ele>14.6</ele><time>2026-04-20T16:41:11.026Z</time></trkpt><trkpt lat="47.25809636530211" lon="-1.542070107535964"><ele>14.8</ele><time>2026-04-20T16:41:13.024Z</time></trkpt><trkpt lat="47.258130689195596" lon="-1.542188208551651"><ele>15.0</ele><time>2026-04-20T16:41:15.02Z</time></trkpt><trkpt lat="47.25820348602464" lon="-1.5422626398518142"><ele>17.0</ele><time>2026-04-20T16:41:17.023Z</time></trkpt><trkpt lat="47.25828935862263" lon="-1.5423594508334457"><ele>19.0</ele><time>2026-04-20T16:41:19.028Z</time></trkpt><trkpt lat="47.25836052098056" lon="-1.542474534363991"><ele>21.0</ele><time>2026-04-20T16:41:21.027Z</time></trkpt><trkpt lat="47.258443837098085" lon="-1.542513174937612"><ele>23.0</ele><time>2026-04-20T16:41:23.026Z</time></trkpt><trkpt lat="47.25852459673514" lon="-1.542582996191031"><ele>25.0</ele><time>2026-04-20T16:41:25.028Z</time></trkpt><trkpt lat="47.2586095892333" lon="-1.5426472015693249"><ele>25.000000000000004</ele><time>2026-04-20T16:41:27.022Z</time></trkpt><trkpt lat="47.258687247566186" lon="-1.5427005942925276"><ele>25.0</ele><time>2026-04-20T16:41:29.022Z</time></trkpt><trkpt lat="47.258774670816265" lon="-1.5427332837148966"><ele>25.0</ele><time>2026-04-20T16:41:31.023Z</time></trkpt><trkpt lat="47.25886976350775" lon="-1.5427729301168982"><ele>25.0</ele><time>2026-04-20T16:41:33.018Z</time></trkpt><trkpt lat="47.25893183150073" lon="-1.5428077988340918"><ele>25.000000000000004</ele><time>2026-04-20T16:41:35.038Z</time></trkpt><trkpt lat="47.259003748229944" lon="-1.542839230970985"><ele>25.0</ele><time>2026-04-20T16:41:37.032Z</time></trkpt><trkpt lat="47.259105630262994" lon="-1.5428697410985295"><ele>25.5</ele><time>2026-04-20T16:41:39.04Z</time></trkpt><trkpt lat="47.25920089059254" lon="-1.5428847447052065"><ele>26.0</ele><time>2026-04-20T16:41:41.035Z</time></trkpt><trkpt lat="47.259411360181176" lon="-1.542858090253121"><ele>26.5</ele><time>2026-04-20T16:41:44.033Z</time></trkpt><trkpt lat="47.25949719086965" lon="-1.5428347047432724"><ele>27.0</ele><time>2026-04-20T16:41:46.034Z</time></trkpt><trkpt lat="47.25978888110002" lon="-1.5427485387786688"><ele>27.0</ele><time>2026-04-20T16:41:52.036Z</time></trkpt><trkpt lat="47.25993108008733" lon="-1.5427021868541302"><ele>27.0</ele><time>2026-04-20T16:41:54.05Z</time></trkpt><trkpt lat="47.26001976062288" lon="-1.542671341450459"><ele>27.0</ele><time>2026-04-20T16:41:55.05Z</time></trkpt><trkpt lat="47.2600853490152" lon="-1.5426593553289236"><ele>27.0</ele><time>2026-04-20T16:41:56.052Z</time></trkpt><trkpt lat="47.260158229663276" lon="-1.542651560158974"><ele>27.0</ele><time>2026-04-20T16:41:57.049Z</time></trkpt><trkpt lat="47.260226835540735" lon="-1.5426332037910284"><ele>27.0</ele><time>2026-04-20T16:41:58.053Z</time></trkpt><trkpt lat="47.26030885246327" lon="-1.5426204632982077"><ele>27.0</ele><time>2026-04-20T16:41:59.048Z</time></trkpt><trkpt lat="47.26037770979782" lon="-1.5426285099252524"><ele>27.0</ele><time>2026-04-20T16:42:00.043Z</time></trkpt><trkpt lat="47.26047405977478" lon="-1.542626246811396"><ele>27.0</ele><time>2026-04-20T16:42:01.036Z</time></trkpt><trkpt lat="47.260557878806495" lon="-1.5426229778691591"><ele>27.0</ele><time>2026-04-20T16:42:02.046Z</time></trkpt><trkpt lat="47.26063319020649" lon="-1.5426134224995436"><ele>27.0</ele><time>2026-04-20T16:42:03.051Z</time></trkpt><trkpt lat="47.26070581939747" lon="-1.542631527410394"><ele>27.0</ele><time>2026-04-20T16:42:04.036Z</time></trkpt><trkpt lat="47.26078787822952" lon="-1.5426369756474556"><ele>26.166666666666668</ele><time>2026-04-20T16:42:05.034Z</time></trkpt><trkpt lat="47.260870607613825" lon="-1.5426493808641495"><ele>25.333333333333332</ele><time>2026-04-20T16:42:06.033Z</time></trkpt><trkpt lat="47.26095040333202" lon="-1.5426498837783398"><ele>24.5</ele><time>2026-04-20T16:42:07.033Z</time></trkpt><trkpt lat="47.261040885976755" lon="-1.5426663961275877"><ele>23.666666666666664</ele><time>2026-04-20T16:42:08.034Z</time></trkpt><trkpt lat="47.261106432459556" lon="-1.5426662284895243"><ele>22.833333333333332</ele><time>2026-04-20T16:42:09.039Z</time></trkpt><trkpt lat="47.26117633753201" lon="-1.5426700841649832"><ele>22.0</ele><time>2026-04-20T16:42:10.032Z</time></trkpt><trkpt lat="47.26130013824185" lon="-1.542680477724916"><ele>22.0</ele><time>2026-04-20T16:42:12.033Z</time></trkpt><trkpt lat="47.261382448530995" lon="-1.5426771249636473"><ele>22.0</ele><time>2026-04-20T16:42:13.035Z</time></trkpt><trkpt lat="47.26148244463583" lon="-1.542669832707888"><ele>22.0</ele><time>2026-04-20T16:42:14.048Z</time></trkpt><trkpt lat="47.26154924840411" lon="-1.5426964871599735"><ele>22.0</ele><time>2026-04-20T16:42:15.038Z</time></trkpt><trkpt lat="47.26164258089592" lon="-1.5427062939866842"><ele>22.0</ele><time>2026-04-20T16:42:16.034Z</time></trkpt><trkpt lat="47.261721286966704" lon="-1.5427129156901898"><ele>22.0</ele><time>2026-04-20T16:42:17.033Z</time></trkpt><trkpt lat="47.261884063526296" lon="-1.5427295956775011"><ele>22.0</ele><time>2026-04-20T16:42:19.042Z</time></trkpt><trkpt lat="47.26195786618372" lon="-1.542738480494863"><ele>22.0</ele><time>2026-04-20T16:42:20.031Z</time></trkpt><trkpt lat="47.2620463371717" lon="-1.5427459403886856"><ele>22.0</ele><time>2026-04-20T16:42:21.031Z</time></trkpt><trkpt lat="47.26212198384782" lon="-1.5427430067225756"><ele>22.0</ele><time>2026-04-20T16:42:22.045Z</time></trkpt><trkpt lat="47.262202659665846" lon="-1.5427504666163985"><ele>22.0</ele><time>2026-04-20T16:42:23.035Z</time></trkpt><trkpt lat="47.262290041006416" lon="-1.5427728462978665"><ele>22.0</ele><time>2026-04-20T16:42:24.032Z</time></trkpt><trkpt lat="47.26236698687753" lon="-1.542788017542607"><ele>21.6</ele><time>2026-04-20T16:42:25.032Z</time></trkpt><trkpt lat="47.26244933907619" lon="-1.542797740550286"><ele>21.200000000000003</ele><time>2026-04-20T16:42:26.045Z</time></trkpt><trkpt lat="47.26252259690991" lon="-1.5428297594204012"><ele>20.8</ele><time>2026-04-20T16:42:27.038Z</time></trkpt><trkpt lat="47.26261932407251" lon="-1.5428647119566266"><ele>20.4</ele><time>2026-04-20T16:42:28.031Z</time></trkpt><trkpt lat="47.26269371346316" lon="-1.5429011732354228"><ele>20.0</ele><time>2026-04-20T16:42:29.031Z</time></trkpt><trkpt lat="47.262786207764655" lon="-1.5430051926537818"><ele>19.833333333333336</ele><time>2026-04-20T16:42:31.04Z</time></trkpt><trkpt lat="47.262865626297206" lon="-1.543059591205365"><ele>19.666666666666668</ele><time>2026-04-20T16:42:32.031Z</time></trkpt><trkpt lat="47.26292325188151" lon="-1.5431159175946778"><ele>19.5</ele><time>2026-04-20T16:42:33.032Z</time></trkpt><trkpt lat="47.26299994629553" lon="-1.5431919414564437"><ele>19.333333333333332</ele><time>2026-04-20T16:42:34.045Z</time></trkpt><trkpt lat="47.26307027046314" lon="-1.543258158491499"><ele>19.166666666666664</ele><time>2026-04-20T16:42:35.041Z</time></trkpt><trkpt lat="47.26312814750454" lon="-1.5433189272894927"><ele>19.0</ele><time>2026-04-20T16:42:36.03Z</time></trkpt><trkpt lat="47.26320140533826" lon="-1.5433935262277194"><ele>19.0</ele><time>2026-04-20T16:42:37.032Z</time></trkpt><trkpt lat="47.26325739645144" lon="-1.543471142651088"><ele>19.0</ele><time>2026-04-20T16:42:38.033Z</time></trkpt><trkpt lat="47.263336605436415" lon="-1.543530067430384"><ele>19.0</ele><time>2026-04-20T16:42:39.034Z</time></trkpt><trkpt lat="47.263408228799015" lon="-1.5435918420567583"><ele>19.0</ele><time>2026-04-20T16:42:40.034Z</time></trkpt><trkpt lat="47.26346665066412" lon="-1.5436548739686082"><ele>19.0</ele><time>2026-04-20T16:42:41.033Z</time></trkpt><trkpt lat="47.263533286794335" lon="-1.5436940174564193"><ele>19.0</ele><time>2026-04-20T16:42:42.037Z</time></trkpt><trkpt lat="47.26359422323039" lon="-1.5437487512841297"><ele>19.0</ele><time>2026-04-20T16:42:43.042Z</time></trkpt><trkpt lat="47.263666642873794" lon="-1.543801389636047"><ele>19.0</ele><time>2026-04-20T16:42:44.035Z</time></trkpt><trkpt lat="47.26374044553122" lon="-1.543888561429031"><ele>19.0</ele><time>2026-04-20T16:42:45.039Z</time></trkpt><trkpt lat="47.2638371307843" lon="-1.5439986996367052"><ele>19.0</ele><time>2026-04-20T16:42:47.038Z</time></trkpt><trkpt lat="47.26394643080166" lon="-1.544120404870756"><ele>19.0</ele><time>2026-04-20T16:42:49.034Z</time></trkpt><trkpt lat="47.264017090245396" lon="-1.5441721212133244"><ele>19.0</ele><time>2026-04-20T16:42:50.039Z</time></trkpt><trkpt lat="47.26407065060666" lon="-1.5442277770503836"><ele>19.0</ele><time>2026-04-20T16:42:51.038Z</time></trkpt><trkpt lat="47.264137202917844" lon="-1.544285947458394"><ele>19.0</ele><time>2026-04-20T16:42:52.036Z</time></trkpt><trkpt lat="47.26420362950048" lon="-1.5443297848119812"><ele>19.0</ele><time>2026-04-20T16:42:53.032Z</time></trkpt><trkpt lat="47.26426452402702" lon="-1.5443813335164862"><ele>19.0</ele><time>2026-04-20T16:42:54.039Z</time></trkpt><trkpt lat="47.264378601729184" lon="-1.5444156993194895"><ele>19.0</ele><time>2026-04-20T16:42:56.034Z</time></trkpt><trkpt lat="47.26444301665506" lon="-1.5444357320680697"><ele>19.0</ele><time>2026-04-20T16:42:57.033Z</time></trkpt><trkpt lat="47.26457348097792" lon="-1.5443979296847659"><ele>19.0</ele><time>2026-04-20T16:42:59.043Z</time></trkpt><trkpt lat="47.264647115997285" lon="-1.5443597920253354"><ele>19.0</ele><time>2026-04-20T16:43:00.034Z</time></trkpt><trkpt lat="47.2647171887078" lon="-1.5443302039071398"><ele>19.0</ele><time>2026-04-20T16:43:01.034Z</time></trkpt><trkpt lat="47.26478688423267" lon="-1.544291563333519"><ele>19.0</ele><time>2026-04-20T16:43:02.035Z</time></trkpt><trkpt lat="47.26485075433484" lon="-1.5442589577301817"><ele>19.0</ele><time>2026-04-20T16:43:03.032Z</time></trkpt><trkpt lat="47.264937590851694" lon="-1.5442121028914528"><ele>19.6</ele><time>2026-04-20T16:43:04.035Z</time></trkpt><trkpt lat="47.26499458779326" lon="-1.5441647451385334"><ele>20.2</ele><time>2026-04-20T16:43:05.033Z</time></trkpt><trkpt lat="47.26507693999192" lon="-1.5441054850831106"><ele>20.8</ele><time>2026-04-20T16:43:07.034Z</time></trkpt><trkpt lat="47.26519298744133" lon="-1.5440493263318613"><ele>21.400000000000002</ele><time>2026-04-20T16:43:09.038Z</time></trkpt><trkpt lat="47.265273998535484" lon="-1.5439862106009796"><ele>22.0</ele><time>2026-04-20T16:43:11.035Z</time></trkpt><trkpt lat="47.26538560357621" lon="-1.5439251903458906"><ele>22.0</ele><time>2026-04-20T16:43:13.032Z</time></trkpt><trkpt lat="47.26550177675417" lon="-1.5438627451672626"><ele>22.0</ele><time>2026-04-20T16:43:15.026Z</time></trkpt><trkpt lat="47.26561836902729" lon="-1.5438268706216884"><ele>22.0</ele><time>2026-04-20T16:43:17.023Z</time></trkpt><trkpt lat="47.26571689829907" lon="-1.5438712108894659"><ele>22.0</ele><time>2026-04-20T16:43:19.023Z</time></trkpt><trkpt lat="47.265760442286044" lon="-1.5439910721048191"><ele>22.0</ele><time>2026-04-20T16:43:21.025Z</time></trkpt><trkpt lat="47.265805956020266" lon="-1.544133648277767"><ele>22.0</ele><time>2026-04-20T16:43:23.03Z</time></trkpt><trkpt lat="47.26584908091208" lon="-1.544298352675088"><ele>22.0</ele><time>2026-04-20T16:43:25.039Z</time></trkpt><trkpt lat="47.265886799476355" lon="-1.5444748755558808"><ele>22.0</ele><time>2026-04-20T16:43:27.026Z</time></trkpt><trkpt lat="47.2659640806236" lon="-1.544635053725489"><ele>22.0</ele><time>2026-04-20T16:43:29.037Z</time></trkpt><trkpt lat="47.266082265458316" lon="-1.5446966607138"><ele>22.200000000000003</ele><time>2026-04-20T16:43:31.031Z</time></trkpt><trkpt lat="47.26619705562225" lon="-1.5446793101742349"><ele>22.4</ele><time>2026-04-20T16:43:33.041Z</time></trkpt><trkpt lat="47.26633179471573" lon="-1.5446440223618825"><ele>22.6</ele><time>2026-04-20T16:43:35.026Z</time></trkpt><trkpt lat="47.26644071754745" lon="-1.5445938985809167"><ele>22.799999999999997</ele><time>2026-04-20T16:43:37.029Z</time></trkpt><trkpt lat="47.26650450383058" lon="-1.5445595327779134"><ele>23.0</ele><time>2026-04-20T16:43:38.024Z</time></trkpt><trkpt lat="47.26660558958283" lon="-1.5445246640607198"><ele>23.0</ele><time>2026-04-20T16:43:40.023Z</time></trkpt><trkpt lat="47.26667197425595" lon="-1.5444993507131417"><ele>23.0</ele><time>2026-04-20T16:43:41.024Z</time></trkpt><trkpt lat="47.26675889459184" lon="-1.5445100795492013"><ele>23.0</ele><time>2026-04-20T16:43:43.024Z</time></trkpt><trkpt lat="47.266824482984156" lon="-1.5445076487972815"><ele>23.0</ele><time>2026-04-20T16:43:44.024Z</time></trkpt><trkpt lat="47.26693504028699" lon="-1.5445338841542084"><ele>23.0</ele><time>2026-04-20T16:43:46.032Z</time></trkpt><trkpt lat="47.26703440774909" lon="-1.5445630531772454"><ele>23.0</ele><time>2026-04-20T16:43:48.029Z</time></trkpt><trkpt lat="47.2671581246399" lon="-1.544592054562219"><ele>23.333333333333336</ele><time>2026-04-20T16:43:50.027Z</time></trkpt><trkpt lat="47.267254893712014" lon="-1.5446628816440187"><ele>23.666666666666668</ele><time>2026-04-20T16:43:52.031Z</time></trkpt><trkpt lat="47.26731515959582" lon="-1.5446915477528653"><ele>24.0</ele><time>2026-04-20T16:43:53.032Z</time></trkpt><trkpt lat="47.26738980044356" lon="-1.544700181113132"><ele>24.333333333333336</ele><time>2026-04-20T16:43:54.028Z</time></trkpt><trkpt lat="47.26745123979381" lon="-1.5447356365635476"><ele>24.666666666666668</ele><time>2026-04-20T16:43:55.04Z</time></trkpt><trkpt lat="47.26752617400816" lon="-1.544847451151856"><ele>25.0</ele><time>2026-04-20T16:43:57.029Z</time></trkpt><trkpt lat="47.26759184621951" lon="-1.5449809748693788"><ele>25.4</ele><time>2026-04-20T16:43:59.041Z</time></trkpt><trkpt lat="47.26765475240281" lon="-1.545088682325133"><ele>25.8</ele><time>2026-04-20T16:44:01.027Z</time></trkpt><trkpt lat="47.26769758392802" lon="-1.5452163387104358"><ele>26.200000000000003</ele><time>2026-04-20T16:44:03.037Z</time></trkpt><trkpt lat="47.26776396860114" lon="-1.5453354455545034"><ele>26.6</ele><time>2026-04-20T16:44:05.024Z</time></trkpt><trkpt lat="47.26783860944888" lon="-1.5454066917314617"><ele>27.0</ele><time>2026-04-20T16:44:07.024Z</time></trkpt><trkpt lat="47.26790201854637" lon="-1.5455107949688522"><ele>27.0</ele><time>2026-04-20T16:44:09.027Z</time></trkpt><trkpt lat="47.2679367196255" lon="-1.5456243697568268"><ele>27.0</ele><time>2026-04-20T16:44:12.021Z</time></trkpt><trkpt lat="47.267931439026505" lon="-1.545753870160827"><ele>27.0</ele><time>2026-04-20T16:44:14.027Z</time></trkpt><trkpt lat="47.267925781241864" lon="-1.5458742342903706"><ele>27.0</ele><time>2026-04-20T16:44:16.027Z</time></trkpt><trkpt lat="47.26799606349996" lon="-1.54595922678853"><ele>27.0</ele><time>2026-04-20T16:44:19.05Z</time></trkpt><trkpt lat="47.26806441792032" lon="-1.5459958557053897"><ele>27.0</ele><time>2026-04-20T16:44:21.033Z</time></trkpt><trkpt lat="47.26815741513601" lon="-1.5460494998856875"><ele>27.400000000000002</ele><time>2026-04-20T16:44:23.027Z</time></trkpt><trkpt lat="47.26824529939076" lon="-1.5460758190616462"><ele>27.800000000000004</ele><time>2026-04-20T16:44:25.027Z</time></trkpt><trkpt lat="47.268345253586084" lon="-1.5460709575578067"><ele>28.2</ele><time>2026-04-20T16:44:27.041Z</time></trkpt><trkpt lat="47.268441771201104" lon="-1.5460682753487918"><ele>28.6</ele><time>2026-04-20T16:44:29.021Z</time></trkpt><trkpt lat="47.268536360978395" lon="-1.546081434936771"><ele>29.0</ele><time>2026-04-20T16:44:31.028Z</time></trkpt><trkpt lat="47.26864536762914" lon="-1.5461294632419442"><ele>29.0</ele><time>2026-04-20T16:44:33.023Z</time></trkpt><trkpt lat="47.26874075368723" lon="-1.5461892262115573"><ele>29.0</ele><time>2026-04-20T16:44:35.043Z</time></trkpt><trkpt lat="47.268831697336644" lon="-1.546231722460637"><ele>29.0</ele><time>2026-04-20T16:44:37.027Z</time></trkpt><trkpt lat="47.268934794745654" lon="-1.5462392661734914"><ele>29.0</ele><time>2026-04-20T16:44:39.04Z</time></trkpt><trkpt lat="47.26905934982678" lon="-1.54621965252007"><ele>29.0</ele><time>2026-04-20T16:44:41.034Z</time></trkpt><trkpt lat="47.26919341836801" lon="-1.5461995359524583"><ele>29.6</ele><time>2026-04-20T16:44:43.043Z</time></trkpt><trkpt lat="47.26930561014196" lon="-1.5461717080339288"><ele>30.2</ele><time>2026-04-20T16:44:45.024Z</time></trkpt><trkpt lat="47.26939617660573" lon="-1.5461541060372685"><ele>30.800000000000004</ele><time>2026-04-20T16:44:47.028Z</time></trkpt><trkpt lat="47.26948716216466" lon="-1.5461620688452815"><ele>31.400000000000002</ele><time>2026-04-20T16:44:48.032Z</time></trkpt><trkpt lat="47.26955798924646" lon="-1.5461623203023767"><ele>32.0</ele><time>2026-04-20T16:44:49.026Z</time></trkpt><trkpt lat="47.26966175720772" lon="-1.5461470652386045"><ele>31.999999999999996</ele><time>2026-04-20T16:44:51.034Z</time></trkpt><trkpt lat="47.26974369031122" lon="-1.5461514238282537"><ele>32.0</ele><time>2026-04-20T16:44:53.024Z</time></trkpt><trkpt lat="47.26983295758" lon="-1.5461732167764997"><ele>32.0</ele><time>2026-04-20T16:44:55.027Z</time></trkpt><trkpt lat="47.2699143458598" lon="-1.5461391862496232"><ele>32.0</ele><time>2026-04-20T16:44:57.027Z</time></trkpt><trkpt lat="47.269968660592355" lon="-1.5462043974562978"><ele>31.999999999999996</ele><time>2026-04-20T16:44:58.029Z</time></trkpt><trkpt lat="47.27006635167382" lon="-1.546206660570154"><ele>32.0</ele><time>2026-04-20T16:45:00.021Z</time></trkpt><trkpt lat="47.27017674133859" lon="-1.5462100971504544"><ele>32.2</ele><time>2026-04-20T16:45:02.023Z</time></trkpt><trkpt lat="47.27032040715895" lon="-1.5462267771377658"><ele>32.400000000000006</ele><time>2026-04-20T16:45:04.024Z</time></trkpt><trkpt lat="47.27039810740135" lon="-1.546261478216896"><ele>32.599999999999994</ele><time>2026-04-20T16:45:05.028Z</time></trkpt><trkpt lat="47.270479789047755" lon="-1.5463202353581285"><ele>32.8</ele><time>2026-04-20T16:45:06.026Z</time></trkpt><trkpt lat="47.27056453008882" lon="-1.546324510128746"><ele>33.0</ele><time>2026-04-20T16:45:07.026Z</time></trkpt><trkpt lat="47.27068036799065" lon="-1.5463229175671434"><ele>33.0</ele><time>2026-04-20T16:45:09.034Z</time></trkpt><trkpt lat="47.27080211513422" lon="-1.5463094227030372"><ele>33.0</ele><time>2026-04-20T16:45:11.03Z</time></trkpt><trkpt lat="47.27090667937628" lon="-1.5463417768492795"><ele>33.0</ele><time>2026-04-20T16:45:13.028Z</time></trkpt><trkpt lat="47.270972016311504" lon="-1.5463184751584624"><ele>33.0</ele><time>2026-04-20T16:45:14.025Z</time></trkpt><trkpt lat="47.271035048223354" lon="-1.54633398167933"><ele>33.0</ele><time>2026-04-20T16:45:15.024Z</time></trkpt><trkpt lat="47.27111191027544" lon="-1.5463432855918504"><ele>33.0</ele><time>2026-04-20T16:45:16.021Z</time></trkpt><trkpt lat="47.27118034851483" lon="-1.5463524218663074"><ele>33.0</ele><time>2026-04-20T16:45:17.024Z</time></trkpt><trkpt lat="47.27124593690715" lon="-1.5463623963310815"><ele>33.0</ele><time>2026-04-20T16:45:18.023Z</time></trkpt><trkpt lat="47.271313369318165" lon="-1.5463801659658052"><ele>33.0</ele><time>2026-04-20T16:45:19.028Z</time></trkpt><trkpt lat="47.27143008731983" lon="-1.546424087138424"><ele>33.0</ele><time>2026-04-20T16:45:22.03Z</time></trkpt><trkpt lat="47.27151235569946" lon="-1.5464493166669704"><ele>33.0</ele><time>2026-04-20T16:45:24.024Z</time></trkpt><trkpt lat="47.27157534570179" lon="-1.546466499568472"><ele>33.0</ele><time>2026-04-20T16:45:25.03Z</time></trkpt><trkpt lat="47.27173196156255" lon="-1.5465140249594547"><ele>32.666666666666664</ele><time>2026-04-20T16:45:27.026Z</time></trkpt><trkpt lat="47.27179432292215" lon="-1.546558113770137"><ele>32.333333333333336</ele><time>2026-04-20T16:45:28.028Z</time></trkpt><trkpt lat="47.27186137814752" lon="-1.546571692453275"><ele>32.0</ele><time>2026-04-20T16:45:29.023Z</time></trkpt><trkpt lat="47.27192721799693" lon="-1.5465807449087003"><ele>31.666666666666668</ele><time>2026-04-20T16:45:30.028Z</time></trkpt><trkpt lat="47.27201061793349" lon="-1.5465983469053606"><ele>31.333333333333336</ele><time>2026-04-20T16:45:31.027Z</time></trkpt><trkpt lat="47.27211903785101" lon="-1.5466407593354086"><ele>31.0</ele><time>2026-04-20T16:45:33.031Z</time></trkpt><trkpt lat="47.272220584607936" lon="-1.5466743707671264"><ele>31.166666666666668</ele><time>2026-04-20T16:45:35.025Z</time></trkpt><trkpt lat="47.27228319742463" lon="-1.5467011928572754"><ele>31.333333333333336</ele><time>2026-04-20T16:45:36.026Z</time></trkpt><trkpt lat="47.272348366721786" lon="-1.5467308647945026"><ele>31.5</ele><time>2026-04-20T16:45:37.031Z</time></trkpt><trkpt lat="47.27240984798155" lon="-1.5467538312091926"><ele>31.666666666666664</ele><time>2026-04-20T16:45:38.03Z</time></trkpt><trkpt lat="47.272475645921446" lon="-1.5467760432525972"><ele>31.833333333333332</ele><time>2026-04-20T16:45:39.026Z</time></trkpt><trkpt lat="47.272555190182544" lon="-1.5467995964005092"><ele>32.0</ele><time>2026-04-20T16:45:41.03Z</time></trkpt><trkpt lat="47.27268121209673" lon="-1.5468353033080202"><ele>32.0</ele><time>2026-04-20T16:45:43.025Z</time></trkpt><trkpt lat="47.27274776440791" lon="-1.5468543302282196"><ele>32.0</ele><time>2026-04-20T16:45:44.025Z</time></trkpt><trkpt lat="47.27281238888136" lon="-1.5468752011671167"><ele>32.0</ele><time>2026-04-20T16:45:45.04Z</time></trkpt><trkpt lat="47.27292592175982" lon="-1.5468996763243776"><ele>32.0</ele><time>2026-04-20T16:45:47.021Z</time></trkpt><trkpt lat="47.273038490719415" lon="-1.5469273366048437"><ele>32.0</ele><time>2026-04-20T16:45:49.039Z</time></trkpt><trkpt lat="47.27313588843427" lon="-1.54694963246728"><ele>31.75</ele><time>2026-04-20T16:45:51.023Z</time></trkpt><trkpt lat="47.27325113960288" lon="-1.546976119281302"><ele>31.5</ele><time>2026-04-20T16:45:53.027Z</time></trkpt><trkpt lat="47.27335754786364" lon="-1.5470192860826355"><ele>31.25</ele><time>2026-04-20T16:45:55.022Z</time></trkpt><trkpt lat="47.27346303411505" lon="-1.5470523946001633"><ele>31.0</ele><time>2026-04-20T16:45:57.039Z</time></trkpt><trkpt lat="47.273571370213546" lon="-1.5471161808832987"><ele>31.4</ele><time>2026-04-20T16:46:00.025Z</time></trkpt><trkpt lat="47.27365326140753" lon="-1.5471625328078373"><ele>31.8</ele><time>2026-04-20T16:46:02.031Z</time></trkpt><trkpt lat="47.27374789309434" lon="-1.5472315996899708"><ele>32.199999999999996</ele><time>2026-04-20T16:46:04.028Z</time></trkpt><trkpt lat="47.27378573738716" lon="-1.5473077073707686"><ele>32.6</ele><time>2026-04-20T16:46:06.024Z</time></trkpt><trkpt lat="47.273865281648256" lon="-1.5474315080806123"><ele>33.0</ele><time>2026-04-20T16:46:08.029Z</time></trkpt><trkpt lat="47.27395966187797" lon="-1.5475386288031447"><ele>33.199999999999996</ele><time>2026-04-20T16:46:10.031Z</time></trkpt><trkpt lat="47.274029189764775" lon="-1.547628985719334"><ele>33.4</ele><time>2026-04-20T16:46:12.043Z</time></trkpt><trkpt lat="47.274135514206506" lon="-1.5476520359530557"><ele>33.599999999999994</ele><time>2026-04-20T16:46:14.032Z</time></trkpt><trkpt lat="47.27422075816176" lon="-1.5477061830475438"><ele>33.8</ele><time>2026-04-20T16:46:16.038Z</time></trkpt><trkpt lat="47.274328758984126" lon="-1.5477095358088124"><ele>34.0</ele><time>2026-04-20T16:46:18.023Z</time></trkpt><trkpt lat="47.27440821942619" lon="-1.547652790324341"><ele>34.0</ele><time>2026-04-20T16:46:21.024Z</time></trkpt><trkpt lat="47.27446877867661" lon="-1.5476220287397016"><ele>34.0</ele><time>2026-04-20T16:46:23.022Z</time></trkpt><trkpt lat="47.27453994103453" lon="-1.54754474759246"><ele>34.0</ele><time>2026-04-20T16:46:25.024Z</time></trkpt><trkpt lat="47.2746030148559" lon="-1.547492528335701"><ele>34.0</ele><time>2026-04-20T16:46:27.021Z</time></trkpt><trkpt lat="47.27468067318878" lon="-1.5474621020271884"><ele>34.0</ele><time>2026-04-20T16:46:29.021Z</time></trkpt><trkpt lat="47.27477396377108" lon="-1.5474482718869553"><ele>34.0</ele><time>2026-04-20T16:46:31.023Z</time></trkpt><trkpt lat="47.27486071646891" lon="-1.5474558994188414"><ele>34.66666666666667</ele><time>2026-04-20T16:46:33.022Z</time></trkpt><trkpt lat="47.274937033697285" lon="-1.547470148654233"><ele>35.333333333333336</ele><time>2026-04-20T16:46:35.024Z</time></trkpt><trkpt lat="47.27501930207691" lon="-1.5474900137647496"><ele>36.0</ele><time>2026-04-20T16:46:37.024Z</time></trkpt><trkpt lat="47.27509381719611" lon="-1.5475039277240143"><ele>36.666666666666664</ele><time>2026-04-20T16:46:39.029Z</time></trkpt><trkpt lat="47.2751633031734" lon="-1.5475203562542308"><ele>37.33333333333333</ele><time>2026-04-20T16:46:41.025Z</time></trkpt><trkpt lat="47.275236100002445" lon="-1.547542065383445"><ele>38.0</ele><time>2026-04-20T16:46:43.024Z</time></trkpt><trkpt lat="47.27531476416371" lon="-1.547565618531357"><ele>38.0</ele><time>2026-04-20T16:46:45.03Z</time></trkpt><trkpt lat="47.275390285111285" lon="-1.5475857350989688"><ele>38.0</ele><time>2026-04-20T16:46:47.027Z</time></trkpt><trkpt lat="47.27548734755001" lon="-1.5476152393981326"><ele>38.0</ele><time>2026-04-20T16:46:49.024Z</time></trkpt><trkpt lat="47.27556068920276" lon="-1.5476361941560615"><ele>38.0</ele><time>2026-04-20T16:46:51.027Z</time></trkpt><trkpt lat="47.275627451061524" lon="-1.547661088408481"><ele>38.0</ele><time>2026-04-20T16:46:53.022Z</time></trkpt><trkpt lat="47.2757175146111" lon="-1.5476762596532214"><ele>38.0</ele><time>2026-04-20T16:46:55.02Z</time></trkpt><trkpt lat="47.27579261646352" lon="-1.5477203484639037"><ele>38.0</ele><time>2026-04-20T16:46:57.021Z</time></trkpt><trkpt lat="47.275856109380044" lon="-1.5477952826782575"><ele>38.0</ele><time>2026-04-20T16:46:59.018Z</time></trkpt><trkpt lat="47.27590518542311" lon="-1.547904079781424"><ele>38.0</ele><time>2026-04-20T16:47:01.028Z</time></trkpt><trkpt lat="47.27593971886418" lon="-1.5480236895396822"><ele>38.0</ele><time>2026-04-20T16:47:03.025Z</time></trkpt><trkpt lat="47.27598950736902" lon="-1.5481370128705614"><ele>38.0</ele><time>2026-04-20T16:47:05.025Z</time></trkpt><trkpt lat="47.27607793644748" lon="-1.5482000447824114"><ele>38.0</ele><time>2026-04-20T16:47:07.024Z</time></trkpt><trkpt lat="47.276160330555655" lon="-1.548247905449521"><ele>38.0</ele><time>2026-04-20T16:47:09.022Z</time></trkpt><trkpt lat="47.27625680626116" lon="-1.5482807625099535"><ele>38.0</ele><time>2026-04-20T16:47:11.024Z</time></trkpt><trkpt lat="47.27632469967685" lon="-1.5482837799950953"><ele>38.0</ele><time>2026-04-20T16:47:13.019Z</time></trkpt><trkpt lat="47.27640654896132" lon="-1.5482329018428438"><ele>38.0</ele><time>2026-04-20T16:47:17.021Z</time></trkpt><trkpt lat="47.27648412347517" lon="-1.5481672715410106"><ele>38.0</ele><time>2026-04-20T16:47:19.019Z</time></trkpt><trkpt lat="47.27657238491557" lon="-1.5481360908612125"><ele>38.0</ele><time>2026-04-20T16:47:21.022Z</time></trkpt><trkpt lat="47.2766795056381" lon="-1.5481408685460203"><ele>38.199999999999996</ele><time>2026-04-20T16:47:23.023Z</time></trkpt><trkpt lat="47.276786291084505" lon="-1.5481502562775724"><ele>38.4</ele><time>2026-04-20T16:47:25.027Z</time></trkpt><trkpt lat="47.276902128986336" lon="-1.5481693670168035"><ele>38.599999999999994</ele><time>2026-04-20T16:47:27.025Z</time></trkpt><trkpt lat="47.27701914035461" lon="-1.5481952670976036"><ele>38.8</ele><time>2026-04-20T16:47:29.022Z</time></trkpt><trkpt lat="47.27708443538032" lon="-1.5482091810568683"><ele>39.0</ele><time>2026-04-20T16:47:30.04Z</time></trkpt><trkpt lat="47.277148305482484" lon="-1.5482163056745641"><ele>39.0</ele><time>2026-04-20T16:47:31.028Z</time></trkpt><trkpt lat="47.277221144221045" lon="-1.54822929762448"><ele>39.0</ele><time>2026-04-20T16:47:32.023Z</time></trkpt><trkpt lat="47.27733857468448" lon="-1.5482586342855806"><ele>39.0</ele><time>2026-04-20T16:47:34.04Z</time></trkpt><trkpt lat="47.2774012713202" lon="-1.5482772421106215"><ele>39.0</ele><time>2026-04-20T16:47:35.019Z</time></trkpt><trkpt lat="47.27752804760568" lon="-1.5483061596765633"><ele>39.0</ele><time>2026-04-20T16:47:37.026Z</time></trkpt><trkpt lat="47.27760235317729" lon="-1.5483306348338242"><ele>38.666666666666664</ele><time>2026-04-20T16:47:38.023Z</time></trkpt><trkpt lat="47.277674689001664" lon="-1.5483416151269789"><ele>38.333333333333336</ele><time>2026-04-20T16:47:39.024Z</time></trkpt><trkpt lat="47.277744384526535" lon="-1.5483633242561932"><ele>38.0</ele><time>2026-04-20T16:47:40.03Z</time></trkpt><trkpt lat="47.27781919301234" lon="-1.5483906492605324"><ele>37.66666666666667</ele><time>2026-04-20T16:47:41.023Z</time></trkpt><trkpt lat="47.277885535775944" lon="-1.5484095923617"><ele>37.333333333333336</ele><time>2026-04-20T16:47:42.046Z</time></trkpt><trkpt lat="47.277998230464085" lon="-1.5484741330161211"><ele>37.0</ele><time>2026-04-20T16:47:44.023Z</time></trkpt><trkpt lat="47.27807526015423" lon="-1.5484907291844008"><ele>36.0</ele><time>2026-04-20T16:47:45.025Z</time></trkpt><trkpt lat="47.27815513969146" lon="-1.548513360322964"><ele>35.0</ele><time>2026-04-20T16:47:46.035Z</time></trkpt><trkpt lat="47.27821800396524" lon="-1.5485267713680384"><ele>34.0</ele><time>2026-04-20T16:47:47.02Z</time></trkpt><trkpt lat="47.27829754822634" lon="-1.5485428646221278"><ele>33.0</ele><time>2026-04-20T16:47:48.024Z</time></trkpt><trkpt lat="47.27837068033151" lon="-1.5485498216017601"><ele>32.0</ele><time>2026-04-20T16:47:49.024Z</time></trkpt><trkpt lat="47.278453116349205" lon="-1.5485833492144463"><ele>31.0</ele><time>2026-04-20T16:47:50.04Z</time></trkpt><trkpt lat="47.27853722874753" lon="-1.5486065670862315"><ele>31.000000000000004</ele><time>2026-04-20T16:47:51.019Z</time></trkpt><trkpt lat="47.2786227660694" lon="-1.5486323833479998"><ele>31.0</ele><time>2026-04-20T16:47:52.026Z</time></trkpt><trkpt lat="47.27870712992482" lon="-1.5486563555910704"><ele>31.0</ele><time>2026-04-20T16:47:53.026Z</time></trkpt><trkpt lat="47.278777873187586" lon="-1.548679154367697"><ele>31.0</ele><time>2026-04-20T16:47:54.023Z</time></trkpt><trkpt lat="47.278860854028984" lon="-1.5486998576685307"><ele>31.000000000000004</ele><time>2026-04-20T16:47:55.02Z</time></trkpt><trkpt lat="47.27894567888908" lon="-1.5487290266915679"><ele>31.0</ele><time>2026-04-20T16:47:56.029Z</time></trkpt><trkpt lat="47.27903134193949" lon="-1.5487576089813828"><ele>30.666666666666668</ele><time>2026-04-20T16:47:57.029Z</time></trkpt><trkpt lat="47.27911423896186" lon="-1.5487789828344702"><ele>30.333333333333336</ele><time>2026-04-20T16:47:58.021Z</time></trkpt><trkpt lat="47.279210714667364" lon="-1.548802033068192"><ele>30.0</ele><time>2026-04-20T16:47:59.026Z</time></trkpt><trkpt lat="47.27929365359925" lon="-1.548826759682548"><ele>29.666666666666664</ele><time>2026-04-20T16:48:00.024Z</time></trkpt><trkpt lat="47.2793736169555" lon="-1.548877134920609"><ele>29.333333333333332</ele><time>2026-04-20T16:48:01.023Z</time></trkpt><trkpt lat="47.27946250703864" lon="-1.5488978382214427"><ele>29.0</ele><time>2026-04-20T16:48:02.048Z</time></trkpt><trkpt lat="47.279545404061004" lon="-1.5489155240371346"><ele>28.999999999999996</ele><time>2026-04-20T16:48:03.032Z</time></trkpt><trkpt lat="47.279631486206576" lon="-1.5489451121553302"><ele>29.0</ele><time>2026-04-20T16:48:04.024Z</time></trkpt><trkpt lat="47.27971035991542" lon="-1.548966402189386"><ele>29.0</ele><time>2026-04-20T16:48:05.025Z</time></trkpt><trkpt lat="47.279799124270006" lon="-1.5489820763483169"><ele>29.0</ele><time>2026-04-20T16:48:06.041Z</time></trkpt><trkpt lat="47.27988629606299" lon="-1.5490094851716878"><ele>28.999999999999996</ele><time>2026-04-20T16:48:07.027Z</time></trkpt><trkpt lat="47.279959092892035" lon="-1.5490347147002341"><ele>29.0</ele><time>2026-04-20T16:48:08.026Z</time></trkpt><trkpt lat="47.28004098408602" lon="-1.5490582678481462"><ele>28.333333333333332</ele><time>2026-04-20T16:48:09.021Z</time></trkpt><trkpt lat="47.280122498094364" lon="-1.5490840841099145"><ele>27.666666666666664</ele><time>2026-04-20T16:48:10.045Z</time></trkpt><trkpt lat="47.28021025662057" lon="-1.5491007640972259"><ele>27.0</ele><time>2026-04-20T16:48:11.027Z</time></trkpt><trkpt lat="47.280284771739765" lon="-1.5491196233793618"><ele>26.333333333333336</ele><time>2026-04-20T16:48:12.025Z</time></trkpt><trkpt lat="47.28036108896814" lon="-1.5491430088892104"><ele>25.666666666666668</ele><time>2026-04-20T16:48:13.024Z</time></trkpt><trkpt lat="47.2804463329234" lon="-1.5491789672538163"><ele>25.0</ele><time>2026-04-20T16:48:14.042Z</time></trkpt><trkpt lat="47.28052348834209" lon="-1.549209477381361"><ele>25.000000000000004</ele><time>2026-04-20T16:48:15.03Z</time></trkpt><trkpt lat="47.280597416728064" lon="-1.5492263250067357"><ele>25.0</ele><time>2026-04-20T16:48:16.028Z</time></trkpt><trkpt lat="47.280671680390164" lon="-1.5492498781546478"><ele>25.0</ele><time>2026-04-20T16:48:17.021Z</time></trkpt><trkpt lat="47.28074175310068" lon="-1.5492555778488044"><ele>25.0</ele><time>2026-04-20T16:48:18.048Z</time></trkpt><trkpt lat="47.28080897596411" lon="-1.5492718387409572"><ele>25.000000000000004</ele><time>2026-04-20T16:48:19.028Z</time></trkpt><trkpt lat="47.280877959027215" lon="-1.5492973197265987"><ele>25.0</ele><time>2026-04-20T16:48:20.023Z</time></trkpt><trkpt lat="47.2810116503828" lon="-1.5493240579977159"><ele>25.142857142857146</ele><time>2026-04-20T16:48:22.048Z</time></trkpt><trkpt lat="47.28108096872203" lon="-1.54934819787885"><ele>25.285714285714285</ele><time>2026-04-20T16:48:23.028Z</time></trkpt><trkpt lat="47.28115078997545" lon="-1.5493719186648254"><ele>25.42857142857143</ele><time>2026-04-20T16:48:24.023Z</time></trkpt><trkpt lat="47.28121889293872" lon="-1.5493942983462934"><ele>25.571428571428573</ele><time>2026-04-20T16:48:25.026Z</time></trkpt><trkpt lat="47.28128707972102" lon="-1.5494158398374442"><ele>25.714285714285715</ele><time>2026-04-20T16:48:26.047Z</time></trkpt><trkpt lat="47.28135870308362" lon="-1.5494344476624853"><ele>25.857142857142858</ele><time>2026-04-20T16:48:27.026Z</time></trkpt><trkpt lat="47.28142454293303" lon="-1.549450708554638"><ele>26.0</ele><time>2026-04-20T16:48:28.026Z</time></trkpt><trkpt lat="47.281493106900975" lon="-1.5494741778835184"><ele>26.200000000000003</ele><time>2026-04-20T16:48:29.026Z</time></trkpt><trkpt lat="47.28161598560147" lon="-1.549506951124919"><ele>26.400000000000002</ele><time>2026-04-20T16:48:31.027Z</time></trkpt><trkpt lat="47.28168014907025" lon="-1.5495132375522978"><ele>26.6</ele><time>2026-04-20T16:48:32.024Z</time></trkpt><trkpt lat="47.28179892063819" lon="-1.5495434124037153"><ele>26.8</ele><time>2026-04-20T16:48:34.02Z</time></trkpt><trkpt lat="47.28186346129261" lon="-1.5495518781259185"><ele>27.0</ele><time>2026-04-20T16:48:35.025Z</time></trkpt><trkpt lat="47.2819649242305" lon="-1.549573251979006"><ele>27.200000000000003</ele><time>2026-04-20T16:48:37.023Z</time></trkpt><trkpt lat="47.282044300853535" lon="-1.5495924465372688"><ele>27.400000000000002</ele><time>2026-04-20T16:48:38.042Z</time></trkpt><trkpt lat="47.28215288840912" lon="-1.5495949611082203"><ele>27.599999999999998</ele><time>2026-04-20T16:48:40.026Z</time></trkpt><trkpt lat="47.28222061418675" lon="-1.5496143233045465"><ele>27.799999999999997</ele><time>2026-04-20T16:48:41.021Z</time></trkpt><trkpt lat="47.2823526291617" lon="-1.5496453363462812"><ele>28.0</ele><time>2026-04-20T16:48:43.03Z</time></trkpt><trkpt lat="47.282468425154015" lon="-1.5496683027609715"><ele>28.2</ele><time>2026-04-20T16:48:45.02Z</time></trkpt><trkpt lat="47.28257977873765" lon="-1.5496788639589676"><ele>28.4</ele><time>2026-04-20T16:48:47.024Z</time></trkpt><trkpt lat="47.28269335352562" lon="-1.5497124753906855"><ele>28.599999999999998</ele><time>2026-04-20T16:48:49.023Z</time></trkpt><trkpt lat="47.28280424610458" lon="-1.5497651137426027"><ele>28.799999999999997</ele><time>2026-04-20T16:48:51.025Z</time></trkpt><trkpt lat="47.28289338764481" lon="-1.5498154889806637"><ele>29.0</ele><time>2026-04-20T16:48:53.023Z</time></trkpt><trkpt lat="47.28296450809322" lon="-1.549838371576322"><ele>29.0</ele><time>2026-04-20T16:48:55.023Z</time></trkpt><trkpt lat="47.28305628993295" lon="-1.5497931092991957"><ele>29.0</ele><time>2026-04-20T16:48:57.026Z</time></trkpt><trkpt lat="47.28315993216567" lon="-1.549730580301536"><ele>29.0</ele><time>2026-04-20T16:48:59.025Z</time></trkpt><trkpt lat="47.2832747223296" lon="-1.549709960819734"><ele>29.0</ele><time>2026-04-20T16:49:01.027Z</time></trkpt><trkpt lat="47.28338310033761" lon="-1.549714989961637"><ele>29.0</ele><time>2026-04-20T16:49:03.025Z</time></trkpt><trkpt lat="47.283489885784014" lon="-1.549742650242103"><ele>29.0</ele><time>2026-04-20T16:49:05.023Z</time></trkpt><trkpt lat="47.28360291574828" lon="-1.5497737471028694"><ele>29.0</ele><time>2026-04-20T16:49:07.024Z</time></trkpt><trkpt lat="47.28371234149419" lon="-1.5497666224851736"><ele>29.0</ele><time>2026-04-20T16:49:09.021Z</time></trkpt><trkpt lat="47.28381309197031" lon="-1.5497901756330856"><ele>29.0</ele><time>2026-04-20T16:49:11.022Z</time></trkpt><trkpt lat="47.28392348163508" lon="-1.5497944504037031"><ele>29.0</ele><time>2026-04-20T16:49:13.024Z</time></trkpt><trkpt lat="47.28402674668215" lon="-1.5498023293926844"><ele>28.833333333333332</ele><time>2026-04-20T16:49:15.019Z</time></trkpt><trkpt lat="47.28410226762973" lon="-1.549808029086841"><ele>28.666666666666664</ele><time>2026-04-20T16:49:17.021Z</time></trkpt><trkpt lat="47.28416567672722" lon="-1.5498055145158895"><ele>28.5</ele><time>2026-04-20T16:49:19.026Z</time></trkpt><trkpt lat="47.284244843802675" lon="-1.5498081129058727"><ele>28.333333333333336</ele><time>2026-04-20T16:49:22.025Z</time></trkpt><trkpt lat="47.28432702836327" lon="-1.549814483152283"><ele>28.166666666666668</ele><time>2026-04-20T16:49:24.023Z</time></trkpt><trkpt lat="47.28440778800033" lon="-1.5498054306968578"><ele>28.0</ele><time>2026-04-20T16:49:25.042Z</time></trkpt><trkpt lat="47.28453313936226" lon="-1.549799228088511"><ele>28.0</ele><time>2026-04-20T16:49:27.026Z</time></trkpt><trkpt lat="47.284622825726196" lon="-1.5498037543162235"><ele>27.999999999999996</ele><time>2026-04-20T16:49:29.027Z</time></trkpt><trkpt lat="47.284715906760916" lon="-1.5497814584537872"><ele>27.999999999999996</ele><time>2026-04-20T16:49:31.023Z</time></trkpt><trkpt lat="47.28482084818862" lon="-1.5497734118267426"><ele>28.0</ele><time>2026-04-20T16:49:33.023Z</time></trkpt><trkpt lat="47.284914515956565" lon="-1.5497670415803322"><ele>28.0</ele><time>2026-04-20T16:49:35.025Z</time></trkpt><trkpt lat="47.28504498027943" lon="-1.5497941151275763"><ele>27.833333333333336</ele><time>2026-04-20T16:49:37.023Z</time></trkpt><trkpt lat="47.28510926947676" lon="-1.5498118009432682"><ele>27.666666666666668</ele><time>2026-04-20T16:49:38.022Z</time></trkpt><trkpt lat="47.285211025781265" lon="-1.549897296355618"><ele>27.5</ele><time>2026-04-20T16:49:40.022Z</time></trkpt><trkpt lat="47.28524941489779" lon="-1.549996286632074"><ele>27.333333333333336</ele><time>2026-04-20T16:49:42.02Z</time></trkpt><trkpt lat="47.28527460251682" lon="-1.5500858891769778"><ele>27.166666666666668</ele><time>2026-04-20T16:49:45.024Z</time></trkpt><trkpt lat="47.285355697430006" lon="-1.5501842927202119"><ele>27.0</ele><time>2026-04-20T16:49:48.026Z</time></trkpt><trkpt lat="47.285436037971905" lon="-1.5502815227970017"><ele>27.200000000000003</ele><time>2026-04-20T16:49:50.026Z</time></trkpt><trkpt lat="47.285507367967895" lon="-1.5503839496537581"><ele>27.400000000000002</ele><time>2026-04-20T16:49:52.026Z</time></trkpt><trkpt lat="47.28555979677223" lon="-1.5504355821772948"><ele>27.599999999999998</ele><time>2026-04-20T16:49:54.026Z</time></trkpt><trkpt lat="47.28563992776655" lon="-1.5504184830948249"><ele>27.799999999999997</ele><time>2026-04-20T16:49:56.023Z</time></trkpt><trkpt lat="47.28573271543466" lon="-1.5503246057793034"><ele>28.0</ele><time>2026-04-20T16:49:58.025Z</time></trkpt><trkpt lat="47.285790969661704" lon="-1.5502117853626145"><ele>27.599999999999998</ele><time>2026-04-20T16:50:00.024Z</time></trkpt><trkpt lat="47.28583656721496" lon="-1.5501131303622853"><ele>27.199999999999996</ele><time>2026-04-20T16:50:02.024Z</time></trkpt><trkpt lat="47.28590496354484" lon="-1.5499742422267329"><ele>26.8</ele><time>2026-04-20T16:50:04.022Z</time></trkpt><trkpt lat="47.28598685473882" lon="-1.5498417243375906"><ele>26.4</ele><time>2026-04-20T16:50:06.024Z</time></trkpt><trkpt lat="47.286089742600254" lon="-1.5497410576805004"><ele>26.0</ele><time>2026-04-20T16:50:08.02Z</time></trkpt><trkpt lat="47.286191205538145" lon="-1.5497100446387657"><ele>25.999999999999996</ele><time>2026-04-20T16:50:10.019Z</time></trkpt><trkpt lat="47.28628927380525" lon="-1.5497189294561275"><ele>26.0</ele><time>2026-04-20T16:50:12.025Z</time></trkpt><trkpt lat="47.28635930460625" lon="-1.5496830549105534"><ele>26.0</ele><time>2026-04-20T16:50:13.026Z</time></trkpt><trkpt lat="47.286423090889386" lon="-1.5496631059810049"><ele>26.0</ele><time>2026-04-20T16:50:14.024Z</time></trkpt><trkpt lat="47.286492493047646" lon="-1.549672828988684"><ele>25.999999999999996</ele><time>2026-04-20T16:50:15.023Z</time></trkpt><trkpt lat="47.28656361349606" lon="-1.5496654529138931"><ele>26.0</ele><time>2026-04-20T16:50:16.024Z</time></trkpt><trkpt lat="47.28669256907635" lon="-1.5496494434788353"><ele>25.8</ele><time>2026-04-20T16:50:18.025Z</time></trkpt><trkpt lat="47.28676683273845" lon="-1.5496301651015407"><ele>25.6</ele><time>2026-04-20T16:50:19.021Z</time></trkpt><trkpt lat="47.28684960403227" lon="-1.5496293269112236"><ele>25.4</ele><time>2026-04-20T16:50:20.032Z</time></trkpt><trkpt lat="47.286950312598876" lon="-1.5496096294387705"><ele>25.2</ele><time>2026-04-20T16:50:22.028Z</time></trkpt><trkpt lat="47.28706740778618" lon="-1.5495965536698229"><ele>25.0</ele><time>2026-04-20T16:50:24.027Z</time></trkpt><trkpt lat="47.287149340889684" lon="-1.5495746769025451"><ele>25.2</ele><time>2026-04-20T16:50:26.026Z</time></trkpt><trkpt lat="47.28726480160587" lon="-1.5495538897826797"><ele>25.4</ele><time>2026-04-20T16:50:28.021Z</time></trkpt><trkpt lat="47.287353104955784" lon="-1.5495654568090564"><ele>25.6</ele><time>2026-04-20T16:50:30.027Z</time></trkpt><trkpt lat="47.28743122429334" lon="-1.5495551470681554"><ele>25.8</ele><time>2026-04-20T16:50:31.023Z</time></trkpt><trkpt lat="47.287532184317044" lon="-1.5495427418514616"><ele>26.0</ele><time>2026-04-20T16:50:33.037Z</time></trkpt><trkpt lat="47.28764156815343" lon="-1.5495454240604765"><ele>26.0</ele><time>2026-04-20T16:50:35.046Z</time></trkpt><trkpt lat="47.28775179018014" lon="-1.5495194401606447"><ele>26.0</ele><time>2026-04-20T16:50:37.021Z</time></trkpt><trkpt lat="47.28786549069666" lon="-1.5495198592558033"><ele>26.0</ele><time>2026-04-20T16:50:39.031Z</time></trkpt><trkpt lat="47.28793682069265" lon="-1.5495372936144"><ele>26.0</ele><time>2026-04-20T16:50:40.025Z</time></trkpt><trkpt lat="47.28801481430166" lon="-1.549547938631428"><ele>26.0</ele><time>2026-04-20T16:50:42.021Z</time></trkpt><trkpt lat="47.2881335858696" lon="-1.5495207812651521"><ele>26.0</ele><time>2026-04-20T16:50:44.02Z</time></trkpt><trkpt lat="47.288251309699646" lon="-1.54946252703811"><ele>26.0</ele><time>2026-04-20T16:50:46.033Z</time></trkpt><trkpt lat="47.28833030913704" lon="-1.5494600962861902"><ele>26.0</ele><time>2026-04-20T16:50:48.021Z</time></trkpt><trkpt lat="47.28843923196875" lon="-1.549426568673504"><ele>26.0</ele><time>2026-04-20T16:50:50.025Z</time></trkpt><trkpt lat="47.2885249788382" lon="-1.5494093857720022"><ele>26.0</ele><time>2026-04-20T16:50:51.052Z</time></trkpt><trkpt lat="47.28866277732634" lon="-1.549399411307228"><ele>26.0</ele><time>2026-04-20T16:50:53.026Z</time></trkpt><trkpt lat="47.2887744661861" lon="-1.5493819769486312"><ele>26.0</ele><time>2026-04-20T16:50:55.03Z</time></trkpt><trkpt lat="47.28888908871197" lon="-1.5493422467275981"><ele>26.0</ele><time>2026-04-20T16:50:57.031Z</time></trkpt><trkpt lat="47.28895606011831" lon="-1.5493344515576486"><ele>26.0</ele><time>2026-04-20T16:50:58.023Z</time></trkpt><trkpt lat="47.28911338844084" lon="-1.5492853336050634"><ele>26.5</ele><time>2026-04-20T16:51:00.019Z</time></trkpt><trkpt lat="47.28923216000878" lon="-1.5492269955589895"><ele>27.0</ele><time>2026-04-20T16:51:02.02Z</time></trkpt><trkpt lat="47.28934527379208" lon="-1.5492310188725118"><ele>27.5</ele><time>2026-04-20T16:51:04.027Z</time></trkpt><trkpt lat="47.28945708838039" lon="-1.5492142550661687"><ele>28.0</ele><time>2026-04-20T16:51:06.023Z</time></trkpt><trkpt lat="47.28959362958305" lon="-1.5492466930314426"><ele>28.000000000000004</ele><time>2026-04-20T16:51:08.021Z</time></trkpt><trkpt lat="47.28967401203447" lon="-1.5492622833713416"><ele>28.0</ele><time>2026-04-20T16:51:09.025Z</time></trkpt><trkpt lat="47.28974370755934" lon="-1.549277789892209"><ele>28.0</ele><time>2026-04-20T16:51:10.023Z</time></trkpt><trkpt lat="47.289822162173024" lon="-1.549285165967"><ele>28.0</ele><time>2026-04-20T16:51:11.041Z</time></trkpt><trkpt lat="47.28991101034664" lon="-1.5492683183416252"><ele>28.000000000000004</ele><time>2026-04-20T16:51:12.027Z</time></trkpt><trkpt lat="47.289974628991715" lon="-1.5492943860604886"><ele>28.0</ele><time>2026-04-20T16:51:13.021Z</time></trkpt><trkpt lat="47.29003921155565" lon="-1.549284830690873"><ele>27.500000000000004</ele><time>2026-04-20T16:51:14.027Z</time></trkpt><trkpt lat="47.29010572195732" lon="-1.5492837410434608"><ele>27.0</ele><time>2026-04-20T16:51:15.039Z</time></trkpt><trkpt lat="47.29017830923878" lon="-1.5492809750154142"><ele>26.5</ele><time>2026-04-20T16:51:16.03Z</time></trkpt><trkpt lat="47.29028832171791" lon="-1.549295140431774"><ele>26.0</ele><time>2026-04-20T16:51:18.023Z</time></trkpt><trkpt lat="47.29033098560505" lon="-1.5492189489319448"><ele>25.500000000000004</ele><time>2026-04-20T16:51:19.055Z</time></trkpt><trkpt lat="47.29034347464078" lon="-1.5491194557412984"><ele>25.0</ele><time>2026-04-20T16:51:21.025Z</time></trkpt><trkpt lat="47.290429011962644" lon="-1.5490881074234368"><ele>25.0</ele><time>2026-04-20T16:51:23.042Z</time></trkpt><trkpt lat="47.29051467501306" lon="-1.549080396072519"><ele>25.0</ele><time>2026-04-20T16:51:25.024Z</time></trkpt><trkpt lat="47.29058889676564" lon="-1.5490989200785281"><ele>25.0</ele><time>2026-04-20T16:51:27.043Z</time></trkpt><trkpt lat="47.290688599503866" lon="-1.5491015184685113"><ele>25.0</ele><time>2026-04-20T16:51:29.023Z</time></trkpt><trkpt lat="47.290798486254445" lon="-1.5490867663189294"><ele>25.0</ele><time>2026-04-20T16:51:31.031Z</time></trkpt><trkpt lat="47.29090749290519" lon="-1.5490732714548232"><ele>25.500000000000004</ele><time>2026-04-20T16:51:33.021Z</time></trkpt><trkpt lat="47.290975344411365" lon="-1.5490667335703494"><ele>26.0</ele><time>2026-04-20T16:51:34.019Z</time></trkpt><trkpt lat="47.29108456060969" lon="-1.5490793064251067"><ele>26.5</ele><time>2026-04-20T16:51:36.019Z</time></trkpt><trkpt lat="47.29114792779767" lon="-1.5490900352611663"><ele>27.0</ele><time>2026-04-20T16:51:37.022Z</time></trkpt><trkpt lat="47.29125806600534" lon="-1.5490822400912168"><ele>27.500000000000004</ele><time>2026-04-20T16:51:39.042Z</time></trkpt><trkpt lat="47.291334006048075" lon="-1.5490715112551572"><ele>28.0</ele><time>2026-04-20T16:51:40.03Z</time></trkpt><trkpt lat="47.29140764106744" lon="-1.549053322525275"><ele>27.799999999999997</ele><time>2026-04-20T16:51:42.024Z</time></trkpt><trkpt lat="47.29154158388012" lon="-1.5490766242160918"><ele>27.599999999999998</ele><time>2026-04-20T16:51:44.024Z</time></trkpt><trkpt lat="47.29162565436893" lon="-1.54907360673095"><ele>27.400000000000002</ele><time>2026-04-20T16:51:45.021Z</time></trkpt><trkpt lat="47.29172405791216" lon="-1.549075366930616"><ele>27.200000000000003</ele><time>2026-04-20T16:51:47.019Z</time></trkpt><trkpt lat="47.29181977924638" lon="-1.5490990877165915"><ele>27.0</ele><time>2026-04-20T16:51:49.024Z</time></trkpt><trkpt lat="47.29188888803803" lon="-1.5491013508304479"><ele>27.0</ele><time>2026-04-20T16:51:50.021Z</time></trkpt><trkpt lat="47.29196248114788" lon="-1.5490865148618342"><ele>27.0</ele><time>2026-04-20T16:51:52.024Z</time></trkpt><trkpt lat="47.29203213476323" lon="-1.5490867663189294"><ele>27.0</ele><time>2026-04-20T16:51:53.021Z</time></trkpt><trkpt lat="47.29212274313652" lon="-1.549068326131952"><ele>27.0</ele><time>2026-04-20T16:51:55.021Z</time></trkpt><trkpt lat="47.292222026779584" lon="-1.5490948967650058"><ele>27.0</ele><time>2026-04-20T16:51:57.021Z</time></trkpt><trkpt lat="47.29230915666305" lon="-1.5491724293693425"><ele>27.0</ele><time>2026-04-20T16:51:59.024Z</time></trkpt><trkpt lat="47.29239398152315" lon="-1.5491804759963872"><ele>27.333333333333332</ele><time>2026-04-20T16:52:01.02Z</time></trkpt><trkpt lat="47.292461078658036" lon="-1.5491753630354526"><ele>27.666666666666664</ele><time>2026-04-20T16:52:03.025Z</time></trkpt><trkpt lat="47.29253936563366" lon="-1.549176117406738"><ele>28.0</ele><time>2026-04-20T16:52:05.022Z</time></trkpt><trkpt lat="47.29265700564467" lon="-1.5491679031416299"><ele>28.333333333333332</ele><time>2026-04-20T16:52:07.024Z</time></trkpt><trkpt lat="47.29275276888841" lon="-1.549169328065169"><ele>28.666666666666664</ele><time>2026-04-20T16:52:09.03Z</time></trkpt><trkpt lat="47.29283667173916" lon="-1.5491655562087419"><ele>29.0</ele><time>2026-04-20T16:52:11.019Z</time></trkpt><trkpt lat="47.29291822765702" lon="-1.5491718426361205"><ele>28.999999999999996</ele><time>2026-04-20T16:52:13.021Z</time></trkpt><trkpt lat="47.29302404918456" lon="-1.5491671487703444"><ele>29.0</ele><time>2026-04-20T16:52:15.022Z</time></trkpt><trkpt lat="47.29309240360492" lon="-1.549166981132281"><ele>29.0</ele><time>2026-04-20T16:52:17.016Z</time></trkpt><trkpt lat="47.293170103847324" lon="-1.5491594374194266"><ele>29.0</ele><time>2026-04-20T16:52:19.016Z</time></trkpt><trkpt lat="47.293250821574865" lon="-1.5491461940124156"><ele>28.999999999999996</ele><time>2026-04-20T16:52:21.021Z</time></trkpt><trkpt lat="47.293331162116765" lon="-1.5491329506054046"><ele>29.0</ele><time>2026-04-20T16:52:23.021Z</time></trkpt><trkpt lat="47.29342072275215" lon="-1.5491009317352893"><ele>29.4</ele><time>2026-04-20T16:52:25.02Z</time></trkpt><trkpt lat="47.29349716570908" lon="-1.5490278415396335"><ele>29.799999999999997</ele><time>2026-04-20T16:52:27.02Z</time></trkpt><trkpt lat="47.293589660010575" lon="-1.5489565115436437"><ele>30.200000000000003</ele><time>2026-04-20T16:52:29.015Z</time></trkpt><trkpt lat="47.29368043602192" lon="-1.5489278454347968"><ele>30.6</ele><time>2026-04-20T16:52:31.023Z</time></trkpt><trkpt lat="47.293762872039615" lon="-1.5489347185953974"><ele>31.0</ele><time>2026-04-20T16:52:33.024Z</time></trkpt><trkpt lat="47.293850085742115" lon="-1.5489350538715243"><ele>31.000000000000004</ele><time>2026-04-20T16:52:35.019Z</time></trkpt><trkpt lat="47.29391500358218" lon="-1.5489317011102557"><ele>31.0</ele><time>2026-04-20T16:52:36.021Z</time></trkpt><trkpt lat="47.29402405214244" lon="-1.5489319525673508"><ele>31.0</ele><time>2026-04-20T16:52:38.02Z</time></trkpt><trkpt lat="47.29412312623793" lon="-1.548922481016767"><ele>31.0</ele><time>2026-04-20T16:52:40.021Z</time></trkpt><trkpt lat="47.29419169020587" lon="-1.5489300247296214"><ele>31.000000000000004</ele><time>2026-04-20T16:52:42.022Z</time></trkpt><trkpt lat="47.29429223113441" lon="-1.5489185415222764"><ele>31.0</ele><time>2026-04-20T16:52:44.023Z</time></trkpt><trkpt lat="47.29438623417848" lon="-1.5488980896785378"><ele>31.200000000000003</ele><time>2026-04-20T16:52:46.023Z</time></trkpt><trkpt lat="47.29449209761554" lon="-1.5488855168237805"><ele>31.400000000000002</ele><time>2026-04-20T16:52:48.027Z</time></trkpt><trkpt lat="47.294621137014865" lon="-1.5488793980344653"><ele>31.6</ele><time>2026-04-20T16:52:50.025Z</time></trkpt><trkpt lat="47.29472586889499" lon="-1.5488770511015773"><ele>31.8</ele><time>2026-04-20T16:52:52.022Z</time></trkpt><trkpt lat="47.294792421206175" lon="-1.548878308387053"><ele>32.0</ele><time>2026-04-20T16:52:53.019Z</time></trkpt><trkpt lat="47.294856375127374" lon="-1.548874452711594"><ele>31.999999999999996</ele><time>2026-04-20T16:52:54.022Z</time></trkpt><trkpt lat="47.294943672648905" lon="-1.5488639753326296"><ele>32.0</ele><time>2026-04-20T16:52:55.021Z</time></trkpt><trkpt lat="47.29500875812703" lon="-1.5488573536291241"><ele>32.0</ele><time>2026-04-20T16:52:56.048Z</time></trkpt><trkpt lat="47.29507640008563" lon="-1.5488746203496575"><ele>32.0</ele><time>2026-04-20T16:52:57.026Z</time></trkpt><trkpt lat="47.29514358103955" lon="-1.5488710999503255"><ele>31.999999999999996</ele><time>2026-04-20T16:52:58.018Z</time></trkpt><trkpt lat="47.29528569620782" lon="-1.5488814096912265"><ele>32.0</ele><time>2026-04-20T16:53:00.027Z</time></trkpt><trkpt lat="47.29536482137376" lon="-1.5488768834635138"><ele>32.0</ele><time>2026-04-20T16:53:01.029Z</time></trkpt><trkpt lat="47.29548811916941" lon="-1.5488483011736989"><ele>32.0</ele><time>2026-04-20T16:53:03.018Z</time></trkpt><trkpt lat="47.2955631372028" lon="-1.5488422662034154"><ele>32.0</ele><time>2026-04-20T16:53:04.026Z</time></trkpt><trkpt lat="47.2956503509053" lon="-1.5488622989519953"><ele>32.0</ele><time>2026-04-20T16:53:05.021Z</time></trkpt><trkpt lat="47.29573953435504" lon="-1.5488498937353015"><ele>32.0</ele><time>2026-04-20T16:53:06.029Z</time></trkpt><trkpt lat="47.295817108868896" lon="-1.5488379076137662"><ele>31.857142857142854</ele><time>2026-04-20T16:53:07.024Z</time></trkpt><trkpt lat="47.29588919323617" lon="-1.5488505642875552"><ele>31.71428571428571</ele><time>2026-04-20T16:53:08.026Z</time></trkpt><trkpt lat="47.29595377580011" lon="-1.5488333813860535"><ele>31.57142857142857</ele><time>2026-04-20T16:53:09.022Z</time></trkpt><trkpt lat="47.29602803946221" lon="-1.5487944055363059"><ele>31.42857142857143</ele><time>2026-04-20T16:53:10.021Z</time></trkpt><trkpt lat="47.296093418306945" lon="-1.5487656556084275"><ele>31.28571428571429</ele><time>2026-04-20T16:53:11.015Z</time></trkpt><trkpt lat="47.296167472421466" lon="-1.5487371571376443"><ele>31.142857142857146</ele><time>2026-04-20T16:53:12.036Z</time></trkpt><trkpt lat="47.296239431060194" lon="-1.5487022884204504"><ele>31.0</ele><time>2026-04-20T16:53:13.017Z</time></trkpt><trkpt lat="47.29631788567388" lon="-1.5487114246949076"><ele>30.166666666666668</ele><time>2026-04-20T16:53:14.023Z</time></trkpt><trkpt lat="47.296380456581055" lon="-1.5487006958588478"><ele>29.333333333333336</ele><time>2026-04-20T16:53:15.018Z</time></trkpt><trkpt lat="47.296509747437476" lon="-1.5486753825112698"><ele>28.5</ele><time>2026-04-20T16:53:17.022Z</time></trkpt><trkpt lat="47.296583508185385" lon="-1.5486603789045927"><ele>27.666666666666664</ele><time>2026-04-20T16:53:18.046Z</time></trkpt><trkpt lat="47.296660495966016" lon="-1.5486445371075985"><ele>26.833333333333332</ele><time>2026-04-20T16:53:19.038Z</time></trkpt><trkpt lat="47.29673450817102" lon="-1.54864118434633"><ele>26.0</ele><time>2026-04-20T16:53:20.022Z</time></trkpt><trkpt lat="47.296812376051484" lon="-1.5486214868738768"><ele>25.999999999999996</ele><time>2026-04-20T16:53:21.022Z</time></trkpt><trkpt lat="47.29689334523612" lon="-1.5486051421626923"><ele>26.0</ele><time>2026-04-20T16:53:22.034Z</time></trkpt><trkpt lat="47.29696257975632" lon="-1.5485818404718754"><ele>26.0</ele><time>2026-04-20T16:53:23.025Z</time></trkpt><trkpt lat="47.29702326473528" lon="-1.548556946219456"><ele>26.0</ele><time>2026-04-20T16:53:24.023Z</time></trkpt><trkpt lat="47.29709694166416" lon="-1.5485524199917433"><ele>25.999999999999996</ele><time>2026-04-20T16:53:25.021Z</time></trkpt><trkpt lat="47.29716005739504" lon="-1.5485607180758831"><ele>26.0</ele><time>2026-04-20T16:53:26.031Z</time></trkpt><trkpt lat="47.29726923168385" lon="-1.5485915634795544"><ele>26.0</ele><time>2026-04-20T16:53:28.035Z</time></trkpt><trkpt lat="47.29734215424144" lon="-1.5485613886281369"><ele>26.0</ele><time>2026-04-20T16:53:30.039Z</time></trkpt><trkpt lat="47.29741583117032" lon="-1.5485268551870701"><ele>26.0</ele><time>2026-04-20T16:53:32.021Z</time></trkpt><trkpt lat="47.2974765580588" lon="-1.5484985243543503"><ele>26.0</ele><time>2026-04-20T16:53:33.026Z</time></trkpt><trkpt lat="47.29761263825679" lon="-1.5484473947450037"><ele>26.0</ele><time>2026-04-20T16:53:35.021Z</time></trkpt><trkpt lat="47.29773333766246" lon="-1.548420237378728"><ele>26.0</ele><time>2026-04-20T16:53:37.02Z</time></trkpt><trkpt lat="47.297814809761284" lon="-1.548427278177392"><ele>26.0</ele><time>2026-04-20T16:53:38.041Z</time></trkpt><trkpt lat="47.29788236790085" lon="-1.5483973547830696"><ele>26.0</ele><time>2026-04-20T16:53:39.026Z</time></trkpt><trkpt lat="47.29799673896962" lon="-1.5484170522555227"><ele>26.0</ele><time>2026-04-20T16:53:41.021Z</time></trkpt><trkpt lat="47.298123096159934" lon="-1.5484318044051046"><ele>26.0</ele><time>2026-04-20T16:53:43.023Z</time></trkpt><trkpt lat="47.29818969038063" lon="-1.548415208236825"><ele>25.6</ele><time>2026-04-20T16:53:44.02Z</time></trkpt><trkpt lat="47.29831981942737" lon="-1.548352176324975"><ele>25.200000000000003</ele><time>2026-04-20T16:53:46.035Z</time></trkpt><trkpt lat="47.29839135897094" lon="-1.5483403578415031"><ele>24.799999999999997</ele><time>2026-04-20T16:53:47.02Z</time></trkpt><trkpt lat="47.298468304842054" lon="-1.5483220014735575"><ele>24.4</ele><time>2026-04-20T16:53:48.023Z</time></trkpt><trkpt lat="47.298597386150895" lon="-1.5482456423356648"><ele>24.0</ele><time>2026-04-20T16:53:50.023Z</time></trkpt><trkpt lat="47.298681372820674" lon="-1.5482150483890884"><ele>24.0</ele><time>2026-04-20T16:53:51.021Z</time></trkpt><trkpt lat="47.29877558541232" lon="-1.5481728874161356"><ele>24.0</ele><time>2026-04-20T16:53:52.031Z</time></trkpt><trkpt lat="47.29884787932718" lon="-1.5481619071229809"><ele>24.0</ele><time>2026-04-20T16:53:53.022Z</time></trkpt><trkpt lat="47.29892143052751" lon="-1.5481425449266546"><ele>24.0</ele><time>2026-04-20T16:53:54.021Z</time></trkpt><trkpt lat="47.29899062313819" lon="-1.5481257811203115"><ele>24.0</ele><time>2026-04-20T16:53:55.019Z</time></trkpt><trkpt lat="47.29906488680029" lon="-1.5480899065747373"><ele>24.0</ele><time>2026-04-20T16:53:56.023Z</time></trkpt><trkpt lat="47.29913102001631" lon="-1.5480678621693962"><ele>24.4</ele><time>2026-04-20T16:53:57.021Z</time></trkpt><trkpt lat="47.2991954768517" lon="-1.5480420459076278"><ele>24.799999999999997</ele><time>2026-04-20T16:53:58.027Z</time></trkpt><trkpt lat="47.29925934695387" lon="-1.5480153076365106"><ele>25.200000000000003</ele><time>2026-04-20T16:53:59.018Z</time></trkpt><trkpt lat="47.299357624768554" lon="-1.5479848813279977"><ele>25.6</ele><time>2026-04-20T16:54:01.024Z</time></trkpt><trkpt lat="47.29947920427406" lon="-1.547969458626162"><ele>26.0</ele><time>2026-04-20T16:54:03.029Z</time></trkpt><trkpt lat="47.29959114459091" lon="-1.5479392837747445"><ele>25.999999999999996</ele><time>2026-04-20T16:54:05.021Z</time></trkpt><trkpt lat="47.29965413459325" lon="-1.547915562988769"><ele>26.0</ele><time>2026-04-20T16:54:06.025Z</time></trkpt><trkpt lat="47.29972026780927" lon="-1.5478988830014577"><ele>26.0</ele><time>2026-04-20T16:54:07.027Z</time></trkpt><trkpt lat="47.29980559558356" lon="-1.5478623379036298"><ele>26.0</ele><time>2026-04-20T16:54:08.035Z</time></trkpt><trkpt lat="47.29988803160125" lon="-1.5478361863657346"><ele>25.999999999999996</ele><time>2026-04-20T16:54:09.028Z</time></trkpt><trkpt lat="47.29995005768472" lon="-1.5478141419603935"><ele>26.0</ele><time>2026-04-20T16:54:10.018Z</time></trkpt><trkpt lat="47.30004917368972" lon="-1.5478000603630653"><ele>26.0</ele><time>2026-04-20T16:54:11.02Z</time></trkpt><trkpt lat="47.300122180066346" lon="-1.5477889124318471"><ele>26.0</ele><time>2026-04-20T16:54:12.037Z</time></trkpt><trkpt lat="47.30024656750941" lon="-1.5477518644198287"><ele>26.0</ele><time>2026-04-20T16:54:14.019Z</time></trkpt><trkpt lat="47.3003152572059" lon="-1.5477121341987956"><ele>26.0</ele><time>2026-04-20T16:54:15.023Z</time></trkpt><trkpt lat="47.30043901600624" lon="-1.547644576059233"><ele>26.0</ele><time>2026-04-20T16:54:17.018Z</time></trkpt><trkpt lat="47.300501754551476" lon="-1.5476129762842763"><ele>25.6</ele><time>2026-04-20T16:54:18.024Z</time></trkpt><trkpt lat="47.30063012339855" lon="-1.5475785266622413"><ele>25.200000000000003</ele><time>2026-04-20T16:54:20.013Z</time></trkpt><trkpt lat="47.30075082280422" lon="-1.5475122258081542"><ele>24.799999999999997</ele><time>2026-04-20T16:54:22.017Z</time></trkpt><trkpt lat="47.30086096101189" lon="-1.5474616829320298"><ele>24.4</ele><time>2026-04-20T16:54:24.037Z</time></trkpt><trkpt lat="47.30092990216548" lon="-1.5474309213473902"><ele>24.0</ele><time>2026-04-20T16:54:25.025Z</time></trkpt><trkpt lat="47.30100575838918" lon="-1.54739035293604"><ele>24.0</ele><time>2026-04-20T16:54:26.017Z</time></trkpt><trkpt lat="47.30107193351472" lon="-1.5473339427276955"><ele>24.0</ele><time>2026-04-20T16:54:27.029Z</time></trkpt><trkpt lat="47.301202188290006" lon="-1.5472706593587502"><ele>24.0</ele><time>2026-04-20T16:54:29.029Z</time></trkpt><trkpt lat="47.30128571395511" lon="-1.5472471062108382"><ele>24.0</ele><time>2026-04-20T16:54:30.025Z</time></trkpt><trkpt lat="47.301355577118045" lon="-1.547213578598152"><ele>24.0</ele><time>2026-04-20T16:54:31.038Z</time></trkpt><trkpt lat="47.301417603201514" lon="-1.5471807215377196"><ele>24.0</ele><time>2026-04-20T16:54:32.017Z</time></trkpt><trkpt lat="47.30149785992438" lon="-1.5471522230669363"><ele>23.833333333333332</ele><time>2026-04-20T16:54:33.026Z</time></trkpt><trkpt lat="47.301579667299336" lon="-1.547145266087304"><ele>23.666666666666668</ele><time>2026-04-20T16:54:34.026Z</time></trkpt><trkpt lat="47.30166713245893" lon="-1.5470694098636015"><ele>23.5</ele><time>2026-04-20T16:54:35.034Z</time></trkpt><trkpt lat="47.301748436919695" lon="-1.5470968186869725"><ele>23.333333333333336</ele><time>2026-04-20T16:54:36.022Z</time></trkpt><trkpt lat="47.301822197667605" lon="-1.5470600221320494"><ele>23.166666666666668</ele><time>2026-04-20T16:54:37.022Z</time></trkpt><trkpt lat="47.301888372793144" lon="-1.5470071323230368"><ele>23.0</ele><time>2026-04-20T16:54:38.023Z</time></trkpt><trkpt lat="47.30202692565257" lon="-1.5469189547016722"><ele>22.833333333333336</ele><time>2026-04-20T16:54:40.031Z</time></trkpt><trkpt lat="47.30209666308696" lon="-1.5468638855978352"><ele>22.666666666666668</ele><time>2026-04-20T16:54:41.036Z</time></trkpt><trkpt lat="47.30215391148562" lon="-1.546820048244248"><ele>22.5</ele><time>2026-04-20T16:54:42.037Z</time></trkpt><trkpt lat="47.30224766307259" lon="-1.5467559266849855"><ele>22.333333333333332</ele><time>2026-04-20T16:54:43.031Z</time></trkpt><trkpt lat="47.30233378712768" lon="-1.5467005223050216"><ele>22.166666666666664</ele><time>2026-04-20T16:54:44.034Z</time></trkpt><trkpt lat="47.30242334776307" lon="-1.546648889781485"><ele>22.0</ele><time>2026-04-20T16:54:45.026Z</time></trkpt><trkpt lat="47.30250444267625" lon="-1.5466027054950098"><ele>21.8</ele><time>2026-04-20T16:54:46.032Z</time></trkpt><trkpt lat="47.30264961723918" lon="-1.5465302020325757"><ele>21.6</ele><time>2026-04-20T16:54:48.036Z</time></trkpt><trkpt lat="47.302737124308294" lon="-1.5465143602355815"><ele>21.400000000000002</ele><time>2026-04-20T16:54:49.028Z</time></trkpt><trkpt lat="47.30281042405153" lon="-1.5465143602355815"><ele>21.200000000000003</ele><time>2026-04-20T16:54:50.024Z</time></trkpt><trkpt lat="47.302877730734" lon="-1.5465346444412567"><ele>21.0</ele><time>2026-04-20T16:54:51.019Z</time></trkpt><trkpt lat="47.30294051118875" lon="-1.5465713571771482"><ele>21.0</ele><time>2026-04-20T16:54:52.026Z</time></trkpt><trkpt lat="47.30302156419242" lon="-1.5466081537320713"><ele>21.0</ele><time>2026-04-20T16:54:53.021Z</time></trkpt><trkpt lat="47.3030883679607" lon="-1.5466168709113697"><ele>21.0</ele><time>2026-04-20T16:54:54.021Z</time></trkpt><trkpt lat="47.30315684810961" lon="-1.546688620002518"><ele>21.0</ele><time>2026-04-20T16:54:57.024Z</time></trkpt><trkpt lat="47.30314021003181" lon="-1.5468043740853172"><ele>21.0</ele><time>2026-04-20T16:54:59.025Z</time></trkpt><trkpt lat="47.30309976734901" lon="-1.546931108461271"><ele>21.0</ele><time>2026-04-20T16:55:01.026Z</time></trkpt><trkpt lat="47.30304369241679" lon="-1.5470688231303795"><ele>21.200000000000003</ele><time>2026-04-20T16:55:03.022Z</time></trkpt><trkpt lat="47.30298376180912" lon="-1.5472018439337119"><ele>21.400000000000002</ele><time>2026-04-20T16:55:05.025Z</time></trkpt><trkpt lat="47.30293858335102" lon="-1.547271916644226"><ele>21.6</ele><time>2026-04-20T16:55:06.022Z</time></trkpt><trkpt lat="47.30285694361413" lon="-1.547382976861249"><ele>21.8</ele><time>2026-04-20T16:55:08.024Z</time></trkpt><trkpt lat="47.30277136438275" lon="-1.5474814642235146"><ele>22.0</ele><time>2026-04-20T16:55:10.023Z</time></trkpt><trkpt lat="47.30268109128559" lon="-1.5475765988245118"><ele>22.0</ele><time>2026-04-20T16:55:12.021Z</time></trkpt><trkpt lat="47.30259723034436" lon="-1.547672236339699"><ele>22.0</ele><time>2026-04-20T16:55:14.022Z</time></trkpt><trkpt lat="47.30251257312233" lon="-1.547778351233851"><ele>22.0</ele><time>2026-04-20T16:55:16.022Z</time></trkpt><trkpt lat="47.30241752234036" lon="-1.5478889923557153"><ele>22.0</ele><time>2026-04-20T16:55:18.022Z</time></trkpt><trkpt lat="47.302328674166745" lon="-1.54798890464152"><ele>22.6</ele><time>2026-04-20T16:55:20.025Z</time></trkpt><trkpt lat="47.30223161172802" lon="-1.5480889845653885"><ele>23.200000000000003</ele><time>2026-04-20T16:55:22.022Z</time></trkpt><trkpt lat="47.30214267973537" lon="-1.5481971111163013"><ele>23.8</ele><time>2026-04-20T16:55:24.023Z</time></trkpt><trkpt lat="47.30209087957377" lon="-1.5482534375056143"><ele>24.4</ele><time>2026-04-20T16:55:25.025Z</time></trkpt><trkpt lat="47.30200182185257" lon="-1.5483331494047756"><ele>25.0</ele><time>2026-04-20T16:55:27.04Z</time></trkpt><trkpt lat="47.30190153238112" lon="-1.5484183095409985"><ele>25.0</ele><time>2026-04-20T16:55:29.022Z</time></trkpt><trkpt lat="47.3017965490439" lon="-1.548488885165703"><ele>25.0</ele><time>2026-04-20T16:55:31.023Z</time></trkpt><trkpt lat="47.30168972168798" lon="-1.5485715307309744"><ele>25.0</ele><time>2026-04-20T16:55:33.024Z</time></trkpt><trkpt lat="47.301582014232224" lon="-1.5486187208458302"><ele>25.0</ele><time>2026-04-20T16:55:35.024Z</time></trkpt><trkpt lat="47.3014839040556" lon="-1.5486878715469954"><ele>25.4</ele><time>2026-04-20T16:55:37.02Z</time></trkpt><trkpt lat="47.301372634291" lon="-1.5487664937987446"><ele>25.8</ele><time>2026-04-20T16:55:39.023Z</time></trkpt><trkpt lat="47.301284456669634" lon="-1.5488448645933985"><ele>26.200000000000003</ele><time>2026-04-20T16:55:41.024Z</time></trkpt><trkpt lat="47.30118240699852" lon="-1.5489118359997391"><ele>26.6</ele><time>2026-04-20T16:55:43.017Z</time></trkpt><trkpt lat="47.301082620441264" lon="-1.5489771310254457"><ele>27.0</ele><time>2026-04-20T16:55:46.028Z</time></trkpt><trkpt lat="47.301064892716056" lon="-1.5491258259877088"><ele>27.0</ele><time>2026-04-20T16:55:48.023Z</time></trkpt><trkpt lat="47.30101778642023" lon="-1.549188857899559"><ele>27.000000000000004</ele><time>2026-04-20T16:55:49.02Z</time></trkpt><trkpt lat="47.300928519151455" lon="-1.5492029394968871"><ele>27.000000000000004</ele><time>2026-04-20T16:55:51.021Z</time></trkpt><trkpt lat="47.30084285610104" lon="-1.5491548273726823"><ele>27.0</ele><time>2026-04-20T16:55:53.021Z</time></trkpt><trkpt lat="47.30072479699487" lon="-1.5491742733880403"><ele>27.0</ele><time>2026-04-20T16:55:55.026Z</time></trkpt><trkpt lat="47.30064332489604" lon="-1.54924216680373"><ele>27.400000000000002</ele><time>2026-04-20T16:55:57.022Z</time></trkpt><trkpt lat="47.300542532510406" lon="-1.5493196994080667"><ele>27.800000000000004</ele><time>2026-04-20T16:55:59.024Z</time></trkpt><trkpt lat="47.30045276232744" lon="-1.5493858326240901"><ele>28.2</ele><time>2026-04-20T16:56:01.02Z</time></trkpt><trkpt lat="47.30036818892444" lon="-1.5494365431382782"><ele>28.6</ele><time>2026-04-20T16:56:03.018Z</time></trkpt><trkpt lat="47.30026429523462" lon="-1.5495136566474563"><ele>29.0</ele><time>2026-04-20T16:56:05.022Z</time></trkpt><trkpt lat="47.300151726275026" lon="-1.5495789516731626"><ele>29.0</ele><time>2026-04-20T16:56:07.024Z</time></trkpt><trkpt lat="47.30004158806735" lon="-1.549645671622408"><ele>29.0</ele><time>2026-04-20T16:56:09.021Z</time></trkpt><trkpt lat="47.2999716829949" lon="-1.5497292391970285"><ele>29.0</ele><time>2026-04-20T16:56:11.023Z</time></trkpt><trkpt lat="47.29988891170108" lon="-1.5497848950340876"><ele>29.0</ele><time>2026-04-20T16:56:13.02Z</time></trkpt><trkpt lat="47.29978417982095" lon="-1.5498412214234003"><ele>29.0</ele><time>2026-04-20T16:56:15.022Z</time></trkpt><trkpt lat="47.29971896861428" lon="-1.5499296505018603"><ele>29.2</ele><time>2026-04-20T16:56:17.023Z</time></trkpt><trkpt lat="47.299655559516786" lon="-1.5500243660076987"><ele>29.4</ele><time>2026-04-20T16:56:19.023Z</time></trkpt><trkpt lat="47.299540224529146" lon="-1.5500709693893324"><ele>29.6</ele><time>2026-04-20T16:56:21.022Z</time></trkpt><trkpt lat="47.299476102969884" lon="-1.5500568039729725"><ele>29.8</ele><time>2026-04-20T16:56:22.027Z</time></trkpt><trkpt lat="47.299408502920805" lon="-1.5500898286714684"><ele>30.0</ele><time>2026-04-20T16:56:23.025Z</time></trkpt><trkpt lat="47.29929844853216" lon="-1.5501234401031863"><ele>30.0</ele><time>2026-04-20T16:56:25.021Z</time></trkpt><trkpt lat="47.2992319381305" lon="-1.5501614939435853"><ele>30.0</ele><time>2026-04-20T16:56:26.025Z</time></trkpt><trkpt lat="47.29914455678993" lon="-1.5502557065352334"><ele>30.0</ele><time>2026-04-20T16:56:28.027Z</time></trkpt><trkpt lat="47.299062791324495" lon="-1.5503566246494187"><ele>30.0</ele><time>2026-04-20T16:56:30.021Z</time></trkpt><trkpt lat="47.2989486298033" lon="-1.5503966901465789"><ele>30.0</ele><time>2026-04-20T16:56:32.024Z</time></trkpt><trkpt lat="47.29886284102434" lon="-1.5504591353252068"><ele>30.0</ele><time>2026-04-20T16:56:34.02Z</time></trkpt><trkpt lat="47.29877240028912" lon="-1.550528872759594"><ele>30.0</ele><time>2026-04-20T16:56:36.023Z</time></trkpt><trkpt lat="47.29871255350047" lon="-1.5505789127215281"><ele>30.0</ele><time>2026-04-20T16:56:37.021Z</time></trkpt><trkpt lat="47.298614904328524" lon="-1.550652338193311"><ele>30.0</ele><time>2026-04-20T16:56:39.042Z</time></trkpt><trkpt lat="47.29851926681334" lon="-1.5507189743235248"><ele>30.0</ele><time>2026-04-20T16:56:41.027Z</time></trkpt><trkpt lat="47.298458288467764" lon="-1.5507898014053243"><ele>30.0</ele><time>2026-04-20T16:56:42.027Z</time></trkpt><trkpt lat="47.298359214372276" lon="-1.5508837625398775"><ele>30.0</ele><time>2026-04-20T16:56:44.021Z</time></trkpt><trkpt lat="47.2982940031656" lon="-1.5509330481305261"><ele>30.0</ele><time>2026-04-20T16:56:45.022Z</time></trkpt><trkpt lat="47.29820410725409" lon="-1.5510042104884525"><ele>30.0</ele><time>2026-04-20T16:56:47.02Z</time></trkpt><trkpt lat="47.29813202288681" lon="-1.5510802343502184"><ele>30.0</ele><time>2026-04-20T16:56:49.024Z</time></trkpt><trkpt lat="47.298020501665114" lon="-1.5511385723962925"><ele>30.6</ele><time>2026-04-20T16:56:51.023Z</time></trkpt><trkpt lat="47.2979573021152" lon="-1.5512337908163212"><ele>31.2</ele><time>2026-04-20T16:56:53.018Z</time></trkpt><trkpt lat="47.29787067514592" lon="-1.5513171069338463"><ele>31.799999999999997</ele><time>2026-04-20T16:56:55.039Z</time></trkpt><trkpt lat="47.297793561636745" lon="-1.5513761155321741"><ele>32.4</ele><time>2026-04-20T16:56:57.021Z</time></trkpt><trkpt lat="47.297698552764295" lon="-1.5514787100269938"><ele>33.0</ele><time>2026-04-20T16:56:59.045Z</time></trkpt><trkpt lat="47.297609411224066" lon="-1.5515714976951027"><ele>33.0</ele><time>2026-04-20T16:57:01.022Z</time></trkpt><trkpt lat="47.29752471209252" lon="-1.5516543108984377"><ele>33.0</ele><time>2026-04-20T16:57:03.047Z</time></trkpt><trkpt lat="47.29744261135095" lon="-1.5517208632096198"><ele>33.0</ele><time>2026-04-20T16:57:05.025Z</time></trkpt><trkpt lat="47.29735481091523" lon="-1.5518186800196319"><ele>33.0</ele><time>2026-04-20T16:57:07.053Z</time></trkpt><trkpt lat="47.29728926443243" lon="-1.5518304985031037"><ele>33.0</ele><time>2026-04-20T16:57:08.03Z</time></trkpt><trkpt lat="47.29719396219337" lon="-1.551906690002933"><ele>33.199999999999996</ele><time>2026-04-20T16:57:10.026Z</time></trkpt><trkpt lat="47.29713843208486" lon="-1.5519615076496749"><ele>33.4</ele><time>2026-04-20T16:57:11.023Z</time></trkpt><trkpt lat="47.297072885602056" lon="-1.5520667843535096"><ele>33.599999999999994</ele><time>2026-04-20T16:57:13.02Z</time></trkpt><trkpt lat="47.29702800051057" lon="-1.552218664438978"><ele>33.8</ele><time>2026-04-20T16:57:15.048Z</time></trkpt><trkpt lat="47.29697703853929" lon="-1.552352691070691"><ele>34.0</ele><time>2026-04-20T16:57:17.019Z</time></trkpt><trkpt lat="47.29691731747919" lon="-1.5524750668569955"><ele>34.4</ele><time>2026-04-20T16:57:19.048Z</time></trkpt><trkpt lat="47.296841209798394" lon="-1.552603393794552"><ele>34.8</ele><time>2026-04-20T16:57:21.024Z</time></trkpt><trkpt lat="47.29677264583045" lon="-1.5527131967260992"><ele>35.2</ele><time>2026-04-20T16:57:23.044Z</time></trkpt><trkpt lat="47.29670630306685" lon="-1.55284026637818"><ele>35.6</ele><time>2026-04-20T16:57:25.021Z</time></trkpt><trkpt lat="47.29664079849356" lon="-1.552968090401546"><ele>36.0</ele><time>2026-04-20T16:57:27.037Z</time></trkpt><trkpt lat="47.29657982014799" lon="-1.5530711039915244"><ele>36.2</ele><time>2026-04-20T16:57:29.024Z</time></trkpt><trkpt lat="47.29651993144983" lon="-1.5532113332315842"><ele>36.400000000000006</ele><time>2026-04-20T16:57:31.045Z</time></trkpt><trkpt lat="47.29645396587187" lon="-1.5533361397698087"><ele>36.6</ele><time>2026-04-20T16:57:33.022Z</time></trkpt><trkpt lat="47.296413942284225" lon="-1.5534591022893351"><ele>36.800000000000004</ele><time>2026-04-20T16:57:35.04Z</time></trkpt><trkpt lat="47.2963522933864" lon="-1.553578460590498"><ele>37.0</ele><time>2026-04-20T16:57:37.026Z</time></trkpt><trkpt lat="47.29629655373031" lon="-1.553694214673297"><ele>37.4</ele><time>2026-04-20T16:57:39.022Z</time></trkpt><trkpt lat="47.29623259980911" lon="-1.5538051910712884"><ele>37.800000000000004</ele><time>2026-04-20T16:57:41.023Z</time></trkpt><trkpt lat="47.29618381713265" lon="-1.5538718272015022"><ele>38.2</ele><time>2026-04-20T16:57:42.021Z</time></trkpt><trkpt lat="47.296103853776394" lon="-1.5539901796742845"><ele>38.6</ele><time>2026-04-20T16:57:44.023Z</time></trkpt><trkpt lat="47.29603239805186" lon="-1.5541232004776169"><ele>39.0</ele><time>2026-04-20T16:57:46.022Z</time></trkpt><trkpt lat="47.295992667830824" lon="-1.5541956201210192"><ele>39.0</ele><time>2026-04-20T16:57:47.02Z</time></trkpt><trkpt lat="47.29593839500779" lon="-1.5542890783413819"><ele>39.0</ele><time>2026-04-20T16:57:49.023Z</time></trkpt><trkpt lat="47.29587167505854" lon="-1.5544184949263504"><ele>39.0</ele><time>2026-04-20T16:57:51.02Z</time></trkpt><trkpt lat="47.295832699208795" lon="-1.5544915013029748"><ele>39.0</ele><time>2026-04-20T16:57:52.021Z</time></trkpt><trkpt lat="47.29576476388359" lon="-1.55460365116741"><ele>39.0</ele><time>2026-04-20T16:57:54.019Z</time></trkpt><trkpt lat="47.29570236061448" lon="-1.5547345764949496"><ele>38.833333333333336</ele><time>2026-04-20T16:57:56.017Z</time></trkpt><trkpt lat="47.295677801638185" lon="-1.554823424668568"><ele>38.666666666666664</ele><time>2026-04-20T16:57:58.02Z</time></trkpt><trkpt lat="47.29564423211598" lon="-1.5549034718438561"><ele>38.5</ele><time>2026-04-20T16:58:00.023Z</time></trkpt><trkpt lat="47.29560571727091" lon="-1.5549989417209802"><ele>38.33333333333333</ele><time>2026-04-20T16:58:02.022Z</time></trkpt><trkpt lat="47.29553874586457" lon="-1.5551121812328277"><ele>38.166666666666664</ele><time>2026-04-20T16:58:04.018Z</time></trkpt><trkpt lat="47.29548195847058" lon="-1.5552150271847427"><ele>38.0</ele><time>2026-04-20T16:58:06.026Z</time></trkpt><trkpt lat="47.29541871701115" lon="-1.5553517360254705"><ele>38.4</ele><time>2026-04-20T16:58:08.022Z</time></trkpt><trkpt lat="47.29536964096808" lon="-1.5554652269944134"><ele>38.8</ele><time>2026-04-20T16:58:10.015Z</time></trkpt><trkpt lat="47.295307992070256" lon="-1.5555897820755424"><ele>39.2</ele><time>2026-04-20T16:58:12.023Z</time></trkpt><trkpt lat="47.29525057603353" lon="-1.5557122416808788"><ele>39.6</ele><time>2026-04-20T16:58:14.021Z</time></trkpt><trkpt lat="47.29518393990332" lon="-1.5558252297356312"><ele>40.0</ele><time>2026-04-20T16:58:16.021Z</time></trkpt><trkpt lat="47.29513825853103" lon="-1.5558914467706866"><ele>40.0</ele><time>2026-04-20T16:58:17.022Z</time></trkpt><trkpt lat="47.295078537470935" lon="-1.556013571099896"><ele>40.0</ele><time>2026-04-20T16:58:19.019Z</time></trkpt><trkpt lat="47.29499727491969" lon="-1.556136701257486"><ele>40.0</ele><time>2026-04-20T16:58:21.019Z</time></trkpt><trkpt lat="47.294937721497654" lon="-1.556238876657147"><ele>40.0</ele><time>2026-04-20T16:58:23.022Z</time></trkpt><trkpt lat="47.294866684868275" lon="-1.5563765913262557"><ele>40.0</ele><time>2026-04-20T16:58:25.018Z</time></trkpt><trkpt lat="47.29481827937746" lon="-1.5564438141896915"><ele>40.6</ele><time>2026-04-20T16:58:26.019Z</time></trkpt><trkpt lat="47.2947451891818" lon="-1.5565715543940257"><ele>41.2</ele><time>2026-04-20T16:58:28.018Z</time></trkpt><trkpt lat="47.294676080390154" lon="-1.5566824469729854"><ele>41.8</ele><time>2026-04-20T16:58:30.023Z</time></trkpt><trkpt lat="47.29461237792605" lon="-1.556823095308204"><ele>42.4</ele><time>2026-04-20T16:58:32.02Z</time></trkpt><trkpt lat="47.294544735967456" lon="-1.5569504164173797"><ele>43.0</ele><time>2026-04-20T16:58:34.019Z</time></trkpt><trkpt lat="47.29446255140686" lon="-1.5570757258697945"><ele>43.4</ele><time>2026-04-20T16:58:36.024Z</time></trkpt><trkpt lat="47.29439486753875" lon="-1.5572061482831436"><ele>43.8</ele><time>2026-04-20T16:58:38.019Z</time></trkpt><trkpt lat="47.29433778677815" lon="-1.5573190525188645"><ele>44.2</ele><time>2026-04-20T16:58:40.024Z</time></trkpt><trkpt lat="47.2942781914466" lon="-1.557455258445402"><ele>44.6</ele><time>2026-04-20T16:58:42.021Z</time></trkpt><trkpt lat="47.294235443740426" lon="-1.5575258340701064"><ele>45.0</ele><time>2026-04-20T16:58:43.019Z</time></trkpt><trkpt lat="47.294183643578826" lon="-1.5576590225115023"><ele>45.0</ele><time>2026-04-20T16:58:45.025Z</time></trkpt><trkpt lat="47.29412321005696" lon="-1.557797910647055"><ele>45.0</ele><time>2026-04-20T16:58:47.021Z</time></trkpt><trkpt lat="47.29406918869102" lon="-1.557923052461406"><ele>45.0</ele><time>2026-04-20T16:58:49.019Z</time></trkpt><trkpt lat="47.294001546732424" lon="-1.5580349508687463"><ele>45.0</ele><time>2026-04-20T16:58:51.02Z</time></trkpt><trkpt lat="47.293942244767486" lon="-1.5581468492760864"><ele>45.0</ele><time>2026-04-20T16:58:53.02Z</time></trkpt><trkpt lat="47.293875692456304" lon="-1.558265704663059"><ele>45.4</ele><time>2026-04-20T16:58:55.02Z</time></trkpt><trkpt lat="47.2937913705104" lon="-1.5584019105895965"><ele>45.8</ele><time>2026-04-20T16:58:57.022Z</time></trkpt><trkpt lat="47.293724231465994" lon="-1.5585213527097912"><ele>46.2</ele><time>2026-04-20T16:58:59.022Z</time></trkpt><trkpt lat="47.29365013544196" lon="-1.5586508531137915"><ele>46.6</ele><time>2026-04-20T16:59:01.022Z</time></trkpt><trkpt lat="47.2935936833241" lon="-1.5587761625662062"><ele>47.0</ele><time>2026-04-20T16:59:03.024Z</time></trkpt><trkpt lat="47.29354192507201" lon="-1.5589068364366505"><ele>47.0</ele><time>2026-04-20T16:59:05.026Z</time></trkpt><trkpt lat="47.293465733572184" lon="-1.5590243507191157"><ele>47.0</ele><time>2026-04-20T16:59:07.022Z</time></trkpt><trkpt lat="47.29341569361025" lon="-1.559178326280377"><ele>47.0</ele><time>2026-04-20T16:59:09.029Z</time></trkpt><trkpt lat="47.293364228724776" lon="-1.559240771459005"><ele>47.0</ele><time>2026-04-20T16:59:10.023Z</time></trkpt><trkpt lat="47.29329683822328" lon="-1.5593723673387982"><ele>47.0</ele><time>2026-04-20T16:59:12.026Z</time></trkpt><trkpt lat="47.29324281685734" lon="-1.559526259081028"><ele>47.25</ele><time>2026-04-20T16:59:14.022Z</time></trkpt><trkpt lat="47.2931835148924" lon="-1.5596591960653285"><ele>47.5</ele><time>2026-04-20T16:59:16.023Z</time></trkpt><trkpt lat="47.293100785508095" lon="-1.5597743634149057"><ele>47.75</ele><time>2026-04-20T16:59:18.024Z</time></trkpt><trkpt lat="47.29302861732179" lon="-1.5599126648172361"><ele>48.0</ele><time>2026-04-20T16:59:20.023Z</time></trkpt><trkpt lat="47.292968435257016" lon="-1.5600507147624716"><ele>47.57142857142857</ele><time>2026-04-20T16:59:22.026Z</time></trkpt><trkpt lat="47.29289295621896" lon="-1.5601643733694779"><ele>47.14285714285714</ele><time>2026-04-20T16:59:23.032Z</time></trkpt><trkpt lat="47.292849454141496" lon="-1.5602352004512774"><ele>46.71428571428571</ele><time>2026-04-20T16:59:24.022Z</time></trkpt><trkpt lat="47.29279698342764" lon="-1.5603035967811572"><ele>46.285714285714285</ele><time>2026-04-20T16:59:25.018Z</time></trkpt><trkpt lat="47.29275654074484" lon="-1.5603774413480984"><ele>45.85714285714286</ele><time>2026-04-20T16:59:26.027Z</time></trkpt><trkpt lat="47.29271773253315" lon="-1.5604519564672936"><ele>45.42857142857142</ele><time>2026-04-20T16:59:27.029Z</time></trkpt><trkpt lat="47.29267360181295" lon="-1.56053728424158"><ele>45.0</ele><time>2026-04-20T16:59:28.025Z</time></trkpt><trkpt lat="47.2926303931021" lon="-1.56062914990034"><ele>44.833333333333336</ele><time>2026-04-20T16:59:29.025Z</time></trkpt><trkpt lat="47.292563170238665" lon="-1.5607211831971637"><ele>44.666666666666664</ele><time>2026-04-20T16:59:30.032Z</time></trkpt><trkpt lat="47.29252385911279" lon="-1.5608045831337205"><ele>44.5</ele><time>2026-04-20T16:59:31.019Z</time></trkpt><trkpt lat="47.29247436397456" lon="-1.560904914514684"><ele>44.33333333333333</ele><time>2026-04-20T16:59:32.018Z</time></trkpt><trkpt lat="47.29242495265537" lon="-1.5609899070128435"><ele>44.166666666666664</ele><time>2026-04-20T16:59:33.018Z</time></trkpt><trkpt lat="47.29238061238759" lon="-1.5610834490522378"><ele>44.0</ele><time>2026-04-20T16:59:34.031Z</time></trkpt><trkpt lat="47.29233291935854" lon="-1.5611686930074926"><ele>43.83333333333333</ele><time>2026-04-20T16:59:35.018Z</time></trkpt><trkpt lat="47.292280490554205" lon="-1.5612625703230139"><ele>43.666666666666664</ele><time>2026-04-20T16:59:36.019Z</time></trkpt><trkpt lat="47.29222487662666" lon="-1.561343539507651"><ele>43.5</ele><time>2026-04-20T16:59:37.018Z</time></trkpt><trkpt lat="47.29218380530112" lon="-1.561443703250551"><ele>43.333333333333336</ele><time>2026-04-20T16:59:38.04Z</time></trkpt><trkpt lat="47.292127101726166" lon="-1.5615424420699118"><ele>43.16666666666667</ele><time>2026-04-20T16:59:39.027Z</time></trkpt><trkpt lat="47.292076014026335" lon="-1.561638163404131"><ele>43.0</ele><time>2026-04-20T16:59:40.027Z</time></trkpt><trkpt lat="47.29204428852283" lon="-1.561741260813141"><ele>43.0</ele><time>2026-04-20T16:59:41.024Z</time></trkpt><trkpt lat="47.29199483529412" lon="-1.5618329588338378"><ele>43.0</ele><time>2026-04-20T16:59:42.045Z</time></trkpt><trkpt lat="47.29194881864571" lon="-1.5619224775597098"><ele>43.0</ele><time>2026-04-20T16:59:43.025Z</time></trkpt><trkpt lat="47.291897940493456" lon="-1.5620191209032777"><ele>43.0</ele><time>2026-04-20T16:59:44.022Z</time></trkpt><trkpt lat="47.29184065018528" lon="-1.5621337853386645"><ele>43.0</ele><time>2026-04-20T16:59:45.026Z</time></trkpt><trkpt lat="47.291796980469755" lon="-1.5622407384231334"><ele>43.0</ele><time>2026-04-20T16:59:46.029Z</time></trkpt><trkpt lat="47.29176215366208" lon="-1.5623586718007572"><ele>42.199999999999996</ele><time>2026-04-20T16:59:47.029Z</time></trkpt><trkpt lat="47.29172460273587" lon="-1.56248389743414"><ele>41.4</ele><time>2026-04-20T16:59:48.026Z</time></trkpt><trkpt lat="47.29169656526976" lon="-1.5626266412451515"><ele>40.599999999999994</ele><time>2026-04-20T16:59:49.023Z</time></trkpt><trkpt lat="47.2916591400721" lon="-1.562763433904911"><ele>39.8</ele><time>2026-04-20T16:59:50.036Z</time></trkpt><trkpt lat="47.29163168933921" lon="-1.5628978796317827"><ele>39.0</ele><time>2026-04-20T16:59:51.017Z</time></trkpt><trkpt lat="47.29160042484038" lon="-1.5630475804224266"><ele>38.2</ele><time>2026-04-20T16:59:52.027Z</time></trkpt><trkpt lat="47.29157330938362" lon="-1.5631878096624865"><ele>37.4</ele><time>2026-04-20T16:59:53.024Z</time></trkpt><trkpt lat="47.29153580036693" lon="-1.5633236803128974"><ele>36.6</ele><time>2026-04-20T16:59:54.039Z</time></trkpt><trkpt lat="47.291520126208" lon="-1.5634510852411048"><ele>35.8</ele><time>2026-04-20T16:59:55.028Z</time></trkpt><trkpt lat="47.2914931783893" lon="-1.563569186256792"><ele>35.0</ele><time>2026-04-20T16:59:56.025Z</time></trkpt><trkpt lat="47.291445904455415" lon="-1.5636892989292401"><ele>34.8</ele><time>2026-04-20T16:59:57.023Z</time></trkpt><trkpt lat="47.29139276318931" lon="-1.5637949947282335"><ele>34.6</ele><time>2026-04-20T16:59:58.027Z</time></trkpt><trkpt lat="47.29129955642604" lon="-1.5639031212791463"><ele>34.4</ele><time>2026-04-20T16:59:59.029Z</time></trkpt><trkpt lat="47.291233548938564" lon="-1.5640156902387403"><ele>34.2</ele><time>2026-04-20T17:00:00.027Z</time></trkpt><trkpt lat="47.291180617220036" lon="-1.5641109924778007"><ele>34.0</ele><time>2026-04-20T17:00:01.02Z</time></trkpt><trkpt lat="47.291115573651425" lon="-1.5642171911909843"><ele>34.0</ele><time>2026-04-20T17:00:02.049Z</time></trkpt><trkpt lat="47.291055182039074" lon="-1.5643270779415632"><ele>34.0</ele><time>2026-04-20T17:00:03.038Z</time></trkpt><trkpt lat="47.290999735749594" lon="-1.5644440054908062"><ele>34.0</ele><time>2026-04-20T17:00:04.026Z</time></trkpt><trkpt lat="47.29094714273105" lon="-1.5645818460862206"><ele>34.0</ele><time>2026-04-20T17:00:05.024Z</time></trkpt><trkpt lat="47.29092723400323" lon="-1.564735192806986"><ele>34.0</ele><time>2026-04-20T17:00:06.034Z</time></trkpt><trkpt lat="47.29093583368105" lon="-1.56488832489405"><ele>32.8</ele><time>2026-04-20T17:00:07.022Z</time></trkpt><trkpt lat="47.29096931520291" lon="-1.565044991096479"><ele>31.599999999999998</ele><time>2026-04-20T17:00:08.025Z</time></trkpt><trkpt lat="47.29101744065495" lon="-1.5651894200821426"><ele>30.4</ele><time>2026-04-20T17:00:09.023Z</time></trkpt><trkpt lat="47.29107370426332" lon="-1.5653182885336971"><ele>29.2</ele><time>2026-04-20T17:00:10.034Z</time></trkpt><trkpt lat="47.291137406394306" lon="-1.5654390841103036"><ele>28.0</ele><time>2026-04-20T17:00:11.023Z</time></trkpt><trkpt lat="47.29121628221803" lon="-1.5655485726907528"><ele>27.2</ele><time>2026-04-20T17:00:12.033Z</time></trkpt><trkpt lat="47.29128555864774" lon="-1.5656846947982588"><ele>26.4</ele><time>2026-04-20T17:00:13.027Z</time></trkpt><trkpt lat="47.29135957085275" lon="-1.5657966770246305"><ele>25.599999999999998</ele><time>2026-04-20T17:00:14.043Z</time></trkpt><trkpt lat="47.29143056557261" lon="-1.565918549896745"><ele>24.799999999999997</ele><time>2026-04-20T17:00:15.026Z</time></trkpt><trkpt lat="47.29149296884172" lon="-1.5660633891835491"><ele>24.0</ele><time>2026-04-20T17:00:16.021Z</time></trkpt><trkpt lat="47.29154460136526" lon="-1.5661710966393037"><ele>24.0</ele><time>2026-04-20T17:00:17.025Z</time></trkpt><trkpt lat="47.291629132858745" lon="-1.5662059653564973"><ele>24.0</ele><time>2026-04-20T17:00:18.025Z</time></trkpt><trkpt lat="47.291737678504816" lon="-1.5662109944984002"><ele>24.0</ele><time>2026-04-20T17:00:19.023Z</time></trkpt><trkpt lat="47.29184454777025" lon="-1.5662357211127562"><ele>24.0</ele><time>2026-04-20T17:00:20.027Z</time></trkpt><trkpt lat="47.291946932717494" lon="-1.5662146825357957"><ele>24.0</ele><time>2026-04-20T17:00:21.029Z</time></trkpt><trkpt lat="47.29205665183001" lon="-1.5661550033852143"><ele>24.0</ele><time>2026-04-20T17:00:22.027Z</time></trkpt><trkpt lat="47.29215903677725" lon="-1.5661413408830447"><ele>24.0</ele><time>2026-04-20T17:00:23.025Z</time></trkpt><trkpt lat="47.292263391471735" lon="-1.5661900397404713"><ele>24.0</ele><time>2026-04-20T17:00:24.029Z</time></trkpt><trkpt lat="47.29234951552682" lon="-1.5662513114526553"><ele>24.0</ele><time>2026-04-20T17:00:25.033Z</time></trkpt><trkpt lat="47.292442680380574" lon="-1.5663004294052405"><ele>24.0</ele><time>2026-04-20T17:00:26.031Z</time></trkpt><trkpt lat="47.29248513472014" lon="-1.5665119048222587"><ele>22.4</ele><time>2026-04-20T17:00:27.035Z</time></trkpt><trkpt lat="47.292537773072056" lon="-1.5666409861311006"><ele>20.799999999999997</ele><time>2026-04-20T17:00:28.023Z</time></trkpt><trkpt lat="47.29257213887506" lon="-1.5667786169811773"><ele>19.200000000000003</ele><time>2026-04-20T17:00:29.023Z</time></trkpt><trkpt lat="47.29260336146437" lon="-1.5669175889357616"><ele>17.6</ele><time>2026-04-20T17:00:30.041Z</time></trkpt><trkpt lat="47.292627836621634" lon="-1.5670661162599613"><ele>16.0</ele><time>2026-04-20T17:00:31.028Z</time></trkpt><trkpt lat="47.29263554797255" lon="-1.567244147883325"><ele>15.600000000000001</ele><time>2026-04-20T17:00:32.023Z</time></trkpt><trkpt lat="47.29265822102063" lon="-1.5674015600248867"><ele>15.200000000000001</ele><time>2026-04-20T17:00:33.024Z</time></trkpt><trkpt lat="47.29268864732914" lon="-1.5675669349744614"><ele>14.799999999999999</ele><time>2026-04-20T17:00:34.048Z</time></trkpt><trkpt lat="47.292712619572214" lon="-1.567722586916357"><ele>14.399999999999999</ele><time>2026-04-20T17:00:35.026Z</time></trkpt><trkpt lat="47.2927532718026" lon="-1.5678742155447303"><ele>14.0</ele><time>2026-04-20T17:00:36.018Z</time></trkpt><trkpt lat="47.29277372364634" lon="-1.5680107567473947"><ele>15.333333333333334</ele><time>2026-04-20T17:00:37.027Z</time></trkpt><trkpt lat="47.29278346726206" lon="-1.5681123908166053"><ele>16.666666666666668</ele><time>2026-04-20T17:00:38.023Z</time></trkpt><trkpt lat="47.292803363674864" lon="-1.5682382580446126"><ele>18.0</ele><time>2026-04-20T17:00:39.03Z</time></trkpt><trkpt lat="47.2928190469388" lon="-1.5683392694246945"><ele>19.333333333333332</ele><time>2026-04-20T17:00:40.036Z</time></trkpt><trkpt lat="47.292836297631524" lon="-1.5684503761457163"><ele>20.666666666666664</ele><time>2026-04-20T17:00:41.025Z</time></trkpt><trkpt lat="47.29285959250537" lon="-1.5686004119012693"><ele>22.0</ele><time>2026-04-20T17:00:43.031Z</time></trkpt><trkpt lat="47.292910474396585" lon="-1.5687420777991123"><ele>22.8</ele><time>2026-04-20T17:00:45.031Z</time></trkpt><trkpt lat="47.29292246051812" lon="-1.5688670519754"><ele>23.6</ele><time>2026-04-20T17:00:47.036Z</time></trkpt><trkpt lat="47.292947815775214" lon="-1.5690228715553591"><ele>24.400000000000002</ele><time>2026-04-20T17:00:49.026Z</time></trkpt><trkpt lat="47.29296809998089" lon="-1.569157820196421"><ele>25.200000000000003</ele><time>2026-04-20T17:00:51.027Z</time></trkpt><trkpt lat="47.2929771105268" lon="-1.5693084429964137"><ele>26.0</ele><time>2026-04-20T17:00:53.024Z</time></trkpt><trkpt lat="47.29296889626169" lon="-1.5694177430137706"><ele>26.0</ele><time>2026-04-20T17:00:54.022Z</time></trkpt><trkpt lat="47.29296604641461" lon="-1.5695639234050824"><ele>26.0</ele><time>2026-04-20T17:00:56.022Z</time></trkpt><trkpt lat="47.29296717797154" lon="-1.5697209164514856"><ele>26.0</ele><time>2026-04-20T17:00:58.021Z</time></trkpt><trkpt lat="47.292955108030974" lon="-1.5698746405556516"><ele>26.0</ele><time>2026-04-20T17:01:00.022Z</time></trkpt><trkpt lat="47.29293017186904" lon="-1.5700284484788496"><ele>26.0</ele><time>2026-04-20T17:01:02.023Z</time></trkpt><trkpt lat="47.29288520295852" lon="-1.570156440140279"><ele>26.0</ele><time>2026-04-20T17:01:04.027Z</time></trkpt><trkpt lat="47.29283637837255" lon="-1.5702208131566366"><ele>26.0</ele><time>2026-04-20T17:01:05.026Z</time></trkpt><trkpt lat="47.29276668284768" lon="-1.5703042969122252"><ele>26.0</ele><time>2026-04-20T17:01:07.025Z</time></trkpt><trkpt lat="47.29268474974417" lon="-1.5703638922437748"><ele>26.0</ele><time>2026-04-20T17:01:09.025Z</time></trkpt><trkpt lat="47.292580562687746" lon="-1.5704438556000315"><ele>26.0</ele><time>2026-04-20T17:01:11.032Z</time></trkpt><trkpt lat="47.2924601985582" lon="-1.5705203823759877"><ele>26.4</ele><time>2026-04-20T17:01:13.02Z</time></trkpt><trkpt lat="47.29237868454986" lon="-1.570563884453448"><ele>26.8</ele><time>2026-04-20T17:01:15.025Z</time></trkpt><trkpt lat="47.29230219968342" lon="-1.5705539938077056"><ele>27.199999999999996</ele><time>2026-04-20T17:01:17.028Z</time></trkpt><trkpt lat="47.292186194143525" lon="-1.5705602802350842"><ele>27.599999999999998</ele><time>2026-04-20T17:01:20.045Z</time></trkpt><trkpt lat="47.29210744616323" lon="-1.570565644653114"><ele>28.0</ele><time>2026-04-20T17:01:22.024Z</time></trkpt><trkpt lat="47.2920069471442" lon="-1.57056153752056"><ele>28.000000000000004</ele><time>2026-04-20T17:01:24.023Z</time></trkpt><trkpt lat="47.2919041431018" lon="-1.5705420076861702"><ele>28.0</ele><time>2026-04-20T17:01:26.027Z</time></trkpt><trkpt lat="47.29181382809513" lon="-1.5705203823759877"><ele>28.0</ele><time>2026-04-20T17:01:28.022Z</time></trkpt><trkpt lat="47.29171982505106" lon="-1.5705103240921818"><ele>28.0</ele><time>2026-04-20T17:01:31.029Z</time></trkpt><trkpt lat="47.291647237769595" lon="-1.570499092341932"><ele>28.000000000000004</ele><time>2026-04-20T17:01:33.028Z</time></trkpt><trkpt lat="47.29157653641634" lon="-1.5705042891218983"><ele>28.0</ele><time>2026-04-20T17:01:35.027Z</time></trkpt><trkpt lat="47.29151249867611" lon="-1.5705168619766556"><ele>28.000000000000004</ele><time>2026-04-20T17:01:37.025Z</time></trkpt><trkpt lat="47.29144364134156" lon="-1.5705461148187243"><ele>28.0</ele><time>2026-04-20T17:01:39.027Z</time></trkpt><trkpt lat="47.29137918450617" lon="-1.5705598611399256"><ele>28.0</ele><time>2026-04-20T17:01:41.029Z</time></trkpt><trkpt lat="47.29130571712487" lon="-1.5705539938077056"><ele>28.0</ele><time>2026-04-20T17:01:43.03Z</time></trkpt><trkpt lat="47.29122608904474" lon="-1.570555921645435"><ele>28.000000000000004</ele><time>2026-04-20T17:01:45.024Z</time></trkpt><trkpt lat="47.29113636077129" lon="-1.5705557540073716"><ele>28.0</ele><time>2026-04-20T17:01:47.022Z</time></trkpt><trkpt lat="47.29104407601737" lon="-1.5705510601415955"><ele>28.833333333333336</ele><time>2026-04-20T17:01:49.024Z</time></trkpt><trkpt lat="47.290948522321216" lon="-1.5705578494831645"><ele>29.666666666666668</ele><time>2026-04-20T17:01:51.025Z</time></trkpt><trkpt lat="47.290857662490836" lon="-1.5705679077669703"><ele>30.5</ele><time>2026-04-20T17:01:53.034Z</time></trkpt><trkpt lat="47.290765503465465" lon="-1.5705863479539477"><ele>31.333333333333336</ele><time>2026-04-20T17:01:55.025Z</time></trkpt><trkpt lat="47.29068805468016" lon="-1.570605123417052"><ele>32.166666666666664</ele><time>2026-04-20T17:01:57.023Z</time></trkpt><trkpt lat="47.290610312528244" lon="-1.5706385672107064"><ele>33.0</ele><time>2026-04-20T17:01:59.034Z</time></trkpt><trkpt lat="47.29054765780204" lon="-1.5706818178310717"><ele>33.57142857142857</ele><time>2026-04-20T17:02:01.024Z</time></trkpt><trkpt lat="47.29048395533793" lon="-1.5707454364761437"><ele>34.142857142857146</ele><time>2026-04-20T17:02:03.022Z</time></trkpt><trkpt lat="47.29042306081139" lon="-1.5708069596454228"><ele>34.714285714285715</ele><time>2026-04-20T17:02:05.032Z</time></trkpt><trkpt lat="47.29036543522709" lon="-1.5708748530611123"><ele>35.285714285714285</ele><time>2026-04-20T17:02:07.025Z</time></trkpt><trkpt lat="47.2903147247129" lon="-1.5709555707886544"><ele>35.857142857142854</ele><time>2026-04-20T17:02:09.027Z</time></trkpt><trkpt lat="47.290265103846124" lon="-1.5710421558484164"><ele>36.42857142857143</ele><time>2026-04-20T17:02:11.022Z</time></trkpt><trkpt lat="47.290216530717245" lon="-1.571121197195324"><ele>37.0</ele><time>2026-04-20T17:02:13.025Z</time></trkpt><trkpt lat="47.29016871195965" lon="-1.5712054353221983"><ele>37.16666666666667</ele><time>2026-04-20T17:02:15.041Z</time></trkpt><trkpt lat="47.290118294812075" lon="-1.5713252965375513"><ele>37.333333333333336</ele><time>2026-04-20T17:02:18.027Z</time></trkpt><trkpt lat="47.29006804530256" lon="-1.5714144799872967"><ele>37.5</ele><time>2026-04-20T17:02:20.024Z</time></trkpt><trkpt lat="47.29000773750924" lon="-1.5714886598303648"><ele>37.666666666666664</ele><time>2026-04-20T17:02:22.025Z</time></trkpt><trkpt lat="47.289948225996724" lon="-1.5715684555485578"><ele>37.83333333333333</ele><time>2026-04-20T17:02:24.031Z</time></trkpt><trkpt lat="47.28989173196935" lon="-1.5716408751919602"><ele>38.0</ele><time>2026-04-20T17:02:26.025Z</time></trkpt><trkpt lat="47.289832765280536" lon="-1.5717043261989687"><ele>38.0</ele><time>2026-04-20T17:02:28.03Z</time></trkpt><trkpt lat="47.28977727708154" lon="-1.5717560425415371"><ele>38.0</ele><time>2026-04-20T17:02:30.024Z</time></trkpt><trkpt lat="47.28972116023981" lon="-1.5718384366497133"><ele>38.0</ele><time>2026-04-20T17:02:32.023Z</time></trkpt><trkpt lat="47.28967044972562" lon="-1.5719341579839325"><ele>38.0</ele><time>2026-04-20T17:02:34.024Z</time></trkpt><trkpt lat="47.28962049358272" lon="-1.5720272809281683"><ele>38.0</ele><time>2026-04-20T17:02:36.023Z</time></trkpt><trkpt lat="47.28956714276903" lon="-1.5721199847772458"><ele>38.0</ele><time>2026-04-20T17:02:38.025Z</time></trkpt><trkpt lat="47.28951354049825" lon="-1.5721976012006142"><ele>38.666666666666664</ele><time>2026-04-20T17:02:40.024Z</time></trkpt><trkpt lat="47.289468739225796" lon="-1.5722719486817458"><ele>39.33333333333333</ele><time>2026-04-20T17:02:42.022Z</time></trkpt><trkpt lat="47.2894201241874" lon="-1.5723536722376685"><ele>40.0</ele><time>2026-04-20T17:02:44.024Z</time></trkpt><trkpt lat="47.28936509699308" lon="-1.5724397543832402"><ele>40.666666666666664</ele><time>2026-04-20T17:02:46.022Z</time></trkpt><trkpt lat="47.28931752969258" lon="-1.5725275129094463"><ele>41.333333333333336</ele><time>2026-04-20T17:02:48.023Z</time></trkpt><trkpt lat="47.289260323203436" lon="-1.5726252459004266"><ele>42.0</ele><time>2026-04-20T17:02:50.024Z</time></trkpt><trkpt lat="47.289193058430484" lon="-1.572723481805597"><ele>42.0</ele><time>2026-04-20T17:02:52.025Z</time></trkpt><trkpt lat="47.28913291827523" lon="-1.5728121623411522"><ele>42.0</ele><time>2026-04-20T17:02:54.023Z</time></trkpt><trkpt lat="47.289055972404114" lon="-1.572923222558175"><ele>42.0</ele><time>2026-04-20T17:02:56.022Z</time></trkpt><trkpt lat="47.2889885399931" lon="-1.5730236377581701"><ele>42.0</ele><time>2026-04-20T17:02:58.023Z</time></trkpt><trkpt lat="47.28892517280512" lon="-1.5731227956726896"><ele>42.0</ele><time>2026-04-20T17:03:00.026Z</time></trkpt><trkpt lat="47.2888659127497" lon="-1.5732274856433022"><ele>42.0</ele><time>2026-04-20T17:03:02.024Z</time></trkpt><trkpt lat="47.288802713199786" lon="-1.5733267273768534"><ele>42.0</ele><time>2026-04-20T17:03:04.025Z</time></trkpt><trkpt lat="47.28873515506022" lon="-1.5734329260900368"><ele>42.0</ele><time>2026-04-20T17:03:06.027Z</time></trkpt><trkpt lat="47.28866474707358" lon="-1.5735439024880282"><ele>42.0</ele><time>2026-04-20T17:03:08.026Z</time></trkpt><trkpt lat="47.28860171516173" lon="-1.573659405113732"><ele>42.0</ele><time>2026-04-20T17:03:10.024Z</time></trkpt><trkpt lat="47.28854379621082" lon="-1.5737693756833429"><ele>42.0</ele><time>2026-04-20T17:03:12.031Z</time></trkpt><trkpt lat="47.28846852672034" lon="-1.5738898236319179"><ele>42.0</ele><time>2026-04-20T17:03:14.023Z</time></trkpt><trkpt lat="47.28839669381016" lon="-1.5740171447410938"><ele>42.0</ele><time>2026-04-20T17:03:16.025Z</time></trkpt><trkpt lat="47.28832310070031" lon="-1.5741297137006875"><ele>42.0</ele><time>2026-04-20T17:03:18.022Z</time></trkpt><trkpt lat="47.2882604459741" lon="-1.574252424763119"><ele>42.0</ele><time>2026-04-20T17:03:20.028Z</time></trkpt><trkpt lat="47.28821380068295" lon="-1.5743164625033497"><ele>42.0</ele><time>2026-04-20T17:03:21.026Z</time></trkpt><trkpt lat="47.28814829610967" lon="-1.574442442508018"><ele>42.0</ele><time>2026-04-20T17:03:23.018Z</time></trkpt><trkpt lat="47.28806028612637" lon="-1.5744824241861464"><ele>42.0</ele><time>2026-04-20T17:03:25.052Z</time></trkpt><trkpt lat="47.28796192449265" lon="-1.574585018680966"><ele>42.0</ele><time>2026-04-20T17:03:27.031Z</time></trkpt><trkpt lat="47.28788229641252" lon="-1.5746923070415617"><ele>42.0</ele><time>2026-04-20T17:03:29.033Z</time></trkpt><trkpt lat="47.28783384901219" lon="-1.5747896209373835"><ele>42.0</ele><time>2026-04-20T17:03:31.039Z</time></trkpt><trkpt lat="47.287736535116366" lon="-1.574900178240216"><ele>42.0</ele><time>2026-04-20T17:03:33.034Z</time></trkpt><trkpt lat="47.287675221494666" lon="-1.5749225579216841"><ele>42.0</ele><time>2026-04-20T17:03:34.024Z</time></trkpt><trkpt lat="47.28757292036646" lon="-1.5750031080111628"><ele>42.0</ele><time>2026-04-20T17:03:36.024Z</time></trkpt><trkpt lat="47.287475313104025" lon="-1.5750882681473857"><ele>42.0</ele><time>2026-04-20T17:03:38.023Z</time></trkpt><trkpt lat="47.287369072481326" lon="-1.575193963946379"><ele>42.0</ele><time>2026-04-20T17:03:40.025Z</time></trkpt><trkpt lat="47.287308177954785" lon="-1.5752378012999662"><ele>42.0</ele><time>2026-04-20T17:03:41.024Z</time></trkpt><trkpt lat="47.287254156588844" lon="-1.5752975642695792"><ele>42.0</ele><time>2026-04-20T17:03:42.021Z</time></trkpt><trkpt lat="47.287155920683674" lon="-1.5753890946522124"><ele>42.0</ele><time>2026-04-20T17:03:44.021Z</time></trkpt><trkpt lat="47.28705366146498" lon="-1.5754692256465326"><ele>42.0</ele><time>2026-04-20T17:03:46.028Z</time></trkpt><trkpt lat="47.2869982151755" lon="-1.5755145717426906"><ele>42.0</ele><time>2026-04-20T17:03:47.025Z</time></trkpt><trkpt lat="47.286897087513736" lon="-1.5755941160037885"><ele>42.25</ele><time>2026-04-20T17:03:49.031Z</time></trkpt><trkpt lat="47.28679466065698" lon="-1.5756703913226497"><ele>42.5</ele><time>2026-04-20T17:03:51.025Z</time></trkpt><trkpt lat="47.28668896485799" lon="-1.5757670346662176"><ele>42.75</ele><time>2026-04-20T17:03:53.023Z</time></trkpt><trkpt lat="47.286593788347474" lon="-1.5758644323810709"><ele>43.0</ele><time>2026-04-20T17:03:55.025Z</time></trkpt><trkpt lat="47.286490690938464" lon="-1.5759567171349897"><ele>43.0</ele><time>2026-04-20T17:03:57.045Z</time></trkpt><trkpt lat="47.28643570565366" lon="-1.5760067570969238"><ele>43.0</ele><time>2026-04-20T17:03:58.027Z</time></trkpt><trkpt lat="47.28637724187904" lon="-1.5760592278107777"><ele>43.0</ele><time>2026-04-20T17:03:59.028Z</time></trkpt><trkpt lat="47.286316263533465" lon="-1.576114799828805"><ele>43.0</ele><time>2026-04-20T17:04:00.024Z</time></trkpt><trkpt lat="47.28621656079524" lon="-1.576206162573375"><ele>43.0</ele><time>2026-04-20T17:04:02.03Z</time></trkpt><trkpt lat="47.28616124023431" lon="-1.5762561187162774"><ele>43.0</ele><time>2026-04-20T17:04:03.019Z</time></trkpt><trkpt lat="47.28610529103064" lon="-1.5762990340605156"><ele>43.2</ele><time>2026-04-20T17:04:04.028Z</time></trkpt><trkpt lat="47.28601187471979" lon="-1.5763665922000782"><ele>43.4</ele><time>2026-04-20T17:04:06.031Z</time></trkpt><trkpt lat="47.28592549920761" lon="-1.5764555241927285"><ele>43.6</ele><time>2026-04-20T17:04:08.024Z</time></trkpt><trkpt lat="47.28582520973616" lon="-1.5765346493586678"><ele>43.800000000000004</ele><time>2026-04-20T17:04:10.114Z</time></trkpt><trkpt lat="47.28573879231446" lon="-1.576634813101568"><ele>44.0</ele><time>2026-04-20T17:04:12.024Z</time></trkpt><trkpt lat="47.285644453994266" lon="-1.5766953304424665"><ele>43.75</ele><time>2026-04-20T17:04:14.026Z</time></trkpt><trkpt lat="47.28554856502198" lon="-1.5767913870528123"><ele>43.5</ele><time>2026-04-20T17:04:16.031Z</time></trkpt><trkpt lat="47.28544249203735" lon="-1.5768892038628244"><ele>43.25</ele><time>2026-04-20T17:04:18.026Z</time></trkpt><trkpt lat="47.28534421422266" lon="-1.5769979171469592"><ele>43.0</ele><time>2026-04-20T17:04:20.027Z</time></trkpt><trkpt lat="47.28524861861699" lon="-1.5771027747556354"><ele>43.0</ele><time>2026-04-20T17:04:22.03Z</time></trkpt><trkpt lat="47.28516148873352" lon="-1.5772140864297535"><ele>43.0</ele><time>2026-04-20T17:04:24.026Z</time></trkpt><trkpt lat="47.28507029362701" lon="-1.5773271583035378"><ele>43.0</ele><time>2026-04-20T17:04:26.025Z</time></trkpt><trkpt lat="47.284987564242705" lon="-1.5774477738901762"><ele>43.0</ele><time>2026-04-20T17:04:28.027Z</time></trkpt><trkpt lat="47.284900560087785" lon="-1.5775649528965145"><ele>43.0</ele><time>2026-04-20T17:04:30.025Z</time></trkpt><trkpt lat="47.28485902775757" lon="-1.577636701987663"><ele>43.0</ele><time>2026-04-20T17:04:31.033Z</time></trkpt><trkpt lat="47.284807059957906" lon="-1.577703254298845"><ele>43.0</ele><time>2026-04-20T17:04:32.026Z</time></trkpt><trkpt lat="47.284757606729194" lon="-1.5777673758581072"><ele>43.0</ele><time>2026-04-20T17:04:33.025Z</time></trkpt><trkpt lat="47.284712889275774" lon="-1.5778418071582707"><ele>43.0</ele><time>2026-04-20T17:04:34.025Z</time></trkpt><trkpt lat="47.28463099808179" lon="-1.5779856406166943"><ele>43.0</ele><time>2026-04-20T17:04:36.029Z</time></trkpt><trkpt lat="47.284589633389636" lon="-1.5780640952303802"><ele>42.75</ele><time>2026-04-20T17:04:37.023Z</time></trkpt><trkpt lat="47.28453255262904" lon="-1.5781839564457332"><ele>42.5</ele><time>2026-04-20T17:04:39.031Z</time></trkpt><trkpt lat="47.284437082751914" lon="-1.5783349145218528"><ele>42.25</ele><time>2026-04-20T17:04:41.023Z</time></trkpt><trkpt lat="47.28437174581669" lon="-1.578397024424354"><ele>42.0</ele><time>2026-04-20T17:04:42.031Z</time></trkpt><trkpt lat="47.28426785212688" lon="-1.578532559798638"><ele>42.0</ele><time>2026-04-20T17:04:44.028Z</time></trkpt><trkpt lat="47.28421471086077" lon="-1.578610260041038"><ele>42.0</ele><time>2026-04-20T17:04:45.026Z</time></trkpt><trkpt lat="47.284162198237404" lon="-1.5786808356657425"><ele>42.0</ele><time>2026-04-20T17:04:46.031Z</time></trkpt><trkpt lat="47.28411232591353" lon="-1.5787624754026335"><ele>42.0</ele><time>2026-04-20T17:04:47.031Z</time></trkpt><trkpt lat="47.284020627892836" lon="-1.57888543792216"><ele>42.0</ele><time>2026-04-20T17:04:49.032Z</time></trkpt><trkpt lat="47.28396405004643" lon="-1.5789663232877653"><ele>42.0</ele><time>2026-04-20T17:04:50.033Z</time></trkpt><trkpt lat="47.28392113470219" lon="-1.5790388267501994"><ele>42.5</ele><time>2026-04-20T17:04:51.028Z</time></trkpt><trkpt lat="47.283831154971644" lon="-1.579189449550192"><ele>43.0</ele><time>2026-04-20T17:04:53.025Z</time></trkpt><trkpt lat="47.283776588782" lon="-1.57926899381129"><ele>43.5</ele><time>2026-04-20T17:04:54.037Z</time></trkpt><trkpt lat="47.28368815970354" lon="-1.579389441759865"><ele>44.0</ele><time>2026-04-20T17:04:56.027Z</time></trkpt><trkpt lat="47.28361272257499" lon="-1.5795331075802255"><ele>44.0</ele><time>2026-04-20T17:04:58.028Z</time></trkpt><trkpt lat="47.2835434880548" lon="-1.5796907711788821"><ele>44.0</ele><time>2026-04-20T17:05:00.027Z</time></trkpt><trkpt lat="47.283512349284514" lon="-1.5797820501044204"><ele>44.0</ele><time>2026-04-20T17:05:01.03Z</time></trkpt><trkpt lat="47.28348841895096" lon="-1.579964859412592"><ele>44.0</ele><time>2026-04-20T17:05:03.026Z</time></trkpt><trkpt lat="47.283483808904215" lon="-1.580160995946806"><ele>44.0</ele><time>2026-04-20T17:05:05.029Z</time></trkpt><trkpt lat="47.28347546891056" lon="-1.5802547894432957"><ele>44.0</ele><time>2026-04-20T17:05:06.025Z</time></trkpt><trkpt lat="47.283474588810726" lon="-1.580360401423257"><ele>44.0</ele><time>2026-04-20T17:05:07.024Z</time></trkpt><trkpt lat="47.28346503344111" lon="-1.5804788377150711"><ele>44.0</ele><time>2026-04-20T17:05:08.024Z</time></trkpt><trkpt lat="47.28344198320739" lon="-1.5806466434165654"><ele>44.0</ele><time>2026-04-20T17:05:10.028Z</time></trkpt><trkpt lat="47.28343184110455" lon="-1.5807556081577956"><ele>44.0</ele><time>2026-04-20T17:05:11.024Z</time></trkpt><trkpt lat="47.28342500985347" lon="-1.5808663330986916"><ele>43.83333333333333</ele><time>2026-04-20T17:05:12.028Z</time></trkpt><trkpt lat="47.283409251875504" lon="-1.5809934027507724"><ele>43.666666666666664</ele><time>2026-04-20T17:05:13.025Z</time></trkpt><trkpt lat="47.283401037610396" lon="-1.5811031218632878"><ele>43.5</ele><time>2026-04-20T17:05:14.026Z</time></trkpt><trkpt lat="47.2834346071326" lon="-1.5812710952028457"><ele>43.333333333333336</ele><time>2026-04-20T17:05:16.027Z</time></trkpt><trkpt lat="47.283432427837774" lon="-1.5813732706025068"><ele>43.16666666666667</ele><time>2026-04-20T17:05:17.025Z</time></trkpt><trkpt lat="47.283433014570996" lon="-1.5814750269070095"><ele>43.0</ele><time>2026-04-20T17:05:18.029Z</time></trkpt><trkpt lat="47.28343112864278" lon="-1.581584746019525"><ele>43.333333333333336</ele><time>2026-04-20T17:05:19.026Z</time></trkpt><trkpt lat="47.28342991326682" lon="-1.5816841553911396"><ele>43.66666666666667</ele><time>2026-04-20T17:05:20.027Z</time></trkpt><trkpt lat="47.283431589647456" lon="-1.5817792899921366"><ele>44.0</ele><time>2026-04-20T17:05:21.023Z</time></trkpt><trkpt lat="47.28344328240238" lon="-1.5819695591941307"><ele>44.333333333333336</ele><time>2026-04-20T17:05:23.024Z</time></trkpt><trkpt lat="47.283456190533265" lon="-1.5820656158044766"><ele>44.666666666666664</ele><time>2026-04-20T17:05:24.03Z</time></trkpt><trkpt lat="47.28346725464545" lon="-1.5821655280902815"><ele>45.0</ele><time>2026-04-20T17:05:25.024Z</time></trkpt><trkpt lat="47.28345145475797" lon="-1.582295866684599"><ele>45.0</ele><time>2026-04-20T17:05:26.026Z</time></trkpt><trkpt lat="47.28344692853026" lon="-1.5824000537410214"><ele>45.0</ele><time>2026-04-20T17:05:27.026Z</time></trkpt><trkpt lat="47.28344500069253" lon="-1.5825142990812495"><ele>45.0</ele><time>2026-04-20T17:05:28.023Z</time></trkpt><trkpt lat="47.28344039064579" lon="-1.5826236829176383"><ele>45.0</ele><time>2026-04-20T17:05:29.023Z</time></trkpt><trkpt lat="47.28343481668018" lon="-1.5827306360021072"><ele>45.0</ele><time>2026-04-20T17:05:30.028Z</time></trkpt><trkpt lat="47.28340816222809" lon="-1.5828513354077776"><ele>45.0</ele><time>2026-04-20T17:05:31.026Z</time></trkpt><trkpt lat="47.283401666253134" lon="-1.5829708613470037"><ele>45.0</ele><time>2026-04-20T17:05:32.053Z</time></trkpt><trkpt lat="47.28340229489587" lon="-1.5830679237857304"><ele>45.0</ele><time>2026-04-20T17:05:33.028Z</time></trkpt><trkpt lat="47.28338033430956" lon="-1.5832578577115974"><ele>45.0</ele><time>2026-04-20T17:05:35.027Z</time></trkpt><trkpt lat="47.28338150777601" lon="-1.5833616256728613"><ele>45.0</ele><time>2026-04-20T17:05:36.023Z</time></trkpt><trkpt lat="47.283373922153636" lon="-1.5834654774531567"><ele>45.0</ele><time>2026-04-20T17:05:37.025Z</time></trkpt><trkpt lat="47.28336889301173" lon="-1.5836741868421282"><ele>44.833333333333336</ele><time>2026-04-20T17:05:39.029Z</time></trkpt><trkpt lat="47.283364534422084" lon="-1.5838035196080653"><ele>44.666666666666664</ele><time>2026-04-20T17:05:40.024Z</time></trkpt><trkpt lat="47.283359379551634" lon="-1.5839005820467917"><ele>44.5</ele><time>2026-04-20T17:05:41.027Z</time></trkpt><trkpt lat="47.28337337732993" lon="-1.5840747579946965"><ele>44.33333333333333</ele><time>2026-04-20T17:05:43.026Z</time></trkpt><trkpt lat="47.283369898840114" lon="-1.5841934457436055"><ele>44.166666666666664</ele><time>2026-04-20T17:05:44.03Z</time></trkpt><trkpt lat="47.283360385380014" lon="-1.5842906758203956"><ele>44.0</ele><time>2026-04-20T17:05:45.024Z</time></trkpt><trkpt lat="47.28334768679671" lon="-1.584406010808036"><ele>43.85714285714286</ele><time>2026-04-20T17:05:46.026Z</time></trkpt><trkpt lat="47.283348231620415" lon="-1.5845143049970125"><ele>43.714285714285715</ele><time>2026-04-20T17:05:47.025Z</time></trkpt><trkpt lat="47.28334345393561" lon="-1.5846088528647875"><ele>43.57142857142857</ele><time>2026-04-20T17:05:48.022Z</time></trkpt><trkpt lat="47.28331893686883" lon="-1.5847162250444151"><ele>43.42857142857143</ele><time>2026-04-20T17:05:49.023Z</time></trkpt><trkpt lat="47.283315039283856" lon="-1.5848118625596024"><ele>43.285714285714285</ele><time>2026-04-20T17:05:50.028Z</time></trkpt><trkpt lat="47.283289348750635" lon="-1.5848966036006666"><ele>43.142857142857146</ele><time>2026-04-20T17:05:51.026Z</time></trkpt><trkpt lat="47.283291486135944" lon="-1.5849940851345519"><ele>43.0</ele><time>2026-04-20T17:05:52.032Z</time></trkpt><trkpt lat="47.28328960020773" lon="-1.5851582866176823"><ele>43.0</ele><time>2026-04-20T17:05:54.04Z</time></trkpt><trkpt lat="47.2832773626291" lon="-1.5853037126377088"><ele>43.0</ele><time>2026-04-20T17:05:56.023Z</time></trkpt><trkpt lat="47.28326722052626" lon="-1.5854987595245107"><ele>43.0</ele><time>2026-04-20T17:05:58.024Z</time></trkpt><trkpt lat="47.283263448669835" lon="-1.5856052096947892"><ele>43.0</ele><time>2026-04-20T17:05:59.021Z</time></trkpt><trkpt lat="47.283243332102224" lon="-1.585786761717485"><ele>43.0</ele><time>2026-04-20T17:06:01.023Z</time></trkpt><trkpt lat="47.28324852888219" lon="-1.5859578363612163"><ele>43.0</ele><time>2026-04-20T17:06:03.021Z</time></trkpt><trkpt lat="47.28322606538169" lon="-1.586141400040673"><ele>43.0</ele><time>2026-04-20T17:06:05.023Z</time></trkpt><trkpt lat="47.28321713865481" lon="-1.5862889215364924"><ele>43.0</ele><time>2026-04-20T17:06:07.024Z</time></trkpt><trkpt lat="47.283194758973345" lon="-1.5864444058403246"><ele>43.0</ele><time>2026-04-20T17:06:09.024Z</time></trkpt><trkpt lat="47.28316362020306" lon="-1.586602739991235"><ele>43.0</ele><time>2026-04-20T17:06:11.022Z</time></trkpt><trkpt lat="47.28314886805348" lon="-1.5866946056499953"><ele>43.2</ele><time>2026-04-20T17:06:12.024Z</time></trkpt><trkpt lat="47.28313118223779" lon="-1.586783956737804"><ele>43.4</ele><time>2026-04-20T17:06:13.023Z</time></trkpt><trkpt lat="47.28307024580173" lon="-1.586929466576862"><ele>43.6</ele><time>2026-04-20T17:06:15.022Z</time></trkpt><trkpt lat="47.28302016393028" lon="-1.587081179024267"><ele>43.800000000000004</ele><time>2026-04-20T17:06:17.02Z</time></trkpt><trkpt lat="47.28297150698237" lon="-1.5872283652439594"><ele>44.0</ele><time>2026-04-20T17:06:19.027Z</time></trkpt><trkpt lat="47.28293915283613" lon="-1.5873670857414486"><ele>44.6</ele><time>2026-04-20T17:06:21.024Z</time></trkpt><trkpt lat="47.28287528273396" lon="-1.5875028725728275"><ele>45.2</ele><time>2026-04-20T17:06:23.027Z</time></trkpt><trkpt lat="47.28282976899974" lon="-1.5876611229047064"><ele>45.800000000000004</ele><time>2026-04-20T17:06:25.026Z</time></trkpt><trkpt lat="47.282783878079876" lon="-1.5877588558956865"><ele>46.400000000000006</ele><time>2026-04-20T17:06:27.036Z</time></trkpt><trkpt lat="47.282739873088225" lon="-1.5878334548339135"><ele>47.0</ele><time>2026-04-20T17:06:28.052Z</time></trkpt><trkpt lat="47.282687276645824" lon="-1.5879701636746413"><ele>47.2</ele><time>2026-04-20T17:06:30.026Z</time></trkpt><trkpt lat="47.28262420282446" lon="-1.588097233326722"><ele>47.400000000000006</ele><time>2026-04-20T17:06:32.024Z</time></trkpt><trkpt lat="47.2825738275864" lon="-1.5882419887944945"><ele>47.599999999999994</ele><time>2026-04-20T17:06:34.023Z</time></trkpt><trkpt lat="47.28252772711895" lon="-1.588397389279295"><ele>47.8</ele><time>2026-04-20T17:06:36.046Z</time></trkpt><trkpt lat="47.282472867562696" lon="-1.5885368641480697"><ele>48.0</ele><time>2026-04-20T17:06:38.025Z</time></trkpt><trkpt lat="47.282422282777055" lon="-1.5886788535877956"><ele>48.2</ele><time>2026-04-20T17:06:40.043Z</time></trkpt><trkpt lat="47.28236759085886" lon="-1.5888004750028148"><ele>48.4</ele><time>2026-04-20T17:06:42.023Z</time></trkpt><trkpt lat="47.2823095461794" lon="-1.5889222640558973"><ele>48.6</ele><time>2026-04-20T17:06:44.043Z</time></trkpt><trkpt lat="47.282253932251855" lon="-1.5890412032619017"><ele>48.800000000000004</ele><time>2026-04-20T17:06:46.024Z</time></trkpt><trkpt lat="47.28220816706054" lon="-1.5891644172385233"><ele>49.0</ele><time>2026-04-20T17:06:48.035Z</time></trkpt><trkpt lat="47.28215200830929" lon="-1.5892814286067982"><ele>49.400000000000006</ele><time>2026-04-20T17:06:50.022Z</time></trkpt><trkpt lat="47.282095891467556" lon="-1.5893894713386794"><ele>49.8</ele><time>2026-04-20T17:06:52.026Z</time></trkpt><trkpt lat="47.28203990035437" lon="-1.5894926525667212"><ele>50.2</ele><time>2026-04-20T17:06:54.023Z</time></trkpt><trkpt lat="47.28197544351898" lon="-1.589599354194095"><ele>50.599999999999994</ele><time>2026-04-20T17:06:56.031Z</time></trkpt><trkpt lat="47.281917734115645" lon="-1.589719215409448"><ele>51.0</ele><time>2026-04-20T17:06:58.024Z</time></trkpt><trkpt lat="47.28185218763284" lon="-1.589828515426805"><ele>51.199999999999996</ele><time>2026-04-20T17:07:00.025Z</time></trkpt><trkpt lat="47.28178517431699" lon="-1.5899626258775499"><ele>51.4</ele><time>2026-04-20T17:07:02.023Z</time></trkpt><trkpt lat="47.28171799336307" lon="-1.5900886897012498"><ele>51.6</ele><time>2026-04-20T17:07:04.031Z</time></trkpt><trkpt lat="47.28164360397242" lon="-1.5902117360398083"><ele>51.8</ele><time>2026-04-20T17:07:06.023Z</time></trkpt><trkpt lat="47.28157156151466" lon="-1.590334028007081"><ele>52.0</ele><time>2026-04-20T17:07:08.04Z</time></trkpt><trkpt lat="47.28149780076675" lon="-1.5904494468137533"><ele>52.2</ele><time>2026-04-20T17:07:10.023Z</time></trkpt><trkpt lat="47.28141050324522" lon="-1.5905774384751827"><ele>52.400000000000006</ele><time>2026-04-20T17:07:12.023Z</time></trkpt><trkpt lat="47.281333138278946" lon="-1.5907061845078978"><ele>52.599999999999994</ele><time>2026-04-20T17:07:14.029Z</time></trkpt><trkpt lat="47.28124902588062" lon="-1.5908249560758385"><ele>52.8</ele><time>2026-04-20T17:07:16.022Z</time></trkpt><trkpt lat="47.28119349577211" lon="-1.590921180324248"><ele>53.0</ele><time>2026-04-20T17:07:17.022Z</time></trkpt><trkpt lat="47.28112518326126" lon="-1.5910360962167298"><ele>53.0</ele><time>2026-04-20T17:07:19.025Z</time></trkpt><trkpt lat="47.2810565773838" lon="-1.5911505091950213"><ele>53.0</ele><time>2026-04-20T17:07:21.024Z</time></trkpt><trkpt lat="47.28096056268297" lon="-1.5912727173432626"><ele>53.0</ele><time>2026-04-20T17:07:23.021Z</time></trkpt><trkpt lat="47.2809088463404" lon="-1.5913614816978492"><ele>53.0</ele><time>2026-04-20T17:07:25.023Z</time></trkpt><trkpt lat="47.280878252393826" lon="-1.591453179718546"><ele>53.0</ele><time>2026-04-20T17:07:27.028Z</time></trkpt><trkpt lat="47.28084309031002" lon="-1.5915820095702926"><ele>53.0</ele><time>2026-04-20T17:07:29.022Z</time></trkpt><trkpt lat="47.280772347047254" lon="-1.5916794911041778"><ele>53.0</ele><time>2026-04-20T17:07:31.021Z</time></trkpt><trkpt lat="47.28068932429634" lon="-1.5917559340611023"><ele>53.0</ele><time>2026-04-20T17:07:33.022Z</time></trkpt><trkpt lat="47.28060567290269" lon="-1.591858193279795"><ele>53.0</ele><time>2026-04-20T17:07:35.026Z</time></trkpt><trkpt lat="47.28052038703792" lon="-1.5919823292657658"><ele>53.0</ele><time>2026-04-20T17:07:37.022Z</time></trkpt><trkpt lat="47.28043799292974" lon="-1.5921063814327048"><ele>53.142857142857146</ele><time>2026-04-20T17:07:39.025Z</time></trkpt><trkpt lat="47.2803900484436" lon="-1.5921692457064913"><ele>53.285714285714285</ele><time>2026-04-20T17:07:40.024Z</time></trkpt><trkpt lat="47.28034281641923" lon="-1.5922357980176733"><ele>53.42857142857143</ele><time>2026-04-20T17:07:41.025Z</time></trkpt><trkpt lat="47.280298224694356" lon="-1.5923014283195065"><ele>53.57142857142857</ele><time>2026-04-20T17:07:42.038Z</time></trkpt><trkpt lat="47.28023594715379" lon="-1.5924181882306863"><ele>53.71428571428571</ele><time>2026-04-20T17:07:44.023Z</time></trkpt><trkpt lat="47.28019546256147" lon="-1.5924966428443719"><ele>53.857142857142854</ele><time>2026-04-20T17:07:45.024Z</time></trkpt><trkpt lat="47.280150619379505" lon="-1.5925774443909455"><ele>54.0</ele><time>2026-04-20T17:07:46.021Z</time></trkpt><trkpt lat="47.280068350999876" lon="-1.5926958806827596"><ele>54.0</ele><time>2026-04-20T17:07:48.019Z</time></trkpt><trkpt lat="47.280026567212566" lon="-1.5927734132870963"><ele>54.0</ele><time>2026-04-20T17:07:49.024Z</time></trkpt><trkpt lat="47.27996143982492" lon="-1.5928346849992805"><ele>54.0</ele><time>2026-04-20T17:07:50.05Z</time></trkpt><trkpt lat="47.27991554890506" lon="-1.5928988065585428"><ele>54.0</ele><time>2026-04-20T17:07:51.026Z</time></trkpt><trkpt lat="47.27986957416616" lon="-1.5929789375528627"><ele>54.0</ele><time>2026-04-20T17:07:52.023Z</time></trkpt><trkpt lat="47.27982498244129" lon="-1.5930555481478506"><ele>54.0</ele><time>2026-04-20T17:07:53.021Z</time></trkpt><trkpt lat="47.27977619976483" lon="-1.5931308176383312"><ele>54.0</ele><time>2026-04-20T17:07:54.046Z</time></trkpt><trkpt lat="47.27972523779355" lon="-1.5932066738620336"><ele>53.57142857142857</ele><time>2026-04-20T17:07:55.023Z</time></trkpt><trkpt lat="47.27968215481125" lon="-1.5932936780169542"><ele>53.14285714285714</ele><time>2026-04-20T17:07:56.027Z</time></trkpt><trkpt lat="47.27962867826901" lon="-1.59336919896453"><ele>52.714285714285715</ele><time>2026-04-20T17:07:57.022Z</time></trkpt><trkpt lat="47.27959054060958" lon="-1.5934496652349768"><ele>52.285714285714285</ele><time>2026-04-20T17:07:58.023Z</time></trkpt><trkpt lat="47.27953999773346" lon="-1.5935215819641886"><ele>51.85714285714286</ele><time>2026-04-20T17:07:59.022Z</time></trkpt><trkpt lat="47.279494190632626" lon="-1.5935898106560051"><ele>51.42857142857143</ele><time>2026-04-20T17:08:00.022Z</time></trkpt><trkpt lat="47.2794542089545" lon="-1.5936663374319613"><ele>51.0</ele><time>2026-04-20T17:08:01.023Z</time></trkpt><trkpt lat="47.27941887923263" lon="-1.5937531739488184"><ele>50.85714285714286</ele><time>2026-04-20T17:08:02.019Z</time></trkpt><trkpt lat="47.27940144487403" lon="-1.5938527509584965"><ele>50.714285714285715</ele><time>2026-04-20T17:08:03.022Z</time></trkpt><trkpt lat="47.27938145403497" lon="-1.5939440298840346"><ele>50.57142857142857</ele><time>2026-04-20T17:08:04.023Z</time></trkpt><trkpt lat="47.2793823341348" lon="-1.5940371528282706"><ele>50.42857142857143</ele><time>2026-04-20T17:08:05.023Z</time></trkpt><trkpt lat="47.27938883010976" lon="-1.5941337961718385"><ele>50.285714285714285</ele><time>2026-04-20T17:08:06.023Z</time></trkpt><trkpt lat="47.27939113513313" lon="-1.5942280925825183"><ele>50.142857142857146</ele><time>2026-04-20T17:08:07.023Z</time></trkpt><trkpt lat="47.27937629916452" lon="-1.5943235624596424"><ele>50.0</ele><time>2026-04-20T17:08:08.023Z</time></trkpt><trkpt lat="47.27934478320859" lon="-1.5944086387768335"><ele>50.0</ele><time>2026-04-20T17:08:09.023Z</time></trkpt><trkpt lat="47.27923787203364" lon="-1.594490697608883"><ele>50.0</ele><time>2026-04-20T17:08:11.023Z</time></trkpt><trkpt lat="47.27911122147672" lon="-1.5945314336582967"><ele>50.0</ele><time>2026-04-20T17:08:13.023Z</time></trkpt><trkpt lat="47.27904697418891" lon="-1.594574935735757"><ele>50.0</ele><time>2026-04-20T17:08:14.022Z</time></trkpt><trkpt lat="47.27897602137856" lon="-1.5946442540749857"><ele>50.0</ele><time>2026-04-20T17:08:15.023Z</time></trkpt><trkpt lat="47.278881683058366" lon="-1.5947921108469318"><ele>50.00000000000001</ele><time>2026-04-20T17:08:17.03Z</time></trkpt><trkpt lat="47.27883310992949" lon="-1.5948734153076958"><ele>50.0</ele><time>2026-04-20T17:08:18.024Z</time></trkpt><trkpt lat="47.27878797338091" lon="-1.5949808713063551"><ele>50.0</ele><time>2026-04-20T17:08:19.028Z</time></trkpt><trkpt lat="47.2787390649759" lon="-1.5950827114298893"><ele>50.0</ele><time>2026-04-20T17:08:20.027Z</time></trkpt><trkpt lat="47.27869711355053" lon="-1.595173487441237"><ele>50.00000000000001</ele><time>2026-04-20T17:08:21.021Z</time></trkpt><trkpt lat="47.27867159065537" lon="-1.595270214603837"><ele>50.0</ele><time>2026-04-20T17:08:22.024Z</time></trkpt><trkpt lat="47.2786259511926" lon="-1.5953711327180222"><ele>50.00000000000001</ele><time>2026-04-20T17:08:23.022Z</time></trkpt><trkpt lat="47.27859007664703" lon="-1.595459310339387"><ele>50.0</ele><time>2026-04-20T17:08:24.023Z</time></trkpt><trkpt lat="47.27855625566773" lon="-1.5955646708622533"><ele>50.0</ele><time>2026-04-20T17:08:25.024Z</time></trkpt><trkpt lat="47.278532031967565" lon="-1.5956680197283584"><ele>50.0</ele><time>2026-04-20T17:08:26.022Z</time></trkpt><trkpt lat="47.27849557068877" lon="-1.5957629866912921"><ele>50.0</ele><time>2026-04-20T17:08:27.021Z</time></trkpt><trkpt lat="47.27845986378126" lon="-1.595858121292289"><ele>50.00000000000001</ele><time>2026-04-20T17:08:28.021Z</time></trkpt><trkpt lat="47.27842566561632" lon="-1.595957195387777"><ele>50.0</ele><time>2026-04-20T17:08:29.019Z</time></trkpt><trkpt lat="47.27835898757659" lon="-1.5961204748615585"><ele>50.0</ele><time>2026-04-20T17:08:31.03Z</time></trkpt><trkpt lat="47.27831707806073" lon="-1.5962760429844225"><ele>50.0</ele><time>2026-04-20T17:08:33.021Z</time></trkpt><trkpt lat="47.278309743895456" lon="-1.5964107401683894"><ele>50.0</ele><time>2026-04-20T17:08:35.021Z</time></trkpt><trkpt lat="47.27831049826674" lon="-1.596568403767046"><ele>50.0</ele><time>2026-04-20T17:08:37.023Z</time></trkpt><trkpt lat="47.278342223770245" lon="-1.5967187751099436"><ele>50.0</ele><time>2026-04-20T17:08:39.021Z</time></trkpt><trkpt lat="47.27836787239395" lon="-1.596879540012774"><ele>50.25</ele><time>2026-04-20T17:08:41.038Z</time></trkpt><trkpt lat="47.27835010275923" lon="-1.5970506984755368"><ele>50.5</ele><time>2026-04-20T17:08:43.023Z</time></trkpt><trkpt lat="47.27827751547776" lon="-1.5971786901369665"><ele>50.75</ele><time>2026-04-20T17:08:45.019Z</time></trkpt><trkpt lat="47.27820551492952" lon="-1.5972890798017356"><ele>51.0</ele><time>2026-04-20T17:08:47.023Z</time></trkpt><trkpt lat="47.278101118325516" lon="-1.5973867289736843"><ele>50.666666666666664</ele><time>2026-04-20T17:08:49.019Z</time></trkpt><trkpt lat="47.27798804645173" lon="-1.5974843781456327"><ele>50.33333333333333</ele><time>2026-04-20T17:08:51.022Z</time></trkpt><trkpt lat="47.277930043681785" lon="-1.5975501760855293"><ele>50.0</ele><time>2026-04-20T17:08:52.018Z</time></trkpt><trkpt lat="47.277880255176946" lon="-1.597616309301553"><ele>49.666666666666664</ele><time>2026-04-20T17:08:53.029Z</time></trkpt><trkpt lat="47.277852636805996" lon="-1.597714964301882"><ele>49.33333333333333</ele><time>2026-04-20T17:08:54.02Z</time></trkpt><trkpt lat="47.27781466678463" lon="-1.5977904014304258"><ele>49.0</ele><time>2026-04-20T17:08:55.032Z</time></trkpt><trkpt lat="47.27777820550583" lon="-1.59789173863977"><ele>49.0</ele><time>2026-04-20T17:08:56.02Z</time></trkpt><trkpt lat="47.27774400734089" lon="-1.597977988423405"><ele>49.0</ele><time>2026-04-20T17:08:57.025Z</time></trkpt><trkpt lat="47.277697529687806" lon="-1.5981348138317448"><ele>49.0</ele><time>2026-04-20T17:08:59.036Z</time></trkpt><trkpt lat="47.277661319866105" lon="-1.5982286073282344"><ele>49.0</ele><time>2026-04-20T17:09:00.021Z</time></trkpt><trkpt lat="47.277598790868446" lon="-1.5983919706210479"><ele>49.0</ele><time>2026-04-20T17:09:02.026Z</time></trkpt><trkpt lat="47.27751689967446" lon="-1.598514178769289"><ele>49.0</ele><time>2026-04-20T17:09:04.026Z</time></trkpt><trkpt lat="47.277484671256765" lon="-1.5986262448146926"><ele>49.0</ele><time>2026-04-20T17:09:05.042Z</time></trkpt><trkpt lat="47.277460615194656" lon="-1.5987155959025012"><ele>49.0</ele><time>2026-04-20T17:09:06.02Z</time></trkpt><trkpt lat="47.27739762519232" lon="-1.5988956391826261"><ele>49.0</ele><time>2026-04-20T17:09:08.025Z</time></trkpt><trkpt lat="47.277342262721874" lon="-1.5990611817702642"><ele>49.0</ele><time>2026-04-20T17:09:10.024Z</time></trkpt><trkpt lat="47.27731024385176" lon="-1.599154639990627"><ele>48.99999999999999</ele><time>2026-04-20T17:09:11.02Z</time></trkpt><trkpt lat="47.277281032919205" lon="-1.5992481820300213"><ele>49.0</ele><time>2026-04-20T17:09:12.026Z</time></trkpt><trkpt lat="47.27723912340335" lon="-1.5993977990016335"><ele>49.0</ele><time>2026-04-20T17:09:14.026Z</time></trkpt><trkpt lat="47.27721443869851" lon="-1.5994889102891081"><ele>49.0</ele><time>2026-04-20T17:09:15.027Z</time></trkpt><trkpt lat="47.27719025690786" lon="-1.599585637451708"><ele>48.99999999999999</ele><time>2026-04-20T17:09:16.022Z</time></trkpt><trkpt lat="47.27716142316095" lon="-1.599697200582921"><ele>49.0</ele><time>2026-04-20T17:09:17.034Z</time></trkpt><trkpt lat="47.27712919474325" lon="-1.599788311870396"><ele>49.166666666666664</ele><time>2026-04-20T17:09:18.024Z</time></trkpt><trkpt lat="47.27709176954559" lon="-1.5998938400313256"><ele>49.33333333333333</ele><time>2026-04-20T17:09:19.03Z</time></trkpt><trkpt lat="47.27705740374259" lon="-1.5999820176526904"><ele>49.5</ele><time>2026-04-20T17:09:20.022Z</time></trkpt><trkpt lat="47.277025175324894" lon="-1.6000891383752227"><ele>49.66666666666667</ele><time>2026-04-20T17:09:21.019Z</time></trkpt><trkpt lat="47.27699059997431" lon="-1.6001922357842326"><ele>49.833333333333336</ele><time>2026-04-20T17:09:22.024Z</time></trkpt><trkpt lat="47.276960006027736" lon="-1.6003013681635263"><ele>50.0</ele><time>2026-04-20T17:09:23.023Z</time></trkpt><trkpt lat="47.276931381828405" lon="-1.6004109196379783"><ele>50.00000000000001</ele><time>2026-04-20T17:09:24.02Z</time></trkpt><trkpt lat="47.276901542253114" lon="-1.6005255840733652"><ele>50.0</ele><time>2026-04-20T17:09:25.019Z</time></trkpt><trkpt lat="47.27685971655629" lon="-1.600635806100071"><ele>50.0</ele><time>2026-04-20T17:09:26.021Z</time></trkpt><trkpt lat="47.2768333135613" lon="-1.600751895458997"><ele>50.0</ele><time>2026-04-20T17:09:27.025Z</time></trkpt><trkpt lat="47.27679090113125" lon="-1.600857004524768"><ele>50.00000000000001</ele><time>2026-04-20T17:09:28.02Z</time></trkpt><trkpt lat="47.27675506849519" lon="-1.6009665559992203"><ele>50.0</ele><time>2026-04-20T17:09:29.022Z</time></trkpt><trkpt lat="47.27671823003075" lon="-1.601100331173838"><ele>49.833333333333336</ele><time>2026-04-20T17:09:30.024Z</time></trkpt><trkpt lat="47.27668989919803" lon="-1.601230334492029"><ele>49.66666666666667</ele><time>2026-04-20T17:09:31.032Z</time></trkpt><trkpt lat="47.276658508970655" lon="-1.6013460885748279"><ele>49.5</ele><time>2026-04-20T17:09:32.025Z</time></trkpt><trkpt lat="47.27663587783209" lon="-1.6014719009414329"><ele>49.33333333333333</ele><time>2026-04-20T17:09:33.017Z</time></trkpt><trkpt lat="47.27661747955463" lon="-1.6015973780319108"><ele>49.166666666666664</ele><time>2026-04-20T17:09:34.019Z</time></trkpt><trkpt lat="47.276589106812395" lon="-1.6017126292005197"><ele>49.0</ele><time>2026-04-20T17:09:35.035Z</time></trkpt><trkpt lat="47.27658043154261" lon="-1.6018449794515983"><ele>48.99999999999999</ele><time>2026-04-20T17:09:36.029Z</time></trkpt><trkpt lat="47.276563709645785" lon="-1.6019693668946642"><ele>49.0</ele><time>2026-04-20T17:09:37.03Z</time></trkpt><trkpt lat="47.27654749066315" lon="-1.602093419061603"><ele>49.0</ele><time>2026-04-20T17:09:38.024Z</time></trkpt><trkpt lat="47.27653789338402" lon="-1.6022349055871388"><ele>49.0</ele><time>2026-04-20T17:09:39.039Z</time></trkpt><trkpt lat="47.27653110404245" lon="-1.6023694351330422"><ele>48.99999999999999</ele><time>2026-04-20T17:09:40.026Z</time></trkpt><trkpt lat="47.27652670354328" lon="-1.6024937387570761"><ele>49.0</ele><time>2026-04-20T17:09:41.026Z</time></trkpt><trkpt lat="47.27653470826081" lon="-1.6026170365527297"><ele>49.0</ele><time>2026-04-20T17:09:42.022Z</time></trkpt><trkpt lat="47.27654837076298" lon="-1.6027508117273475"><ele>49.0</ele><time>2026-04-20T17:09:43.021Z</time></trkpt><trkpt lat="47.276558554775335" lon="-1.6028767079129842"><ele>49.0</ele><time>2026-04-20T17:09:44.021Z</time></trkpt><trkpt lat="47.27657196582041" lon="-1.603010147811475"><ele>49.0</ele><time>2026-04-20T17:09:45.025Z</time></trkpt><trkpt lat="47.27658583787016" lon="-1.6031503770515352"><ele>49.0</ele><time>2026-04-20T17:09:46.028Z</time></trkpt><trkpt lat="47.27659899745814" lon="-1.603280631826821"><ele>49.0</ele><time>2026-04-20T17:09:47.03Z</time></trkpt><trkpt lat="47.27662871130488" lon="-1.6034314222648771"><ele>49.0</ele><time>2026-04-20T17:09:48.023Z</time></trkpt><trkpt lat="47.27664836686782" lon="-1.6035721544191275"><ele>49.0</ele><time>2026-04-20T17:09:49.03Z</time></trkpt><trkpt lat="47.27666789670221" lon="-1.6037035826608572"><ele>49.0</ele><time>2026-04-20T17:09:50.024Z</time></trkpt><trkpt lat="47.27668520533226" lon="-1.6038227733239567"><ele>49.0</ele><time>2026-04-20T17:09:51.025Z</time></trkpt><trkpt lat="47.2767141228982" lon="-1.6039547882989085"><ele>49.0</ele><time>2026-04-20T17:09:52.023Z</time></trkpt><trkpt lat="47.276740274436094" lon="-1.604090491311256"><ele>49.0</ele><time>2026-04-20T17:09:53.028Z</time></trkpt><trkpt lat="47.27676550396464" lon="-1.6042246855810323"><ele>49.0</ele><time>2026-04-20T17:09:54.022Z</time></trkpt><trkpt lat="47.27678704545579" lon="-1.6043633222594897"><ele>49.0</ele><time>2026-04-20T17:09:55.024Z</time></trkpt><trkpt lat="47.276807245842434" lon="-1.6044903919115703"><ele>49.0</ele><time>2026-04-20T17:09:56.022Z</time></trkpt><trkpt lat="47.27683125999502" lon="-1.6046137735262556"><ele>48.400000000000006</ele><time>2026-04-20T17:09:57.033Z</time></trkpt><trkpt lat="47.276841737373985" lon="-1.6047766339048788"><ele>47.8</ele><time>2026-04-20T17:09:58.023Z</time></trkpt><trkpt lat="47.276864913336254" lon="-1.6048874426648065"><ele>47.2</ele><time>2026-04-20T17:09:59.021Z</time></trkpt><trkpt lat="47.276889304674484" lon="-1.6049967426821636"><ele>46.599999999999994</ele><time>2026-04-20T17:10:00.025Z</time></trkpt><trkpt lat="47.27690129079602" lon="-1.6051528975382494"><ele>46.0</ele><time>2026-04-20T17:10:01.047Z</time></trkpt><trkpt lat="47.276916713497855" lon="-1.6052713338300635"><ele>46.66666666666667</ele><time>2026-04-20T17:10:02.025Z</time></trkpt><trkpt lat="47.276908499232746" lon="-1.6053917817786385"><ele>47.333333333333336</ele><time>2026-04-20T17:10:03.019Z</time></trkpt><trkpt lat="47.27690200325779" lon="-1.6055138222888163"><ele>48.0</ele><time>2026-04-20T17:10:04.021Z</time></trkpt><trkpt lat="47.27687212177298" lon="-1.6056486871108464"><ele>48.66666666666667</ele><time>2026-04-20T17:10:05.046Z</time></trkpt><trkpt lat="47.27685045455328" lon="-1.6057703085258657"><ele>49.333333333333336</ele><time>2026-04-20T17:10:06.031Z</time></trkpt><trkpt lat="47.276784991889514" lon="-1.6058837156757766"><ele>50.0</ele><time>2026-04-20T17:10:07.022Z</time></trkpt><trkpt lat="47.27672271434895" lon="-1.6059928480550703"><ele>50.0</ele><time>2026-04-20T17:10:08.024Z</time></trkpt><trkpt lat="47.27667313539169" lon="-1.606108685956901"><ele>50.0</ele><time>2026-04-20T17:10:09.043Z</time></trkpt><trkpt lat="47.27660465524278" lon="-1.606190577150887"><ele>50.0</ele><time>2026-04-20T17:10:10.029Z</time></trkpt><trkpt lat="47.27654606573961" lon="-1.606290154160565"><ele>50.0</ele><time>2026-04-20T17:10:11.027Z</time></trkpt><trkpt lat="47.276485590308226" lon="-1.606394425036019"><ele>50.0</ele><time>2026-04-20T17:10:12.026Z</time></trkpt><trkpt lat="47.27642788090489" lon="-1.6064888890847624"><ele>49.2</ele><time>2026-04-20T17:10:13.027Z</time></trkpt><trkpt lat="47.27636547763578" lon="-1.606595339255041"><ele>48.4</ele><time>2026-04-20T17:10:14.021Z</time></trkpt><trkpt lat="47.276313006921924" lon="-1.6067166253939333"><ele>47.599999999999994</ele><time>2026-04-20T17:10:15.02Z</time></trkpt><trkpt lat="47.2762659006261" lon="-1.6068444494172993"><ele>46.8</ele><time>2026-04-20T17:10:16.022Z</time></trkpt><trkpt lat="47.27620429363779" lon="-1.6069671604797309"><ele>46.0</ele><time>2026-04-20T17:10:17.022Z</time></trkpt><trkpt lat="47.27617068220607" lon="-1.6070963256076043"><ele>45.833333333333336</ele><time>2026-04-20T17:10:18.02Z</time></trkpt><trkpt lat="47.276125336109914" lon="-1.6072087269291349"><ele>45.66666666666667</ele><time>2026-04-20T17:10:19.036Z</time></trkpt><trkpt lat="47.27609361060641" lon="-1.6073333658292956"><ele>45.5</ele><time>2026-04-20T17:10:20.021Z</time></trkpt><trkpt lat="47.27606368721209" lon="-1.6074611898526618"><ele>45.333333333333336</ele><time>2026-04-20T17:10:21.019Z</time></trkpt><trkpt lat="47.276062388017095" lon="-1.6075921151802013"><ele>45.166666666666664</ele><time>2026-04-20T17:10:22.021Z</time></trkpt><trkpt lat="47.2760502342575" lon="-1.6077062767013979"><ele>45.0</ele><time>2026-04-20T17:10:23.055Z</time></trkpt><trkpt lat="47.27602022704414" lon="-1.607825215907402"><ele>45.333333333333336</ele><time>2026-04-20T17:10:24.025Z</time></trkpt><trkpt lat="47.27599709299139" lon="-1.6079466696843578"><ele>45.666666666666664</ele><time>2026-04-20T17:10:25.024Z</time></trkpt><trkpt lat="47.27595631503246" lon="-1.6080622561290934"><ele>46.0</ele><time>2026-04-20T17:10:26.026Z</time></trkpt><trkpt lat="47.275937330021776" lon="-1.6081712208703236"><ele>46.33333333333333</ele><time>2026-04-20T17:10:27.026Z</time></trkpt><trkpt lat="47.27589810271493" lon="-1.6082758270219044"><ele>46.666666666666664</ele><time>2026-04-20T17:10:28.022Z</time></trkpt><trkpt lat="47.27585112214766" lon="-1.6083774995073754"><ele>47.0</ele><time>2026-04-20T17:10:29.025Z</time></trkpt><trkpt lat="47.275806530422784" lon="-1.6084725502893407"><ele>47.0</ele><time>2026-04-20T17:10:30.026Z</time></trkpt><trkpt lat="47.27576788984916" lon="-1.608563242481657"><ele>47.0</ele><time>2026-04-20T17:10:31.037Z</time></trkpt><trkpt lat="47.27571835280142" lon="-1.608659550549098"><ele>47.0</ele><time>2026-04-20T17:10:32.02Z</time></trkpt><trkpt lat="47.2756694024869" lon="-1.6087532602265557"><ele>47.0</ele><time>2026-04-20T17:10:33.027Z</time></trkpt><trkpt lat="47.27563612633131" lon="-1.6088447067901575"><ele>47.0</ele><time>2026-04-20T17:10:34.027Z</time></trkpt><trkpt lat="47.275582021146334" lon="-1.6089310403928243"><ele>47.0</ele><time>2026-04-20T17:10:35.039Z</time></trkpt><trkpt lat="47.275527999780394" lon="-1.6090271808222019"><ele>47.33333333333333</ele><time>2026-04-20T17:10:36.025Z</time></trkpt><trkpt lat="47.275464045859195" lon="-1.6091018635794605"><ele>47.666666666666664</ele><time>2026-04-20T17:10:37.021Z</time></trkpt><trkpt lat="47.275406084998764" lon="-1.6091827489450659"><ele>48.0</ele><time>2026-04-20T17:10:38.019Z</time></trkpt><trkpt lat="47.275352943732656" lon="-1.6092738602325407"><ele>48.33333333333333</ele><time>2026-04-20T17:10:39.047Z</time></trkpt><trkpt lat="47.275294982872225" lon="-1.6093596071019856"><ele>48.666666666666664</ele><time>2026-04-20T17:10:40.028Z</time></trkpt><trkpt lat="47.27523769256405" lon="-1.609448119999477"><ele>49.0</ele><time>2026-04-20T17:10:41.026Z</time></trkpt><trkpt lat="47.275173780552365" lon="-1.6095402371153325"><ele>48.99999999999999</ele><time>2026-04-20T17:10:42.019Z</time></trkpt><trkpt lat="47.27510018744252" lon="-1.60961047746391"><ele>49.0</ele><time>2026-04-20T17:10:43.043Z</time></trkpt><trkpt lat="47.2750338027694" lon="-1.6096889320775956"><ele>49.0</ele><time>2026-04-20T17:10:44.025Z</time></trkpt><trkpt lat="47.274975590451874" lon="-1.6097779478892775"><ele>49.0</ele><time>2026-04-20T17:10:45.021Z</time></trkpt><trkpt lat="47.274907990402795" lon="-1.6098504513517113"><ele>48.99999999999999</ele><time>2026-04-20T17:10:46.021Z</time></trkpt><trkpt lat="47.274841521910645" lon="-1.6099346056595536"><ele>49.0</ele><time>2026-04-20T17:10:47.043Z</time></trkpt><trkpt lat="47.27476763543419" lon="-1.610000235961387"><ele>48.83333333333333</ele><time>2026-04-20T17:10:48.025Z</time></trkpt><trkpt lat="47.27470066402785" lon="-1.6100674588248227"><ele>48.666666666666664</ele><time>2026-04-20T17:10:49.028Z</time></trkpt><trkpt lat="47.27462887302718" lon="-1.6101346816882585"><ele>48.5</ele><time>2026-04-20T17:10:50.028Z</time></trkpt><trkpt lat="47.27458273065022" lon="-1.6102133039400075"><ele>48.33333333333333</ele><time>2026-04-20T17:10:51.036Z</time></trkpt><trkpt lat="47.27450913754038" lon="-1.6103050019607044"><ele>48.166666666666664</ele><time>2026-04-20T17:10:52.024Z</time></trkpt><trkpt lat="47.274457672654904" lon="-1.6103798523560262"><ele>48.0</ele><time>2026-04-20T17:10:53.021Z</time></trkpt><trkpt lat="47.274392712905325" lon="-1.610430562870214"><ele>47.5</ele><time>2026-04-20T17:10:54.02Z</time></trkpt><trkpt lat="47.274332321292974" lon="-1.6105013899520138"><ele>47.0</ele><time>2026-04-20T17:10:55.029Z</time></trkpt><trkpt lat="47.27426539179615" lon="-1.6105644218638637"><ele>46.5</ele><time>2026-04-20T17:10:56.024Z</time></trkpt><trkpt lat="47.27419749838046" lon="-1.6106301359847286"><ele>46.0</ele><time>2026-04-20T17:10:57.019Z</time></trkpt><trkpt lat="47.27415340956978" lon="-1.6107127815500002"><ele>45.5</ele><time>2026-04-20T17:10:58.021Z</time></trkpt><trkpt lat="47.27409440097145" lon="-1.6107703652247887"><ele>45.0</ele><time>2026-04-20T17:10:59.049Z</time></trkpt><trkpt lat="47.27402600464157" lon="-1.6108328104034166"><ele>45.0</ele><time>2026-04-20T17:11:00.034Z</time></trkpt><trkpt lat="47.273970809809185" lon="-1.6108991950765352"><ele>45.0</ele><time>2026-04-20T17:11:01.022Z</time></trkpt><trkpt lat="47.273904634683646" lon="-1.6109649091974003"><ele>45.0</ele><time>2026-04-20T17:11:02.025Z</time></trkpt><trkpt lat="47.27383648981086" lon="-1.6110352333650095"><ele>45.0</ele><time>2026-04-20T17:11:03.043Z</time></trkpt><trkpt lat="47.27377245207063" lon="-1.6110981814578278"><ele>45.0</ele><time>2026-04-20T17:11:04.027Z</time></trkpt><trkpt lat="47.273715664676644" lon="-1.6111819166705117"><ele>45.0</ele><time>2026-04-20T17:11:05.019Z</time></trkpt><trkpt lat="47.27365946401588" lon="-1.611254587771009"><ele>45.166666666666664</ele><time>2026-04-20T17:11:06.033Z</time></trkpt><trkpt lat="47.273600706874646" lon="-1.6113351378604874"><ele>45.333333333333336</ele><time>2026-04-20T17:11:07.019Z</time></trkpt><trkpt lat="47.27353792641989" lon="-1.6114212200060594"><ele>45.5</ele><time>2026-04-20T17:11:08.028Z</time></trkpt><trkpt lat="47.27348671299151" lon="-1.6115217190250861"><ele>45.66666666666667</ele><time>2026-04-20T17:11:09.028Z</time></trkpt><trkpt lat="47.273437930315055" lon="-1.6116155125215756"><ele>45.833333333333336</ele><time>2026-04-20T17:11:10.025Z</time></trkpt><trkpt lat="47.27340297777883" lon="-1.6117027681335916"><ele>46.0</ele><time>2026-04-20T17:11:11.044Z</time></trkpt><trkpt lat="47.27336995308033" lon="-1.611803937704872"><ele>46.0</ele><time>2026-04-20T17:11:12.031Z</time></trkpt><trkpt lat="47.27332645100287" lon="-1.6119115613415949"><ele>46.0</ele><time>2026-04-20T17:11:13.021Z</time></trkpt><trkpt lat="47.27327460893176" lon="-1.6120223701015226"><ele>46.0</ele><time>2026-04-20T17:11:14.023Z</time></trkpt><trkpt lat="47.27323483680121" lon="-1.6121208574637882"><ele>46.0</ele><time>2026-04-20T17:11:15.034Z</time></trkpt><trkpt lat="47.273186515129424" lon="-1.6121952887639517"><ele>46.0</ele><time>2026-04-20T17:11:16.024Z</time></trkpt><trkpt lat="47.27315085013143" lon="-1.6123718116447445"><ele>46.0</ele><time>2026-04-20T17:11:18.018Z</time></trkpt><trkpt lat="47.27310043298385" lon="-1.6124534513816353"><ele>46.0</ele><time>2026-04-20T17:11:19.022Z</time></trkpt><trkpt lat="47.27307285652242" lon="-1.6125701274737831"><ele>46.0</ele><time>2026-04-20T17:11:20.023Z</time></trkpt><trkpt lat="47.27305542216382" lon="-1.6126747336253642"><ele>46.0</ele><time>2026-04-20T17:11:21.034Z</time></trkpt><trkpt lat="47.27303450931541" lon="-1.6127733048066615"><ele>46.0</ele><time>2026-04-20T17:11:22.026Z</time></trkpt><trkpt lat="47.272999850145794" lon="-1.6128830239191772"><ele>46.0</ele><time>2026-04-20T17:11:23.024Z</time></trkpt><trkpt lat="47.27297935639254" lon="-1.6129863727852822"><ele>46.0</ele><time>2026-04-20T17:11:24.02Z</time></trkpt><trkpt lat="47.272958150177516" lon="-1.6130991932019714"><ele>45.833333333333336</ele><time>2026-04-20T17:11:25.038Z</time></trkpt><trkpt lat="47.272931453815914" lon="-1.6131908074036363"><ele>45.66666666666667</ele><time>2026-04-20T17:11:26.036Z</time></trkpt><trkpt lat="47.27290957704864" lon="-1.6132897976800922"><ele>45.5</ele><time>2026-04-20T17:11:27.018Z</time></trkpt><trkpt lat="47.27289314851842" lon="-1.6133983433261638"><ele>45.333333333333336</ele><time>2026-04-20T17:11:28.027Z</time></trkpt><trkpt lat="47.2728690505468" lon="-1.6135058831438547"><ele>45.166666666666664</ele><time>2026-04-20T17:11:29.04Z</time></trkpt><trkpt lat="47.27284742523662" lon="-1.6135974973455198"><ele>45.0</ele><time>2026-04-20T17:11:30.023Z</time></trkpt><trkpt lat="47.27280715019188" lon="-1.6138124093428383"><ele>45.0</ele><time>2026-04-20T17:11:32.026Z</time></trkpt><trkpt lat="47.27278510578654" lon="-1.613915003837658"><ele>45.0</ele><time>2026-04-20T17:11:33.046Z</time></trkpt><trkpt lat="47.27275891233913" lon="-1.6140097193434964"><ele>45.0</ele><time>2026-04-20T17:11:34.027Z</time></trkpt><trkpt lat="47.27273724511943" lon="-1.6141072846964133"><ele>45.0</ele><time>2026-04-20T17:11:35.026Z</time></trkpt><trkpt lat="47.272703298411585" lon="-1.6142020002022517"><ele>45.0</ele><time>2026-04-20T17:11:36.022Z</time></trkpt><trkpt lat="47.27268452294848" lon="-1.6142961289748683"><ele>45.0</ele><time>2026-04-20T17:11:37.037Z</time></trkpt><trkpt lat="47.27263871584765" lon="-1.6144521161928906"><ele>45.2</ele><time>2026-04-20T17:11:39.02Z</time></trkpt><trkpt lat="47.27262014993212" lon="-1.6145876515671747"><ele>45.4</ele><time>2026-04-20T17:11:41.04Z</time></trkpt><trkpt lat="47.272612229033626" lon="-1.6147470753654973"><ele>45.599999999999994</ele><time>2026-04-20T17:11:43.029Z</time></trkpt><trkpt lat="47.27259194482795" lon="-1.6149193234756727"><ele>45.8</ele><time>2026-04-20T17:11:45.037Z</time></trkpt><trkpt lat="47.27257363036952" lon="-1.6150081716492912"><ele>46.0</ele><time>2026-04-20T17:11:46.025Z</time></trkpt><trkpt lat="47.272516633427955" lon="-1.6152027156219027"><ele>46.5</ele><time>2026-04-20T17:11:48.022Z</time></trkpt><trkpt lat="47.27248754822395" lon="-1.6153641510769867"><ele>47.0</ele><time>2026-04-20T17:11:50.018Z</time></trkpt><trkpt lat="47.27245980412445" lon="-1.6154988482609536"><ele>47.5</ele><time>2026-04-20T17:11:52.024Z</time></trkpt><trkpt lat="47.272471496879376" lon="-1.6155967488899972"><ele>48.0</ele><time>2026-04-20T17:11:53.02Z</time></trkpt><trkpt lat="47.272463911257006" lon="-1.615749718622878"><ele>48.49999999999999</ele><time>2026-04-20T17:11:55.018Z</time></trkpt><trkpt lat="47.27244739890776" lon="-1.615841584281638"><ele>49.0</ele><time>2026-04-20T17:11:56.025Z</time></trkpt><trkpt lat="47.27244991347871" lon="-1.6159987449661046"><ele>48.6</ele><time>2026-04-20T17:11:58.027Z</time></trkpt><trkpt lat="47.27243859790943" lon="-1.616175938399151"><ele>48.2</ele><time>2026-04-20T17:12:00.021Z</time></trkpt><trkpt lat="47.2724324372106" lon="-1.616332679988459"><ele>47.800000000000004</ele><time>2026-04-20T17:12:02.021Z</time></trkpt><trkpt lat="47.27241630204699" lon="-1.6164857335403715"><ele>47.400000000000006</ele><time>2026-04-20T17:12:04.024Z</time></trkpt><trkpt lat="47.27243210193447" lon="-1.6165780182942902"><ele>47.0</ele><time>2026-04-20T17:12:05.026Z</time></trkpt><trkpt lat="47.27250171364031" lon="-1.6167013160899437"><ele>47.0</ele><time>2026-04-20T17:12:07.022Z</time></trkpt><trkpt lat="47.27254316215149" lon="-1.6168556269273318"><ele>47.0</ele><time>2026-04-20T17:12:09.021Z</time></trkpt><trkpt lat="47.27257275026969" lon="-1.617010524497942"><ele>47.0</ele><time>2026-04-20T17:12:11.025Z</time></trkpt><trkpt lat="47.272598776079036" lon="-1.6171847004458468"><ele>47.0</ele><time>2026-04-20T17:12:13.022Z</time></trkpt><trkpt lat="47.27262010802261" lon="-1.6172739677146237"><ele>47.0</ele><time>2026-04-20T17:12:14.039Z</time></trkpt><trkpt lat="47.27264408026568" lon="-1.6173837706461711"><ele>46.83333333333333</ele><time>2026-04-20T17:12:15.026Z</time></trkpt><trkpt lat="47.27266620849005" lon="-1.6174830961987539"><ele>46.666666666666664</ele><time>2026-04-20T17:12:16.025Z</time></trkpt><trkpt lat="47.272692066661335" lon="-1.6175857745126052"><ele>46.5</ele><time>2026-04-20T17:12:17.024Z</time></trkpt><trkpt lat="47.27272957567803" lon="-1.6176666598782108"><ele>46.333333333333336</ele><time>2026-04-20T17:12:18.024Z</time></trkpt><trkpt lat="47.27275706832043" lon="-1.6178702563062477"><ele>46.16666666666667</ele><time>2026-04-20T17:12:20.02Z</time></trkpt><trkpt lat="47.27279704999856" lon="-1.6179537400618362"><ele>46.0</ele><time>2026-04-20T17:12:21.022Z</time></trkpt><trkpt lat="47.27281896867535" lon="-1.6180447675302791"><ele>46.0</ele><time>2026-04-20T17:12:22.017Z</time></trkpt><trkpt lat="47.27280291733078" lon="-1.618216261269169"><ele>46.0</ele><time>2026-04-20T17:12:24.029Z</time></trkpt><trkpt lat="47.27280555763028" lon="-1.6183940414354376"><ele>46.0</ele><time>2026-04-20T17:12:26.026Z</time></trkpt><trkpt lat="47.272813688076354" lon="-1.6184867452845149"><ele>46.0</ele><time>2026-04-20T17:12:27.023Z</time></trkpt><trkpt lat="47.27279763673178" lon="-1.6185906808838422"><ele>46.0</ele><time>2026-04-20T17:12:28.026Z</time></trkpt><trkpt lat="47.272796588993884" lon="-1.6187775973245675"><ele>46.0</ele><time>2026-04-20T17:12:30.025Z</time></trkpt><trkpt lat="47.272747093855656" lon="-1.6188556328430947"><ele>46.0</ele><time>2026-04-20T17:12:31.025Z</time></trkpt><trkpt lat="47.27271461398087" lon="-1.618938026951271"><ele>46.0</ele><time>2026-04-20T17:12:32.02Z</time></trkpt><trkpt lat="47.272679535716094" lon="-1.619031652809697"><ele>46.0</ele><time>2026-04-20T17:12:33.026Z</time></trkpt><trkpt lat="47.27264487654648" lon="-1.619124524296838"><ele>46.0</ele><time>2026-04-20T17:12:34.028Z</time></trkpt><trkpt lat="47.2726137377762" lon="-1.6192266158774673"><ele>46.0</ele><time>2026-04-20T17:12:35.022Z</time></trkpt><trkpt lat="47.27257564202628" lon="-1.6193258576110185"><ele>46.0</ele><time>2026-04-20T17:12:36.034Z</time></trkpt><trkpt lat="47.27254680827937" lon="-1.6194225847736181"><ele>45.66666666666667</ele><time>2026-04-20T17:12:37.026Z</time></trkpt><trkpt lat="47.272508125796236" lon="-1.619529621677119"><ele>45.333333333333336</ele><time>2026-04-20T17:12:38.023Z</time></trkpt><trkpt lat="47.27246516854248" lon="-1.6196354012951437"><ele>45.0</ele><time>2026-04-20T17:12:39.031Z</time></trkpt><trkpt lat="47.27242778525434" lon="-1.6197375766948048"><ele>44.666666666666664</ele><time>2026-04-20T17:12:40.02Z</time></trkpt><trkpt lat="47.27239698176018" lon="-1.6198544204250163"><ele>44.33333333333333</ele><time>2026-04-20T17:12:41.021Z</time></trkpt><trkpt lat="47.27237443444065" lon="-1.6199736110881156"><ele>44.0</ele><time>2026-04-20T17:12:42.02Z</time></trkpt><trkpt lat="47.272341200194575" lon="-1.6200744453832694"><ele>44.0</ele><time>2026-04-20T17:12:43.026Z</time></trkpt><trkpt lat="47.27229568646035" lon="-1.620175866411645"><ele>44.0</ele><time>2026-04-20T17:12:44.043Z</time></trkpt><trkpt lat="47.27225972809575" lon="-1.6202673129752467"><ele>44.0</ele><time>2026-04-20T17:12:45.033Z</time></trkpt><trkpt lat="47.27222385355017" lon="-1.6203626990333388"><ele>44.0</ele><time>2026-04-20T17:12:46.021Z</time></trkpt><trkpt lat="47.27216145028106" lon="-1.6205160040423465"><ele>44.0</ele><time>2026-04-20T17:12:48.02Z</time></trkpt><trkpt lat="47.27210239977322" lon="-1.6206708177939249"><ele>42.5</ele><time>2026-04-20T17:12:50.039Z</time></trkpt><trkpt lat="47.27206120271913" lon="-1.6207957919702127"><ele>41.0</ele><time>2026-04-20T17:12:52.02Z</time></trkpt><trkpt lat="47.271987902975894" lon="-1.6208562254920795"><ele>39.5</ele><time>2026-04-20T17:12:54.037Z</time></trkpt><trkpt lat="47.271915650970556" lon="-1.620802162216623"><ele>38.0</ele><time>2026-04-20T17:12:56.021Z</time></trkpt><trkpt lat="47.27189469621263" lon="-1.6206972207889152"><ele>36.5</ele><time>2026-04-20T17:12:58.04Z</time></trkpt><trkpt lat="47.27189695932648" lon="-1.6205826401725603"><ele>35.0</ele><time>2026-04-20T17:13:00.022Z</time></trkpt><trkpt lat="47.271837238266386" lon="-1.6204864997431827"><ele>35.0</ele><time>2026-04-20T17:13:02.048Z</time></trkpt><trkpt lat="47.27176942866973" lon="-1.62039890885504"><ele>35.0</ele><time>2026-04-20T17:13:04.021Z</time></trkpt><trkpt lat="47.271709372333504" lon="-1.6202669776991199"><ele>35.0</ele><time>2026-04-20T17:13:06.043Z</time></trkpt><trkpt lat="47.27162463129244" lon="-1.6201488766834327"><ele>35.0</ele><time>2026-04-20T17:13:08.023Z</time></trkpt><trkpt lat="47.27155937817625" lon="-1.6200102400049754"><ele>35.0</ele><time>2026-04-20T17:13:10.032Z</time></trkpt><trkpt lat="47.27147195492617" lon="-1.6198950726553982"><ele>35.0</ele><time>2026-04-20T17:13:12.022Z</time></trkpt><trkpt lat="47.27140024774454" lon="-1.619775295259077"><ele>35.0</ele><time>2026-04-20T17:13:14.029Z</time></trkpt><trkpt lat="47.27131860800765" lon="-1.6196829266861263"><ele>35.0</ele><time>2026-04-20T17:13:16.022Z</time></trkpt><trkpt lat="47.271240321032025" lon="-1.6195530071869675"><ele>35.0</ele><time>2026-04-20T17:13:18.039Z</time></trkpt><trkpt lat="47.271188520870425" lon="-1.6194587945953192"><ele>35.0</ele><time>2026-04-20T17:13:20.026Z</time></trkpt><trkpt lat="47.27112590805373" lon="-1.6193458903595985"><ele>36.6</ele><time>2026-04-20T17:13:22.029Z</time></trkpt><trkpt lat="47.27106526498429" lon="-1.619211947546917"><ele>38.2</ele><time>2026-04-20T17:13:24.036Z</time></trkpt><trkpt lat="47.27103764661334" lon="-1.6191168129459201"><ele>39.8</ele><time>2026-04-20T17:13:25.022Z</time></trkpt><trkpt lat="47.27100168824873" lon="-1.6189856361612853"><ele>41.4</ele><time>2026-04-20T17:13:27.025Z</time></trkpt><trkpt lat="47.27098588836125" lon="-1.6188551299289045"><ele>43.0</ele><time>2026-04-20T17:13:29.025Z</time></trkpt><trkpt lat="47.27098236796192" lon="-1.6187190078213984"><ele>43.0</ele><time>2026-04-20T17:13:31.02Z</time></trkpt><trkpt lat="47.270926879762925" lon="-1.6186555568143899"><ele>43.0</ele><time>2026-04-20T17:13:34.028Z</time></trkpt><trkpt lat="47.27086271629415" lon="-1.618650527672487"><ele>43.0</ele><time>2026-04-20T17:13:36.03Z</time></trkpt><trkpt lat="47.2707648156651" lon="-1.618649018929916"><ele>43.0</ele><time>2026-04-20T17:13:38.025Z</time></trkpt><trkpt lat="47.27068300829015" lon="-1.618626639248448"><ele>43.0</ele><time>2026-04-20T17:13:40.038Z</time></trkpt><trkpt lat="47.27060933136127" lon="-1.6185372043416075"><ele>43.0</ele><time>2026-04-20T17:13:42.02Z</time></trkpt><trkpt lat="47.270546970001675" lon="-1.618452547119575"><ele>43.16666666666667</ele><time>2026-04-20T17:13:44.03Z</time></trkpt><trkpt lat="47.270493242002345" lon="-1.6183466836825184"><ele>43.333333333333336</ele><time>2026-04-20T17:13:46.028Z</time></trkpt><trkpt lat="47.270449446558274" lon="-1.6182480286821892"><ele>43.5</ele><time>2026-04-20T17:13:48.04Z</time></trkpt><trkpt lat="47.27039869413457" lon="-1.6181593481466343"><ele>43.666666666666664</ele><time>2026-04-20T17:13:50.027Z</time></trkpt><trkpt lat="47.27034094282172" lon="-1.6180572565660047"><ele>43.83333333333333</ele><time>2026-04-20T17:13:52.036Z</time></trkpt><trkpt lat="47.27028662808917" lon="-1.617947621272521"><ele>44.0</ele><time>2026-04-20T17:13:54.025Z</time></trkpt><trkpt lat="47.270229379690505" lon="-1.617855420337634"><ele>44.666666666666664</ele><time>2026-04-20T17:13:56.027Z</time></trkpt><trkpt lat="47.270148745781995" lon="-1.6177700087443159"><ele>45.33333333333333</ele><time>2026-04-20T17:13:58.024Z</time></trkpt><trkpt lat="47.27007645186714" lon="-1.6176694259062574"><ele>46.0</ele><time>2026-04-20T17:14:00.029Z</time></trkpt><trkpt lat="47.27003638636998" lon="-1.6175680886969133"><ele>46.666666666666664</ele><time>2026-04-20T17:14:02.024Z</time></trkpt><trkpt lat="47.269981401085175" lon="-1.6174742952004237"><ele>47.333333333333336</ele><time>2026-04-20T17:14:04.025Z</time></trkpt><trkpt lat="47.26994385015897" lon="-1.617369605229811"><ele>48.0</ele><time>2026-04-20T17:14:06.023Z</time></trkpt><trkpt lat="47.26989858788184" lon="-1.6172577906415027"><ele>48.0</ele><time>2026-04-20T17:14:08.039Z</time></trkpt><trkpt lat="47.26986682046882" lon="-1.6171595547363322"><ele>48.0</ele><time>2026-04-20T17:14:10.02Z</time></trkpt><trkpt lat="47.269839453554965" lon="-1.6170503385380068"><ele>48.0</ele><time>2026-04-20T17:14:12.021Z</time></trkpt><trkpt lat="47.26982101336798" lon="-1.6169352550074616"><ele>48.0</ele><time>2026-04-20T17:14:14.022Z</time></trkpt><trkpt lat="47.26981108081272" lon="-1.6168229375049628"><ele>48.0</ele><time>2026-04-20T17:14:16.018Z</time></trkpt><trkpt lat="47.2698054649376" lon="-1.6166997235283411"><ele>48.0</ele><time>2026-04-20T17:14:18.022Z</time></trkpt><trkpt lat="47.26979716685346" lon="-1.6165687982008015"><ele>48.0</ele><time>2026-04-20T17:14:20.014Z</time></trkpt><trkpt lat="47.26978924595496" lon="-1.616453211756066"><ele>48.0</ele><time>2026-04-20T17:14:22.02Z</time></trkpt><trkpt lat="47.26977688264778" lon="-1.6163354460165056"><ele>48.0</ele><time>2026-04-20T17:14:24.022Z</time></trkpt><trkpt lat="47.26975802336565" lon="-1.6162283252939733"><ele>48.0</ele><time>2026-04-20T17:14:26.041Z</time></trkpt><trkpt lat="47.26973744579336" lon="-1.6161236353233606"><ele>48.0</ele><time>2026-04-20T17:14:28.021Z</time></trkpt><trkpt lat="47.26970647466114" lon="-1.6160190291717798"><ele>48.0</ele><time>2026-04-20T17:14:30.027Z</time></trkpt><trkpt lat="47.26968535226515" lon="-1.615911992268279"><ele>48.333333333333336</ele><time>2026-04-20T17:14:32.022Z</time></trkpt><trkpt lat="47.26967303086749" lon="-1.6158004291370658"><ele>48.66666666666667</ele><time>2026-04-20T17:14:34.031Z</time></trkpt><trkpt lat="47.26965664424679" lon="-1.6156810708359028"><ele>49.0</ele><time>2026-04-20T17:14:36.021Z</time></trkpt><trkpt lat="47.26963849742642" lon="-1.6155601199731375"><ele>49.333333333333336</ele><time>2026-04-20T17:14:38.029Z</time></trkpt><trkpt lat="47.269624164372" lon="-1.6154421865955138"><ele>49.66666666666667</ele><time>2026-04-20T17:14:40.039Z</time></trkpt><trkpt lat="47.269605975642115" lon="-1.6153218224659704"><ele>50.0</ele><time>2026-04-20T17:14:42.018Z</time></trkpt><trkpt lat="47.269587158269495" lon="-1.6152021288886806"><ele>50.50000000000001</ele><time>2026-04-20T17:14:44.018Z</time></trkpt><trkpt lat="47.2695723642104" lon="-1.615085368977501"><ele>51.0</ele><time>2026-04-20T17:14:46.017Z</time></trkpt><trkpt lat="47.26956381466916" lon="-1.6149656754002113"><ele>51.5</ele><time>2026-04-20T17:14:48.022Z</time></trkpt><trkpt lat="47.26954855960539" lon="-1.6148582194015522"><ele>52.0</ele><time>2026-04-20T17:14:50.023Z</time></trkpt><trkpt lat="47.26953690875998" lon="-1.6147288028165834"><ele>52.50000000000001</ele><time>2026-04-20T17:14:52.024Z</time></trkpt><trkpt lat="47.26953368172726" lon="-1.6146039124593274"><ele>53.0</ele><time>2026-04-20T17:14:54.026Z</time></trkpt><trkpt lat="47.2695887508311" lon="-1.614502072335793"><ele>53.16666666666667</ele><time>2026-04-20T17:14:56.02Z</time></trkpt><trkpt lat="47.269641892097205" lon="-1.6143985558316245"><ele>53.333333333333336</ele><time>2026-04-20T17:14:58.017Z</time></trkpt><trkpt lat="47.26970630702308" lon="-1.6143280640259519"><ele>53.5</ele><time>2026-04-20T17:15:00.015Z</time></trkpt><trkpt lat="47.2697793133997" lon="-1.6142802033588424"><ele>53.66666666666667</ele><time>2026-04-20T17:15:02.026Z</time></trkpt><trkpt lat="47.269825330048114" lon="-1.6141885891571772"><ele>53.833333333333336</ele><time>2026-04-20T17:15:04.021Z</time></trkpt><trkpt lat="47.269858983389355" lon="-1.614083815367533"><ele>54.0</ele><time>2026-04-20T17:15:06.02Z</time></trkpt><trkpt lat="47.2698620008745" lon="-1.6139616910383234"><ele>54.0</ele><time>2026-04-20T17:15:08.019Z</time></trkpt><trkpt lat="47.26978979077867" lon="-1.6138450149461756"><ele>54.00000000000001</ele><time>2026-04-20T17:15:10.016Z</time></trkpt><trkpt lat="47.26970701948485" lon="-1.6138061229154597"><ele>54.00000000000001</ele><time>2026-04-20T17:15:12.017Z</time></trkpt><trkpt lat="47.26961574055931" lon="-1.613783575595928"><ele>54.0</ele><time>2026-04-20T17:15:14.029Z</time></trkpt><trkpt lat="47.26953183770856" lon="-1.6137145925328262"><ele>54.0</ele><time>2026-04-20T17:15:16.017Z</time></trkpt><trkpt lat="47.26946566258302" lon="-1.613592719660712"><ele>54.2</ele><time>2026-04-20T17:15:18.023Z</time></trkpt><trkpt lat="47.26941947829655" lon="-1.61344603635521"><ele>54.400000000000006</ele><time>2026-04-20T17:15:20.022Z</time></trkpt><trkpt lat="47.26938586686483" lon="-1.6132623888567212"><ele>54.6</ele><time>2026-04-20T17:15:22.022Z</time></trkpt><trkpt lat="47.2693717852675" lon="-1.613170271740866"><ele>54.8</ele><time>2026-04-20T17:15:23.025Z</time></trkpt><trkpt lat="47.26935451854697" lon="-1.6130161285415412"><ele>55.0</ele><time>2026-04-20T17:15:25.033Z</time></trkpt><trkpt lat="47.26934634619138" lon="-1.6129062417909623"><ele>54.5</ele><time>2026-04-20T17:15:26.017Z</time></trkpt><trkpt lat="47.26931956601074" lon="-1.6127343289569138"><ele>54.0</ele><time>2026-04-20T17:15:28.02Z</time></trkpt><trkpt lat="47.26929462984881" lon="-1.6125588957235333"><ele>53.5</ele><time>2026-04-20T17:15:30.023Z</time></trkpt><trkpt lat="47.26925577972761" lon="-1.6123593226090187"><ele>53.0</ele><time>2026-04-20T17:15:32.025Z</time></trkpt><trkpt lat="47.26922367703846" lon="-1.6122035868480915"><ele>53.00000000000001</ele><time>2026-04-20T17:15:34.02Z</time></trkpt><trkpt lat="47.26917736702344" lon="-1.6120280697956793"><ele>53.0</ele><time>2026-04-20T17:15:36.02Z</time></trkpt><trkpt lat="47.269164752259165" lon="-1.6119332704708091"><ele>53.0</ele><time>2026-04-20T17:15:37.02Z</time></trkpt><trkpt lat="47.26914698262444" lon="-1.6118213720634689"><ele>53.0</ele><time>2026-04-20T17:15:38.018Z</time></trkpt><trkpt lat="47.2691344516792" lon="-1.6117224656060447"><ele>53.00000000000001</ele><time>2026-04-20T17:15:39.017Z</time></trkpt><trkpt lat="47.26912456103346" lon="-1.6116019338384378"><ele>53.0</ele><time>2026-04-20T17:15:40.022Z</time></trkpt><trkpt lat="47.269115424759" lon="-1.6115005128100621"><ele>52.833333333333336</ele><time>2026-04-20T17:15:41.027Z</time></trkpt><trkpt lat="47.269121962643474" lon="-1.611400935800384"><ele>52.66666666666667</ele><time>2026-04-20T17:15:42.024Z</time></trkpt><trkpt lat="47.26911177863112" lon="-1.6112892050311074"><ele>52.5</ele><time>2026-04-20T17:15:43.024Z</time></trkpt><trkpt lat="47.26908696819773" lon="-1.6111930646017298"><ele>52.33333333333333</ele><time>2026-04-20T17:15:44.032Z</time></trkpt><trkpt lat="47.269076616547316" lon="-1.6110908053830368"><ele>52.166666666666664</ele><time>2026-04-20T17:15:45.02Z</time></trkpt><trkpt lat="47.26905348249456" lon="-1.6109358239933949"><ele>52.0</ele><time>2026-04-20T17:15:47.018Z</time></trkpt><trkpt lat="47.2690488305383" lon="-1.6107915714398127"><ele>52.0</ele><time>2026-04-20T17:15:49.031Z</time></trkpt><trkpt lat="47.26899635982445" lon="-1.610717223958681"><ele>52.0</ele><time>2026-04-20T17:15:52.021Z</time></trkpt><trkpt lat="47.268929514146656" lon="-1.610597027467201"><ele>52.0</ele><time>2026-04-20T17:15:55.021Z</time></trkpt><trkpt lat="47.268870840824455" lon="-1.6104608215406633"><ele>52.0</ele><time>2026-04-20T17:15:57.02Z</time></trkpt><trkpt lat="47.26881723855367" lon="-1.6103114560261464"><ele>52.0</ele><time>2026-04-20T17:15:59.021Z</time></trkpt><trkpt lat="47.26880655162713" lon="-1.6101809497937654"><ele>51.8</ele><time>2026-04-20T17:16:01.021Z</time></trkpt><trkpt lat="47.268816777549" lon="-1.6099957097336743"><ele>51.6</ele><time>2026-04-20T17:16:03.019Z</time></trkpt><trkpt lat="47.26881715473464" lon="-1.6098118945971223"><ele>51.4</ele><time>2026-04-20T17:16:05.014Z</time></trkpt><trkpt lat="47.26880789273164" lon="-1.6097199451193303"><ele>51.199999999999996</ele><time>2026-04-20T17:16:06.021Z</time></trkpt><trkpt lat="47.26879519414833" lon="-1.6095399856582373"><ele>51.0</ele><time>2026-04-20T17:16:08.021Z</time></trkpt><trkpt lat="47.268782830841154" lon="-1.6093945596382109"><ele>51.5</ele><time>2026-04-20T17:16:10.026Z</time></trkpt><trkpt lat="47.268795655153006" lon="-1.6092555876836265"><ele>52.0</ele><time>2026-04-20T17:16:12.023Z</time></trkpt><trkpt lat="47.2687546676465" lon="-1.6091405041530813"><ele>52.5</ele><time>2026-04-20T17:16:13.031Z</time></trkpt><trkpt lat="47.26874196906319" lon="-1.6090379096582617"><ele>53.0</ele><time>2026-04-20T17:16:14.02Z</time></trkpt><trkpt lat="47.26869314447722" lon="-1.6089606285110198"><ele>53.5</ele><time>2026-04-20T17:16:15.023Z</time></trkpt><trkpt lat="47.26868627131662" lon="-1.6088091675207101"><ele>54.0</ele><time>2026-04-20T17:16:17.018Z</time></trkpt><trkpt lat="47.26866996851495" lon="-1.6086277831360778"><ele>54.0</ele><time>2026-04-20T17:16:19.023Z</time></trkpt><trkpt lat="47.268637446730644" lon="-1.6083881445244033"><ele>54.0</ele><time>2026-04-20T17:16:21.027Z</time></trkpt><trkpt lat="47.26863346532664" lon="-1.6081944387421088"><ele>54.0</ele><time>2026-04-20T17:16:23.021Z</time></trkpt><trkpt lat="47.26860513449392" lon="-1.6080319974586441"><ele>54.0</ele><time>2026-04-20T17:16:25.021Z</time></trkpt><trkpt lat="47.2685826290839" lon="-1.6079376172289326"><ele>54.0</ele><time>2026-04-20T17:16:26.019Z</time></trkpt><trkpt lat="47.26855614226988" lon="-1.6078375373050642"><ele>54.00000000000001</ele><time>2026-04-20T17:16:27.02Z</time></trkpt><trkpt lat="47.268543737053186" lon="-1.6077316738680076"><ele>54.00000000000001</ele><time>2026-04-20T17:16:28.022Z</time></trkpt><trkpt lat="47.26851691496304" lon="-1.6076377127334547"><ele>54.0</ele><time>2026-04-20T17:16:29.027Z</time></trkpt><trkpt lat="47.268497510857195" lon="-1.6074554901585052"><ele>54.0</ele><time>2026-04-20T17:16:31.023Z</time></trkpt><trkpt lat="47.26845518224618" lon="-1.6072797216489978"><ele>53.800000000000004</ele><time>2026-04-20T17:16:33.036Z</time></trkpt><trkpt lat="47.26841884669593" lon="-1.6071086470052665"><ele>53.60000000000001</ele><time>2026-04-20T17:16:35.031Z</time></trkpt><trkpt lat="47.268408159769386" lon="-1.6069205570980971"><ele>53.4</ele><time>2026-04-20T17:16:37.027Z</time></trkpt><trkpt lat="47.26840484891763" lon="-1.606825087220973"><ele>53.2</ele><time>2026-04-20T17:16:38.019Z</time></trkpt><trkpt lat="47.26840174761346" lon="-1.6067101713284913"><ele>53.0</ele><time>2026-04-20T17:16:39.024Z</time></trkpt><trkpt lat="47.268409794240505" lon="-1.6065560281291664"><ele>53.16666666666667</ele><time>2026-04-20T17:16:40.03Z</time></trkpt><trkpt lat="47.26839143787256" lon="-1.606456283481425"><ele>53.333333333333336</ele><time>2026-04-20T17:16:41.04Z</time></trkpt><trkpt lat="47.26838112813166" lon="-1.6063364222660719"><ele>53.5</ele><time>2026-04-20T17:16:42.027Z</time></trkpt><trkpt lat="47.26836126302114" lon="-1.6062252782300173"><ele>53.66666666666667</ele><time>2026-04-20T17:16:43.025Z</time></trkpt><trkpt lat="47.26834994745186" lon="-1.606110697613662"><ele>53.833333333333336</ele><time>2026-04-20T17:16:44.031Z</time></trkpt><trkpt lat="47.26830954667857" lon="-1.6059961169973072"><ele>54.0</ele><time>2026-04-20T17:16:45.046Z</time></trkpt><trkpt lat="47.26829823110929" lon="-1.6059025749579126"><ele>54.0</ele><time>2026-04-20T17:16:46.031Z</time></trkpt><trkpt lat="47.26829550699076" lon="-1.605807021261757"><ele>54.00000000000001</ele><time>2026-04-20T17:16:47.019Z</time></trkpt><trkpt lat="47.26827819836071" lon="-1.605634940789645"><ele>54.00000000000001</ele><time>2026-04-20T17:16:49.027Z</time></trkpt><trkpt lat="47.268230295784086" lon="-1.6055072844043425"><ele>54.0</ele><time>2026-04-20T17:16:51.017Z</time></trkpt><trkpt lat="47.26818909873" lon="-1.605338891969626"><ele>54.0</ele><time>2026-04-20T17:16:53.033Z</time></trkpt><trkpt lat="47.2681690240719" lon="-1.6052368842080285"><ele>53.0</ele><time>2026-04-20T17:16:54.035Z</time></trkpt><trkpt lat="47.268134909725994" lon="-1.6050286777332472"><ele>52.00000000000001</ele><time>2026-04-20T17:16:56.033Z</time></trkpt><trkpt lat="47.26811613426289" lon="-1.6049180366113827"><ele>51.0</ele><time>2026-04-20T17:16:57.034Z</time></trkpt><trkpt lat="47.268097777894944" lon="-1.604805719108884"><ele>50.0</ele><time>2026-04-20T17:16:58.027Z</time></trkpt><trkpt lat="47.26808424112132" lon="-1.6047094948604745"><ele>49.0</ele><time>2026-04-20T17:16:59.032Z</time></trkpt><trkpt lat="47.26806202907792" lon="-1.6045908909305973"><ele>49.400000000000006</ele><time>2026-04-20T17:17:00.033Z</time></trkpt><trkpt lat="47.268023933328" lon="-1.6044202353820245"><ele>49.8</ele><time>2026-04-20T17:17:02.033Z</time></trkpt><trkpt lat="47.26799849425188" lon="-1.6043291240945499"><ele>50.2</ele><time>2026-04-20T17:17:03.041Z</time></trkpt><trkpt lat="47.267987388230175" lon="-1.6042187344297805"><ele>50.599999999999994</ele><time>2026-04-20T17:17:04.034Z</time></trkpt><trkpt lat="47.267976449846536" lon="-1.604123767466847"><ele>51.0</ele><time>2026-04-20T17:17:05.034Z</time></trkpt><trkpt lat="47.267943592786104" lon="-1.603943472729627"><ele>51.0</ele><time>2026-04-20T17:17:07.04Z</time></trkpt><trkpt lat="47.267901389903635" lon="-1.6038448177292979"><ele>51.0</ele><time>2026-04-20T17:17:08.035Z</time></trkpt><trkpt lat="47.26789070297709" lon="-1.6037444025293026"><ele>51.0</ele><time>2026-04-20T17:17:09.033Z</time></trkpt><trkpt lat="47.26787209515205" lon="-1.6036408022061024"><ele>51.0</ele><time>2026-04-20T17:17:10.035Z</time></trkpt><trkpt lat="47.26784481205723" lon="-1.603553462775055"><ele>51.0</ele><time>2026-04-20T17:17:11.045Z</time></trkpt><trkpt lat="47.26781476293436" lon="-1.603374341504279"><ele>51.0</ele><time>2026-04-20T17:17:13.021Z</time></trkpt><trkpt lat="47.26776811764321" lon="-1.6032167617246538"><ele>51.0</ele><time>2026-04-20T17:17:15.044Z</time></trkpt><trkpt lat="47.26773907434872" lon="-1.6030343715116409"><ele>51.0</ele><time>2026-04-20T17:17:17.015Z</time></trkpt><trkpt lat="47.267686100720674" lon="-1.602890286596122"><ele>51.0</ele><time>2026-04-20T17:17:19.033Z</time></trkpt><trkpt lat="47.26765035190365" lon="-1.6027037892505551"><ele>51.0</ele><time>2026-04-20T17:17:21.035Z</time></trkpt><trkpt lat="47.26763249844989" lon="-1.6025970876231814"><ele>51.0</ele><time>2026-04-20T17:17:22.024Z</time></trkpt><trkpt lat="47.26759926420382" lon="-1.6024190559998177"><ele>50.57142857142857</ele><time>2026-04-20T17:17:24.028Z</time></trkpt><trkpt lat="47.26757453758946" lon="-1.6023312136545798"><ele>50.142857142857146</ele><time>2026-04-20T17:17:25.028Z</time></trkpt><trkpt lat="47.26754017178646" lon="-1.6022297926262041"><ele>49.71428571428571</ele><time>2026-04-20T17:17:26.029Z</time></trkpt><trkpt lat="47.26751112849197" lon="-1.6021420340999981"><ele>49.285714285714285</ele><time>2026-04-20T17:17:27.018Z</time></trkpt><trkpt lat="47.26748304911634" lon="-1.60203952342421"><ele>48.857142857142854</ele><time>2026-04-20T17:17:28.017Z</time></trkpt><trkpt lat="47.26745123979381" lon="-1.6019509267076868"><ele>48.42857142857142</ele><time>2026-04-20T17:17:29.051Z</time></trkpt><trkpt lat="47.267407570078284" lon="-1.601877752692999"><ele>48.0</ele><time>2026-04-20T17:17:30.024Z</time></trkpt><trkpt lat="47.267376598946065" lon="-1.6017937660232202"><ele>47.333333333333336</ele><time>2026-04-20T17:17:31.018Z</time></trkpt><trkpt lat="47.26732848682186" lon="-1.6017203405514375"><ele>46.666666666666664</ele><time>2026-04-20T17:17:32.018Z</time></trkpt><trkpt lat="47.26728506856343" lon="-1.6016475018128769"><ele>46.0</ele><time>2026-04-20T17:17:33.043Z</time></trkpt><trkpt lat="47.26721088872036" lon="-1.601547840984167"><ele>45.33333333333333</ele><time>2026-04-20T17:17:35.02Z</time></trkpt><trkpt lat="47.267183144620866" lon="-1.6014249622836723"><ele>44.666666666666664</ele><time>2026-04-20T17:17:37.044Z</time></trkpt><trkpt lat="47.26720233917913" lon="-1.6012955456987035"><ele>44.0</ele><time>2026-04-20T17:17:39.021Z</time></trkpt><trkpt lat="47.26726650264791" lon="-1.601236788557471"><ele>43.33333333333333</ele><time>2026-04-20T17:17:41.042Z</time></trkpt><trkpt lat="47.26727840495041" lon="-1.601138971747459"><ele>42.666666666666664</ele><time>2026-04-20T17:17:43.022Z</time></trkpt><trkpt lat="47.2672675503858" lon="-1.6010018438115725"><ele>42.0</ele><time>2026-04-20T17:17:45.04Z</time></trkpt><trkpt lat="47.26723804608664" lon="-1.6008914541468031"><ele>41.333333333333336</ele><time>2026-04-20T17:17:47.022Z</time></trkpt><trkpt lat="47.26720405746928" lon="-1.6007653065040715"><ele>40.66666666666667</ele><time>2026-04-20T17:17:49.041Z</time></trkpt><trkpt lat="47.2671250999414" lon="-1.6006785538062458"><ele>40.0</ele><time>2026-04-20T17:17:51.019Z</time></trkpt><trkpt lat="47.267026444941074" lon="-1.6005987580880527"><ele>40.0</ele><time>2026-04-20T17:17:53.021Z</time></trkpt><trkpt lat="47.266959766901344" lon="-1.6005172021701937"><ele>40.0</ele><time>2026-04-20T17:17:55.02Z</time></trkpt><trkpt lat="47.26688810162923" lon="-1.6003970894977453"><ele>40.0</ele><time>2026-04-20T17:17:57.019Z</time></trkpt><trkpt lat="47.26679753516546" lon="-1.600302625449002"><ele>40.0</ele><time>2026-04-20T17:17:59.025Z</time></trkpt><trkpt lat="47.266694060570806" lon="-1.600184189157188"><ele>40.0</ele><time>2026-04-20T17:18:01.02Z</time></trkpt><trkpt lat="47.266646116084665" lon="-1.6001231689020992"><ele>40.0</ele><time>2026-04-20T17:18:02.025Z</time></trkpt><trkpt lat="47.26655592680654" lon="-1.599976234139502"><ele>40.0</ele><time>2026-04-20T17:18:04.018Z</time></trkpt><trkpt lat="47.26649666675112" lon="-1.5999070834383367"><ele>40.0</ele><time>2026-04-20T17:18:05.015Z</time></trkpt><trkpt lat="47.266421816355795" lon="-1.5998303052052854"><ele>40.0</ele><time>2026-04-20T17:18:06.024Z</time></trkpt><trkpt lat="47.266310001767486" lon="-1.599704325200617"><ele>40.0</ele><time>2026-04-20T17:18:08.019Z</time></trkpt><trkpt lat="47.26624089297584" lon="-1.5996434725835915"><ele>39.833333333333336</ele><time>2026-04-20T17:18:09.02Z</time></trkpt><trkpt lat="47.26617002398452" lon="-1.5996048320099707"><ele>39.66666666666667</ele><time>2026-04-20T17:18:10.02Z</time></trkpt><trkpt lat="47.26610368122092" lon="-1.5995476674303408"><ele>39.5</ele><time>2026-04-20T17:18:11.025Z</time></trkpt><trkpt lat="47.2660261905261" lon="-1.5994465816780918"><ele>39.333333333333336</ele><time>2026-04-20T17:18:12.029Z</time></trkpt><trkpt lat="47.265975521921426" lon="-1.5993379522129887"><ele>39.166666666666664</ele><time>2026-04-20T17:18:13.023Z</time></trkpt><trkpt lat="47.26590448529205" lon="-1.5992461703732601"><ele>39.0</ele><time>2026-04-20T17:18:14.025Z</time></trkpt><trkpt lat="47.26582309701225" lon="-1.5991460066303602"><ele>39.0</ele><time>2026-04-20T17:18:15.023Z</time></trkpt><trkpt lat="47.26573659577152" lon="-1.5990364551559082"><ele>39.0</ele><time>2026-04-20T17:18:16.028Z</time></trkpt><trkpt lat="47.26559590552679" lon="-1.598873259501158"><ele>39.0</ele><time>2026-04-20T17:18:18.023Z</time></trkpt><trkpt lat="47.26552952085367" lon="-1.5987821482136835"><ele>39.0</ele><time>2026-04-20T17:18:19.03Z</time></trkpt><trkpt lat="47.265437487556845" lon="-1.5986577607706176"><ele>37.6</ele><time>2026-04-20T17:18:20.032Z</time></trkpt><trkpt lat="47.2653551772677" lon="-1.5985629614457475"><ele>36.2</ele><time>2026-04-20T17:18:21.031Z</time></trkpt><trkpt lat="47.26527546536854" lon="-1.5984479617342338"><ele>34.800000000000004</ele><time>2026-04-20T17:18:22.032Z</time></trkpt><trkpt lat="47.265194580002934" lon="-1.5983236581101998"><ele>33.4</ele><time>2026-04-20T17:18:23.035Z</time></trkpt><trkpt lat="47.26512442347339" lon="-1.5982027072474343"><ele>32.0</ele><time>2026-04-20T17:18:24.026Z</time></trkpt><trkpt lat="47.265053722120136" lon="-1.5980901382878405"><ele>32.0</ele><time>2026-04-20T17:18:25.03Z</time></trkpt><trkpt lat="47.26496847816488" lon="-1.5980258490905146"><ele>32.0</ele><time>2026-04-20T17:18:26.037Z</time></trkpt><trkpt lat="47.264898824549526" lon="-1.5979183092728237"><ele>32.0</ele><time>2026-04-20T17:18:27.028Z</time></trkpt><trkpt lat="47.26483168550512" lon="-1.5978019684568026"><ele>32.0</ele><time>2026-04-20T17:18:28.025Z</time></trkpt><trkpt lat="47.26475893058559" lon="-1.5977078396841862"><ele>32.0</ele><time>2026-04-20T17:18:29.026Z</time></trkpt><trkpt lat="47.264696192040354" lon="-1.5976155549302675"><ele>31.166666666666664</ele><time>2026-04-20T17:18:30.027Z</time></trkpt><trkpt lat="47.26465759337625" lon="-1.597481947393713"><ele>30.333333333333332</ele><time>2026-04-20T17:18:31.033Z</time></trkpt><trkpt lat="47.26459347181699" lon="-1.5973895788207626"><ele>29.5</ele><time>2026-04-20T17:18:32.034Z</time></trkpt><trkpt lat="47.26454598833552" lon="-1.5972829610124204"><ele>28.666666666666664</ele><time>2026-04-20T17:18:33.029Z</time></trkpt><trkpt lat="47.264511538713485" lon="-1.5972015727326248"><ele>27.833333333333332</ele><time>2026-04-20T17:18:34.026Z</time></trkpt><trkpt lat="47.264472395225674" lon="-1.597119346262512"><ele>27.0</ele><time>2026-04-20T17:18:35.023Z</time></trkpt><trkpt lat="47.264361083551556" lon="-1.5970611758545012"><ele>26.666666666666668</ele><time>2026-04-20T17:18:37.029Z</time></trkpt><trkpt lat="47.2642768873342" lon="-1.5969686396434875"><ele>26.333333333333336</ele><time>2026-04-20T17:18:39.037Z</time></trkpt><trkpt lat="47.264242731078774" lon="-1.5968695655479996"><ele>26.0</ele><time>2026-04-20T17:18:40.028Z</time></trkpt><trkpt lat="47.264202749400646" lon="-1.5967547334745495"><ele>25.666666666666668</ele><time>2026-04-20T17:18:41.029Z</time></trkpt><trkpt lat="47.26416230671784" lon="-1.5966798830792277"><ele>25.333333333333336</ele><time>2026-04-20T17:18:42.03Z</time></trkpt><trkpt lat="47.26411348213187" lon="-1.5965969022378292"><ele>25.0</ele><time>2026-04-20T17:18:43.031Z</time></trkpt><trkpt lat="47.26407215934923" lon="-1.5965067129597035"><ele>25.000000000000004</ele><time>2026-04-20T17:18:44.041Z</time></trkpt><trkpt lat="47.26402991455725" lon="-1.5964374784395066"><ele>25.0</ele><time>2026-04-20T17:18:45.029Z</time></trkpt><trkpt lat="47.263994836292476" lon="-1.5963302738979424"><ele>25.0</ele><time>2026-04-20T17:18:46.031Z</time></trkpt><trkpt lat="47.26395959038964" lon="-1.59623438492566"><ele>25.0</ele><time>2026-04-20T17:18:47.033Z</time></trkpt><trkpt lat="47.263914411931545" lon="-1.596162803472575"><ele>25.0</ele><time>2026-04-20T17:18:48.042Z</time></trkpt><trkpt lat="47.263873843520194" lon="-1.5960794873550497"><ele>25.000000000000004</ele><time>2026-04-20T17:18:49.031Z</time></trkpt><trkpt lat="47.26382342637262" lon="-1.5960239153370224"><ele>25.0</ele><time>2026-04-20T17:18:50.029Z</time></trkpt><trkpt lat="47.2637509648197" lon="-1.595935067163404"><ele>25.4</ele><time>2026-04-20T17:18:52.04Z</time></trkpt><trkpt lat="47.26370201450518" lon="-1.595875220374759"><ele>25.8</ele><time>2026-04-20T17:18:53.033Z</time></trkpt><trkpt lat="47.26364040751687" lon="-1.5957665070906242"><ele>26.200000000000003</ele><time>2026-04-20T17:18:55.032Z</time></trkpt><trkpt lat="47.26355579220435" lon="-1.5956570394352037"><ele>26.6</ele><time>2026-04-20T17:18:57.025Z</time></trkpt><trkpt lat="47.263489365621716" lon="-1.5955099370345431"><ele>27.0</ele><time>2026-04-20T17:18:59.025Z</time></trkpt><trkpt lat="47.26341614969751" lon="-1.595381191001828"><ele>27.6</ele><time>2026-04-20T17:19:01.022Z</time></trkpt><trkpt lat="47.26338140670887" lon="-1.5953010600075082"><ele>28.200000000000003</ele><time>2026-04-20T17:19:02.02Z</time></trkpt><trkpt lat="47.26332067982039" lon="-1.5951845515534235"><ele>28.8</ele><time>2026-04-20T17:19:04.021Z</time></trkpt><trkpt lat="47.26327646528116" lon="-1.5950632654145314"><ele>29.4</ele><time>2026-04-20T17:19:06.023Z</time></trkpt><trkpt lat="47.26321280472657" lon="-1.5949510317310642"><ele>30.0</ele><time>2026-04-20T17:19:08.017Z</time></trkpt><trkpt lat="47.26315848999402" lon="-1.5948158316329073"><ele>29.833333333333332</ele><time>2026-04-20T17:19:10.018Z</time></trkpt><trkpt lat="47.26309906230053" lon="-1.5946925338372537"><ele>29.666666666666664</ele><time>2026-04-20T17:19:12.018Z</time></trkpt><trkpt lat="47.26304914806715" lon="-1.5945769473925182"><ele>29.5</ele><time>2026-04-20T17:19:14.028Z</time></trkpt><trkpt lat="47.263002335137934" lon="-1.5945085510626384"><ele>29.333333333333332</ele><time>2026-04-20T17:19:15.024Z</time></trkpt><trkpt lat="47.262948900505215" lon="-1.594455325977499"><ele>29.166666666666664</ele><time>2026-04-20T17:19:16.031Z</time></trkpt><trkpt lat="47.26290401541373" lon="-1.5943279210492916"><ele>29.0</ele><time>2026-04-20T17:19:18.023Z</time></trkpt><trkpt lat="47.262823758690864" lon="-1.5942005999401156"><ele>28.999999999999996</ele><time>2026-04-20T17:19:20.018Z</time></trkpt><trkpt lat="47.26277480837634" lon="-1.5940961614265983"><ele>29.0</ele><time>2026-04-20T17:19:22.028Z</time></trkpt><trkpt lat="47.26277329963377" lon="-1.5939740370973887"><ele>29.0</ele><time>2026-04-20T17:19:24.019Z</time></trkpt><trkpt lat="47.26273688026449" lon="-1.593860881404573"><ele>29.0</ele><time>2026-04-20T17:19:28.021Z</time></trkpt><trkpt lat="47.262687762311906" lon="-1.5938027109965625"><ele>28.999999999999996</ele><time>2026-04-20T17:19:31.022Z</time></trkpt><trkpt lat="47.262631226375014" lon="-1.5937557723388016"><ele>29.0</ele><time>2026-04-20T17:19:33.018Z</time></trkpt><trkpt lat="47.26255889055064" lon="-1.5937099233284533"><ele>29.4</ele><time>2026-04-20T17:19:35.028Z</time></trkpt><trkpt lat="47.262509185864836" lon="-1.5936363302186072"><ele>29.799999999999997</ele><time>2026-04-20T17:19:36.04Z</time></trkpt><trkpt lat="47.26245742761275" lon="-1.5935310535147724"><ele>30.200000000000003</ele><time>2026-04-20T17:19:38.019Z</time></trkpt><trkpt lat="47.26240017921409" lon="-1.5934137906894026"><ele>30.6</ele><time>2026-04-20T17:19:40.026Z</time></trkpt><trkpt lat="47.2623425955393" lon="-1.5932788420483406"><ele>31.0</ele><time>2026-04-20T17:19:42.023Z</time></trkpt><trkpt lat="47.26228505377403" lon="-1.5931684523835714"><ele>30.666666666666668</ele><time>2026-04-20T17:19:44.034Z</time></trkpt><trkpt lat="47.262254753194064" lon="-1.5930818673238094"><ele>30.333333333333336</ele><time>2026-04-20T17:19:45.017Z</time></trkpt><trkpt lat="47.26222432688555" lon="-1.592990336941176"><ele>30.0</ele><time>2026-04-20T17:19:47.02Z</time></trkpt><trkpt lat="47.2621724009954" lon="-1.592869302259379"><ele>29.666666666666664</ele><time>2026-04-20T17:19:49.024Z</time></trkpt><trkpt lat="47.26213271268388" lon="-1.592787662522488"><ele>29.333333333333332</ele><time>2026-04-20T17:19:51.019Z</time></trkpt><trkpt lat="47.26209294055333" lon="-1.5926199406400254"><ele>29.0</ele><time>2026-04-20T17:19:53.031Z</time></trkpt><trkpt lat="47.26207638629457" lon="-1.5925124008223344"><ele>28.999999999999996</ele><time>2026-04-20T17:19:56.04Z</time></trkpt><trkpt lat="47.26203686562111" lon="-1.5924066212043095"><ele>29.0</ele><time>2026-04-20T17:19:58.019Z</time></trkpt><trkpt lat="47.2620045952939" lon="-1.5923000033959673"><ele>29.0</ele><time>2026-04-20T17:20:00.019Z</time></trkpt><trkpt lat="47.26198020395567" lon="-1.5921813156470583"><ele>29.0</ele><time>2026-04-20T17:20:02.019Z</time></trkpt><trkpt lat="47.261966834820115" lon="-1.5920891147121712"><ele>28.999999999999996</ele><time>2026-04-20T17:20:04.029Z</time></trkpt><trkpt lat="47.261936073235475" lon="-1.5919864363983198"><ele>29.0</ele><time>2026-04-20T17:20:06.017Z</time></trkpt><trkpt lat="47.261886913373374" lon="-1.5918809920564219"><ele>29.333333333333332</ele><time>2026-04-20T17:20:08.024Z</time></trkpt><trkpt lat="47.2618399328061" lon="-1.5917997714146894"><ele>29.666666666666664</ele><time>2026-04-20T17:20:09.02Z</time></trkpt><trkpt lat="47.26179345515301" lon="-1.5917070675656122"><ele>30.0</ele><time>2026-04-20T17:20:10.032Z</time></trkpt><trkpt lat="47.2617294593223" lon="-1.5915927384063522"><ele>30.333333333333336</ele><time>2026-04-20T17:20:12.02Z</time></trkpt><trkpt lat="47.261678371622466" lon="-1.5915186423823158"><ele>30.666666666666668</ele><time>2026-04-20T17:20:13.019Z</time></trkpt><trkpt lat="47.26163654592564" lon="-1.591444378720216"><ele>31.0</ele><time>2026-04-20T17:20:14.02Z</time></trkpt><trkpt lat="47.2615550319173" lon="-1.5912821050748147"><ele>31.000000000000004</ele><time>2026-04-20T17:20:16.016Z</time></trkpt><trkpt lat="47.26158353038808" lon="-1.5911357570454394"><ele>31.0</ele><time>2026-04-20T17:20:18.017Z</time></trkpt><trkpt lat="47.26153994449159" lon="-1.5910386107876813"><ele>31.0</ele><time>2026-04-20T17:20:19.02Z</time></trkpt><trkpt lat="47.26148407910695" lon="-1.5909053385272536"><ele>31.0</ele><time>2026-04-20T17:20:21.021Z</time></trkpt><trkpt lat="47.26146320816805" lon="-1.5907934401199135"><ele>31.000000000000004</ele><time>2026-04-20T17:20:22.016Z</time></trkpt><trkpt lat="47.26143684708258" lon="-1.5906889177873644"><ele>31.0</ele><time>2026-04-20T17:20:23.02Z</time></trkpt><trkpt lat="47.2613806045123" lon="-1.5905013307943852"><ele>31.0</ele><time>2026-04-20T17:20:25.02Z</time></trkpt><trkpt lat="47.2613552492552" lon="-1.5904060285553245"><ele>31.0</ele><time>2026-04-20T17:20:26.02Z</time></trkpt><trkpt lat="47.26132079963317" lon="-1.59032078460007"><ele>31.0</ele><time>2026-04-20T17:20:27.02Z</time></trkpt><trkpt lat="47.261294438547694" lon="-1.5901440940812137"><ele>31.0</ele><time>2026-04-20T17:20:29.024Z</time></trkpt><trkpt lat="47.26127545353701" lon="-1.5899942256525066"><ele>31.0</ele><time>2026-04-20T17:20:31.015Z</time></trkpt><trkpt lat="47.2612466197901" lon="-1.5898651443436647"><ele>31.166666666666668</ele><time>2026-04-20T17:20:32.033Z</time></trkpt><trkpt lat="47.261215313381754" lon="-1.5897146053627036"><ele>31.333333333333336</ele><time>2026-04-20T17:20:34.014Z</time></trkpt><trkpt lat="47.26119716656139" lon="-1.5895759686842463"><ele>31.5</ele><time>2026-04-20T17:20:36.021Z</time></trkpt><trkpt lat="47.26118928757241" lon="-1.5894641540959378"><ele>31.666666666666664</ele><time>2026-04-20T17:20:38.013Z</time></trkpt><trkpt lat="47.26117751099845" lon="-1.5893421974047919"><ele>31.833333333333332</ele><time>2026-04-20T17:20:40.025Z</time></trkpt><trkpt lat="47.26114532449027" lon="-1.589246476070573"><ele>32.0</ele><time>2026-04-20T17:20:41.026Z</time></trkpt><trkpt lat="47.261125962293946" lon="-1.589122675360729"><ele>32.5</ele><time>2026-04-20T17:20:43.015Z</time></trkpt><trkpt lat="47.261120304509305" lon="-1.5889942646041408"><ele>33.0</ele><time>2026-04-20T17:20:45.024Z</time></trkpt><trkpt lat="47.26111531727692" lon="-1.5888675302281872"><ele>33.5</ele><time>2026-04-20T17:20:47.02Z</time></trkpt><trkpt lat="47.26110668391665" lon="-1.588746160270263"><ele>34.0</ele><time>2026-04-20T17:20:49.02Z</time></trkpt><trkpt lat="47.261108276478254" lon="-1.5886147320285333"><ele>34.5</ele><time>2026-04-20T17:20:51.019Z</time></trkpt><trkpt lat="47.261111713058554" lon="-1.5884956251844655"><ele>35.0</ele><time>2026-04-20T17:20:53.018Z</time></trkpt><trkpt lat="47.26110504944553" lon="-1.5883731655791293"><ele>35.5</ele><time>2026-04-20T17:20:55.023Z</time></trkpt><trkpt lat="47.26108191539278" lon="-1.5882510412499198"><ele>36.0</ele><time>2026-04-20T17:20:57.02Z</time></trkpt><trkpt lat="47.26106490012934" lon="-1.588120535017539"><ele>36.5</ele><time>2026-04-20T17:20:59.015Z</time></trkpt><trkpt lat="47.26104641803285" lon="-1.5879929624512679"><ele>37.0</ele><time>2026-04-20T17:21:01.019Z</time></trkpt><trkpt lat="47.26102320016106" lon="-1.5878758672639615"><ele>37.5</ele><time>2026-04-20T17:21:03.016Z</time></trkpt><trkpt lat="47.26100027565589" lon="-1.587766399608541"><ele>38.0</ele><time>2026-04-20T17:21:05.016Z</time></trkpt><trkpt lat="47.26097110663285" lon="-1.5876623801901821"><ele>38.0</ele><time>2026-04-20T17:21:07.019Z</time></trkpt><trkpt lat="47.26094998423686" lon="-1.5875619649901869"><ele>38.0</ele><time>2026-04-20T17:21:09.014Z</time></trkpt><trkpt lat="47.26093229842117" lon="-1.5874593704953672"><ele>38.0</ele><time>2026-04-20T17:21:11.016Z</time></trkpt><trkpt lat="47.2609183844619" lon="-1.5873547643437864"><ele>38.0</ele><time>2026-04-20T17:21:13.023Z</time></trkpt><trkpt lat="47.26090271030297" lon="-1.5872504934683322"><ele>38.0</ele><time>2026-04-20T17:21:15.014Z</time></trkpt><trkpt lat="47.26087362509897" lon="-1.5871470607831955"><ele>38.0</ele><time>2026-04-20T17:21:17.014Z</time></trkpt><trkpt lat="47.26085313134571" lon="-1.5870458912119147"><ele>38.0</ele><time>2026-04-20T17:21:19.02Z</time></trkpt><trkpt lat="47.26084030703386" lon="-1.5869396086796996"><ele>38.166666666666664</ele><time>2026-04-20T17:21:21.016Z</time></trkpt><trkpt lat="47.260831757492625" lon="-1.586828129367518"><ele>38.33333333333333</ele><time>2026-04-20T17:21:23.017Z</time></trkpt><trkpt lat="47.2608211124756" lon="-1.5867101121708627"><ele>38.5</ele><time>2026-04-20T17:21:25.026Z</time></trkpt><trkpt lat="47.260813945948385" lon="-1.5865913406029217"><ele>38.666666666666664</ele><time>2026-04-20T17:21:27.024Z</time></trkpt><trkpt lat="47.26082069338044" lon="-1.5864668693408244"><ele>38.833333333333336</ele><time>2026-04-20T17:21:29.022Z</time></trkpt><trkpt lat="47.26083921738645" lon="-1.5863369498416653"><ele>39.0</ele><time>2026-04-20T17:21:31.028Z</time></trkpt><trkpt lat="47.26086440500548" lon="-1.586203929038333"><ele>39.0</ele><time>2026-04-20T17:21:33.026Z</time></trkpt><trkpt lat="47.26089981854638" lon="-1.5860708244159687"><ele>39.0</ele><time>2026-04-20T17:21:35.025Z</time></trkpt><trkpt lat="47.26095677357843" lon="-1.5859958902016151"><ele>39.0</ele><time>2026-04-20T17:21:36.019Z</time></trkpt><trkpt lat="47.26100450851699" lon="-1.5858866740032898"><ele>39.0</ele><time>2026-04-20T17:21:38.015Z</time></trkpt><trkpt lat="47.261067959524" lon="-1.5857768710717426"><ele>39.0</ele><time>2026-04-20T17:21:40.013Z</time></trkpt><trkpt lat="47.26112600420346" lon="-1.5856705047204958"><ele>39.0</ele><time>2026-04-20T17:21:42.025Z</time></trkpt><trkpt lat="47.26119888485154" lon="-1.5855633839979633"><ele>39.0</ele><time>2026-04-20T17:21:44.018Z</time></trkpt><trkpt lat="47.26129355844786" lon="-1.5855368133649095"><ele>39.0</ele><time>2026-04-20T17:21:46.02Z</time></trkpt><trkpt lat="47.26135537498375" lon="-1.5855791419759258"><ele>39.0</ele><time>2026-04-20T17:21:48.019Z</time></trkpt><trkpt lat="47.26139644630929" lon="-1.5854869410410388"><ele>39.0</ele><time>2026-04-20T17:21:52.018Z</time></trkpt><trkpt lat="47.261366271457874" lon="-1.5853910520687562"><ele>39.0</ele><time>2026-04-20T17:21:54.018Z</time></trkpt><trkpt lat="47.26131518375804" lon="-1.5852970909342032"><ele>39.4</ele><time>2026-04-20T17:21:56.017Z</time></trkpt><trkpt lat="47.26126279686322" lon="-1.5852095838650924"><ele>39.8</ele><time>2026-04-20T17:21:58.016Z</time></trkpt><trkpt lat="47.261206093288266" lon="-1.5850858669742802"><ele>40.199999999999996</ele><time>2026-04-20T17:22:00.017Z</time></trkpt><trkpt lat="47.26112692621281" lon="-1.5850131120547513"><ele>40.599999999999994</ele><time>2026-04-20T17:22:02.017Z</time></trkpt><trkpt lat="47.26103627593001" lon="-1.5849419496968247"><ele>41.0</ele><time>2026-04-20T17:22:04.017Z</time></trkpt><trkpt lat="47.260946799113654" lon="-1.5848867129549242"><ele>41.0</ele><time>2026-04-20T17:22:06.016Z</time></trkpt><trkpt lat="47.26084579718044" lon="-1.5848221723005034"><ele>41.0</ele><time>2026-04-20T17:22:08.019Z</time></trkpt><trkpt lat="47.26073427595874" lon="-1.5847991220667816"><ele>41.0</ele><time>2026-04-20T17:22:10.022Z</time></trkpt><trkpt lat="47.260629921264254" lon="-1.5847862977549292"><ele>41.0</ele><time>2026-04-20T17:22:12.019Z</time></trkpt><trkpt lat="47.260563327043556" lon="-1.584770455957935"><ele>41.0</ele><time>2026-04-20T17:22:13.018Z</time></trkpt><trkpt lat="47.26047883745959" lon="-1.5847261995091892"><ele>41.166666666666664</ele><time>2026-04-20T17:22:15.017Z</time></trkpt><trkpt lat="47.2604487464272" lon="-1.584598124028728"><ele>41.33333333333333</ele><time>2026-04-20T17:22:17.018Z</time></trkpt><trkpt lat="47.26041274615308" lon="-1.5844440646484348"><ele>41.5</ele><time>2026-04-20T17:22:19.023Z</time></trkpt><trkpt lat="47.260384666777455" lon="-1.5843461640193912"><ele>41.666666666666664</ele><time>2026-04-20T17:22:20.018Z</time></trkpt><trkpt lat="47.2603591438823" lon="-1.584259914235756"><ele>41.833333333333336</ele><time>2026-04-20T17:22:21.02Z</time></trkpt><trkpt lat="47.26034212861886" lon="-1.5841337665930242"><ele>42.0</ele><time>2026-04-20T17:22:23.017Z</time></trkpt><trkpt lat="47.26033269897779" lon="-1.5840290766224117"><ele>42.0</ele><time>2026-04-20T17:22:24.024Z</time></trkpt><trkpt lat="47.26032318551769" lon="-1.5839300863459556"><ele>42.0</ele><time>2026-04-20T17:22:25.022Z</time></trkpt><trkpt lat="47.26031199567696" lon="-1.583825396375343"><ele>42.0</ele><time>2026-04-20T17:22:26.019Z</time></trkpt><trkpt lat="47.26031224713405" lon="-1.5836435928955521"><ele>42.0</ele><time>2026-04-20T17:22:28.029Z</time></trkpt><trkpt lat="47.26029707588931" lon="-1.58355114050357"><ele>42.0</ele><time>2026-04-20T17:22:29.022Z</time></trkpt><trkpt lat="47.26028320383956" lon="-1.5834531560554945"><ele>42.0</ele><time>2026-04-20T17:22:30.019Z</time></trkpt><trkpt lat="47.260259524963104" lon="-1.5833535790458166"><ele>41.8</ele><time>2026-04-20T17:22:31.022Z</time></trkpt><trkpt lat="47.26024573673239" lon="-1.583260959015771"><ele>41.6</ele><time>2026-04-20T17:22:32.024Z</time></trkpt><trkpt lat="47.26023689382454" lon="-1.5831111744060955"><ele>41.4</ele><time>2026-04-20T17:22:34.016Z</time></trkpt><trkpt lat="47.26022738036444" lon="-1.5829270239934166"><ele>41.199999999999996</ele><time>2026-04-20T17:22:36.026Z</time></trkpt><trkpt lat="47.260225201069616" lon="-1.5827491600081163"><ele>41.0</ele><time>2026-04-20T17:22:38.02Z</time></trkpt><trkpt lat="47.26022574589332" lon="-1.5825969446465211"><ele>40.8</ele><time>2026-04-20T17:22:40.021Z</time></trkpt><trkpt lat="47.260225326798164" lon="-1.5824147220715716"><ele>40.599999999999994</ele><time>2026-04-20T17:22:42.013Z</time></trkpt><trkpt lat="47.260221261575126" lon="-1.582255801187439"><ele>40.4</ele><time>2026-04-20T17:22:44.019Z</time></trkpt><trkpt lat="47.26017922633072" lon="-1.5821169130518866"><ele>40.2</ele><time>2026-04-20T17:22:46.013Z</time></trkpt><trkpt lat="47.260137987367116" lon="-1.581967128442211"><ele>40.0</ele><time>2026-04-20T17:22:48.016Z</time></trkpt><trkpt lat="47.26011032708665" lon="-1.5817876718953081"><ele>39.8</ele><time>2026-04-20T17:22:50.003Z</time></trkpt><trkpt lat="47.260080529420875" lon="-1.581698488445563"><ele>39.6</ele><time>2026-04-20T17:22:51.01Z</time></trkpt><trkpt lat="47.26000437983056" lon="-1.5815572533771223"><ele>39.4</ele><time>2026-04-20T17:22:53.006Z</time></trkpt><trkpt lat="47.25990069568833" lon="-1.581493718551082"><ele>39.2</ele><time>2026-04-20T17:22:54.994Z</time></trkpt><trkpt lat="47.259798855564796" lon="-1.5814307704582637"><ele>39.0</ele><time>2026-04-20T17:22:56.994Z</time></trkpt><trkpt lat="47.259754347658955" lon="-1.5813638828709546"><ele>39.0</ele><time>2026-04-20T17:22:57.991Z</time></trkpt><trkpt lat="47.25965745285829" lon="-1.5812942292555991"><ele>39.0</ele><time>2026-04-20T17:22:59.983Z</time></trkpt><trkpt lat="47.25954718892207" lon="-1.5812596119955007"><ele>39.0</ele><time>2026-04-20T17:23:01.99Z</time></trkpt><trkpt lat="47.259440613023244" lon="-1.5812045428916637"><ele>39.0</ele><time>2026-04-20T17:23:03.992Z</time></trkpt><trkpt lat="47.25938592110505" lon="-1.5811417624369088"><ele>39.0</ele><time>2026-04-20T17:23:04.999Z</time></trkpt><trkpt lat="47.25927846510639" lon="-1.5810352284475984"><ele>39.0</ele><time>2026-04-20T17:23:06.977Z</time></trkpt><trkpt lat="47.259171679659985" lon="-1.5809439495220603"><ele>39.0</ele><time>2026-04-20T17:23:08.998Z</time></trkpt><trkpt lat="47.25906925280323" lon="-1.5808473061784922"><ele>39.0</ele><time>2026-04-20T17:23:10.982Z</time></trkpt><trkpt lat="47.25901342932811" lon="-1.5807912312462746"><ele>39.0</ele><time>2026-04-20T17:23:11.978Z</time></trkpt><trkpt lat="47.258958402133786" lon="-1.5807385090753256"><ele>39.0</ele><time>2026-04-20T17:23:13.001Z</time></trkpt><trkpt lat="47.258844994983875" lon="-1.5806593000903544"><ele>39.0</ele><time>2026-04-20T17:23:14.978Z</time></trkpt><trkpt lat="47.258790261156165" lon="-1.5805895626559672"><ele>39.0</ele><time>2026-04-20T17:23:15.979Z</time></trkpt><trkpt lat="47.25868175741961" lon="-1.580490069465321"><ele>39.0</ele><time>2026-04-20T17:23:17.98Z</time></trkpt><trkpt lat="47.25862719122996" lon="-1.58043969422726"><ele>39.0</ele><time>2026-04-20T17:23:18.984Z</time></trkpt><trkpt lat="47.25857392423531" lon="-1.5803863853230888"><ele>39.0</ele><time>2026-04-20T17:23:19.981Z</time></trkpt><trkpt lat="47.258490985303425" lon="-1.5802924241885359"><ele>39.0</ele><time>2026-04-20T17:23:21.981Z</time></trkpt><trkpt lat="47.25842770193448" lon="-1.5802217647447998"><ele>38.8</ele><time>2026-04-20T17:23:22.975Z</time></trkpt><trkpt lat="47.25836508911779" lon="-1.5801657736316137"><ele>38.599999999999994</ele><time>2026-04-20T17:23:23.975Z</time></trkpt><trkpt lat="47.258310397199594" lon="-1.5801042504623346"><ele>38.4</ele><time>2026-04-20T17:23:24.974Z</time></trkpt><trkpt lat="47.258249879858695" lon="-1.58004490658788"><ele>38.199999999999996</ele><time>2026-04-20T17:23:25.979Z</time></trkpt><trkpt lat="47.25814347159793" lon="-1.5799318347140958"><ele>38.0</ele><time>2026-04-20T17:23:27.975Z</time></trkpt><trkpt lat="47.25803748243233" lon="-1.57983871176986"><ele>38.0</ele><time>2026-04-20T17:23:29.979Z</time></trkpt><trkpt lat="47.25797780328175" lon="-1.5797728300109317"><ele>38.0</ele><time>2026-04-20T17:23:30.98Z</time></trkpt><trkpt lat="47.25792432673951" lon="-1.5797198563828876"><ele>38.0</ele><time>2026-04-20T17:23:31.977Z</time></trkpt><trkpt lat="47.257868251807295" lon="-1.5796693973257947"><ele>38.0</ele><time>2026-04-20T17:23:32.989Z</time></trkpt><trkpt lat="47.25781238642266" lon="-1.5796201955541778"><ele>38.0</ele><time>2026-04-20T17:23:33.981Z</time></trkpt><trkpt lat="47.25770208057692" lon="-1.579540316016953"><ele>38.0</ele><time>2026-04-20T17:23:35.974Z</time></trkpt><trkpt lat="47.25764692765405" lon="-1.579488767312448"><ele>38.0</ele><time>2026-04-20T17:23:36.996Z</time></trkpt><trkpt lat="47.25758846387943" lon="-1.5794378891601966"><ele>38.0</ele><time>2026-04-20T17:23:37.977Z</time></trkpt><trkpt lat="47.2575011663579" lon="-1.579388603569548"><ele>38.0</ele><time>2026-04-20T17:23:39.975Z</time></trkpt><trkpt lat="47.25744609725406" lon="-1.5793430060162947"><ele>38.0</ele><time>2026-04-20T17:23:40.998Z</time></trkpt><trkpt lat="47.25738985468378" lon="-1.5792916249498532"><ele>38.0</ele><time>2026-04-20T17:23:41.976Z</time></trkpt><trkpt lat="47.257330301261746" lon="-1.579260779546182"><ele>38.0</ele><time>2026-04-20T17:23:42.972Z</time></trkpt><trkpt lat="47.257267185530864" lon="-1.5792084764703913"><ele>38.0</ele><time>2026-04-20T17:23:43.974Z</time></trkpt><trkpt lat="47.25717649333855" lon="-1.5791092347368403"><ele>38.166666666666664</ele><time>2026-04-20T17:23:45.974Z</time></trkpt><trkpt lat="47.25712251388212" lon="-1.5790611226126356"><ele>38.33333333333333</ele><time>2026-04-20T17:23:46.97Z</time></trkpt><trkpt lat="47.25702126049181" lon="-1.5789527446046274"><ele>38.5</ele><time>2026-04-20T17:23:49.005Z</time></trkpt><trkpt lat="47.256969627968274" lon="-1.578898094595949"><ele>38.666666666666664</ele><time>2026-04-20T17:23:49.981Z</time></trkpt><trkpt lat="47.25690525495192" lon="-1.5788611304029625"><ele>38.833333333333336</ele><time>2026-04-20T17:23:50.976Z</time></trkpt><trkpt lat="47.25682307039132" lon="-1.5787637326881092"><ele>39.0</ele><time>2026-04-20T17:23:52.994Z</time></trkpt><trkpt lat="47.25676971957763" lon="-1.5786887146547237"><ele>39.0</ele><time>2026-04-20T17:23:53.977Z</time></trkpt><trkpt lat="47.25665484559467" lon="-1.5786021295949617"><ele>39.0</ele><time>2026-04-20T17:23:55.973Z</time></trkpt><trkpt lat="47.25653787613591" lon="-1.5785650815829435"><ele>39.0</ele><time>2026-04-20T17:23:57.975Z</time></trkpt><trkpt lat="47.256454937204026" lon="-1.5785264410093227"><ele>39.0</ele><time>2026-04-20T17:23:59.975Z</time></trkpt><trkpt lat="47.25639877845278" lon="-1.5784722939148343"><ele>39.0</ele><time>2026-04-20T17:24:00.985Z</time></trkpt><trkpt lat="47.25630293139001" lon="-1.5784060768797792"><ele>39.2</ele><time>2026-04-20T17:24:02.968Z</time></trkpt><trkpt lat="47.256248951933586" lon="-1.5783417038634218"><ele>39.4</ele><time>2026-04-20T17:24:03.974Z</time></trkpt><trkpt lat="47.25616127722641" lon="-1.578238774092475"><ele>39.6</ele><time>2026-04-20T17:24:05.977Z</time></trkpt><trkpt lat="47.25606211931189" lon="-1.5781590621933137"><ele>39.8</ele><time>2026-04-20T17:24:07.974Z</time></trkpt><trkpt lat="47.255965978882514" lon="-1.5780866425499116"><ele>40.0</ele><time>2026-04-20T17:24:09.974Z</time></trkpt><trkpt lat="47.255901312499546" lon="-1.5780369378641042"><ele>40.0</ele><time>2026-04-20T17:24:10.973Z</time></trkpt><trkpt lat="47.255845698572" lon="-1.577986059711853"><ele>40.0</ele><time>2026-04-20T17:24:11.968Z</time></trkpt><trkpt lat="47.255754922560655" lon="-1.5779048390701207"><ele>40.0</ele><time>2026-04-20T17:24:13.98Z</time></trkpt><trkpt lat="47.25570056591859" lon="-1.5778482612237128"><ele>40.0</ele><time>2026-04-20T17:24:14.97Z</time></trkpt><trkpt lat="47.255602246194385" lon="-1.5777452476337344"><ele>40.0</ele><time>2026-04-20T17:24:16.968Z</time></trkpt><trkpt lat="47.25549567029556" lon="-1.5776996500804812"><ele>39.833333333333336</ele><time>2026-04-20T17:24:18.973Z</time></trkpt><trkpt lat="47.255437122701906" lon="-1.577648436652103"><ele>39.66666666666667</ele><time>2026-04-20T17:24:19.978Z</time></trkpt><trkpt lat="47.25532845132729" lon="-1.5775920264437586"><ele>39.5</ele><time>2026-04-20T17:24:21.97Z</time></trkpt><trkpt lat="47.25524819460442" lon="-1.57746847719101"><ele>39.333333333333336</ele><time>2026-04-20T17:24:23.973Z</time></trkpt><trkpt lat="47.255193209319614" lon="-1.577393375338593"><ele>39.166666666666664</ele><time>2026-04-20T17:24:24.969Z</time></trkpt><trkpt lat="47.25513814021578" lon="-1.5773289185032038"><ele>39.0</ele><time>2026-04-20T17:24:25.97Z</time></trkpt><trkpt lat="47.255080598450505" lon="-1.5772665571436073"><ele>39.0</ele><time>2026-04-20T17:24:26.972Z</time></trkpt><trkpt lat="47.25502490070393" lon="-1.5772223845138933"><ele>39.0</ele><time>2026-04-20T17:24:27.97Z</time></trkpt><trkpt lat="47.25496077914467" lon="-1.5771722607329275"><ele>39.0</ele><time>2026-04-20T17:24:28.969Z</time></trkpt><trkpt lat="47.25489510693332" lon="-1.5771114919349338"><ele>39.0</ele><time>2026-04-20T17:24:29.969Z</time></trkpt><trkpt lat="47.25477310833266" lon="-1.577014764772334"><ele>39.0</ele><time>2026-04-20T17:24:31.975Z</time></trkpt><trkpt lat="47.25471820686688" lon="-1.576962377877512"><ele>39.0</ele><time>2026-04-20T17:24:32.966Z</time></trkpt><trkpt lat="47.254650816365384" lon="-1.5769336279496335"><ele>38.833333333333336</ele><time>2026-04-20T17:24:33.973Z</time></trkpt><trkpt lat="47.254578061445855" lon="-1.5768859349205875"><ele>38.666666666666664</ele><time>2026-04-20T17:24:34.973Z</time></trkpt><trkpt lat="47.25451360461046" lon="-1.576834470035114"><ele>38.5</ele><time>2026-04-20T17:24:35.973Z</time></trkpt><trkpt lat="47.254452835812465" lon="-1.5767851844444654"><ele>38.33333333333333</ele><time>2026-04-20T17:24:36.969Z</time></trkpt><trkpt lat="47.25438925907691" lon="-1.5767460409566543"><ele>38.166666666666664</ele><time>2026-04-20T17:24:37.972Z</time></trkpt><trkpt lat="47.25429102317174" lon="-1.5766506548985622"><ele>38.0</ele><time>2026-04-20T17:24:39.972Z</time></trkpt><trkpt lat="47.254216885238186" lon="-1.5765627287342925"><ele>38.0</ele><time>2026-04-20T17:24:41.972Z</time></trkpt><trkpt lat="47.25412225355138" lon="-1.5765526704504866"><ele>38.0</ele><time>2026-04-20T17:24:44.974Z</time></trkpt><trkpt lat="47.25403248336841" lon="-1.5765087492778678"><ele>38.0</ele><time>2026-04-20T17:24:46.974Z</time></trkpt><trkpt lat="47.253918238028184" lon="-1.576474802570023"><ele>38.0</ele><time>2026-04-20T17:24:48.975Z</time></trkpt><trkpt lat="47.253797831989125" lon="-1.576467761771359"><ele>38.0</ele><time>2026-04-20T17:24:50.972Z</time></trkpt><trkpt lat="47.253726711540715" lon="-1.5764484833940644"><ele>37.83333333333333</ele><time>2026-04-20T17:24:51.973Z</time></trkpt><trkpt lat="47.25365383089264" lon="-1.5764176379903931"><ele>37.666666666666664</ele><time>2026-04-20T17:24:52.973Z</time></trkpt><trkpt lat="47.25358602129598" lon="-1.5764010418221135"><ele>37.5</ele><time>2026-04-20T17:24:53.973Z</time></trkpt><trkpt lat="47.25351284728129" lon="-1.5763745550080914"><ele>37.333333333333336</ele><time>2026-04-20T17:24:54.973Z</time></trkpt><trkpt lat="47.25343284201552" lon="-1.5763335675015824"><ele>37.16666666666667</ele><time>2026-04-20T17:24:55.975Z</time></trkpt><trkpt lat="47.2533278586783" lon="-1.5762855391964095"><ele>37.0</ele><time>2026-04-20T17:24:57.977Z</time></trkpt><trkpt lat="47.25320912901987" lon="-1.5762569569065945"><ele>37.0</ele><time>2026-04-20T17:24:59.974Z</time></trkpt><trkpt lat="47.25311504215677" lon="-1.576265087352671"><ele>37.0</ele><time>2026-04-20T17:25:01.973Z</time></trkpt><trkpt lat="47.25302611016412" lon="-1.5762039832785504"><ele>37.0</ele><time>2026-04-20T17:25:03.972Z</time></trkpt><trkpt lat="47.253009681633905" lon="-1.5760929230615273"><ele>37.0</ele><time>2026-04-20T17:25:05.972Z</time></trkpt><trkpt lat="47.253011609471635" lon="-1.5759553760304823"><ele>37.0</ele><time>2026-04-20T17:25:07.973Z</time></trkpt><trkpt lat="47.252962323880986" lon="-1.575815230609454"><ele>37.0</ele><time>2026-04-20T17:25:09.964Z</time></trkpt><trkpt lat="47.2529142536663" lon="-1.575674163179077"><ele>37.0</ele><time>2026-04-20T17:25:11.975Z</time></trkpt><trkpt lat="47.252849629192845" lon="-1.5755249653026233"><ele>37.0</ele><time>2026-04-20T17:25:13.966Z</time></trkpt><trkpt lat="47.25278735165228" lon="-1.5753743425026305"><ele>37.0</ele><time>2026-04-20T17:25:15.971Z</time></trkpt><trkpt lat="47.25275063891639" lon="-1.5752279106542237"><ele>37.2</ele><time>2026-04-20T17:25:17.979Z</time></trkpt><trkpt lat="47.252691881775156" lon="-1.575062284247554"><ele>37.400000000000006</ele><time>2026-04-20T17:25:19.972Z</time></trkpt><trkpt lat="47.25266120400955" lon="-1.5749805606916314"><ele>37.599999999999994</ele><time>2026-04-20T17:25:20.977Z</time></trkpt><trkpt lat="47.25263639357616" lon="-1.5748950652792815"><ele>37.8</ele><time>2026-04-20T17:25:21.971Z</time></trkpt><trkpt lat="47.2525585256957" lon="-1.5747440233841303"><ele>38.0</ele><time>2026-04-20T17:25:23.97Z</time></trkpt><trkpt lat="47.25250282794912" lon="-1.5745925623938204"><ele>38.0</ele><time>2026-04-20T17:25:25.972Z</time></trkpt><trkpt lat="47.25245337472041" lon="-1.5744410175844787"><ele>38.0</ele><time>2026-04-20T17:25:27.987Z</time></trkpt><trkpt lat="47.25242345132609" lon="-1.5743573661908268"><ele>38.0</ele><time>2026-04-20T17:25:28.974Z</time></trkpt><trkpt lat="47.25236071278085" lon="-1.5742199029788133"><ele>38.0</ele><time>2026-04-20T17:25:30.975Z</time></trkpt><trkpt lat="47.25233275913377" lon="-1.5741246845587846"><ele>38.0</ele><time>2026-04-20T17:25:31.973Z</time></trkpt><trkpt lat="47.2522691404887" lon="-1.5739832818522805"><ele>38.0</ele><time>2026-04-20T17:25:33.974Z</time></trkpt><trkpt lat="47.25223251157184" lon="-1.5738982055350894"><ele>38.0</ele><time>2026-04-20T17:25:34.971Z</time></trkpt><trkpt lat="47.252178029201225" lon="-1.573769040407216"><ele>38.0</ele><time>2026-04-20T17:25:36.973Z</time></trkpt><trkpt lat="47.25211960733612" lon="-1.5736234467491261"><ele>38.0</ele><time>2026-04-20T17:25:38.972Z</time></trkpt><trkpt lat="47.25205192346801" lon="-1.5734868217274298"><ele>38.0</ele><time>2026-04-20T17:25:40.977Z</time></trkpt><trkpt lat="47.25198151548137" lon="-1.5733560640379538"><ele>38.0</ele><time>2026-04-20T17:25:42.968Z</time></trkpt><trkpt lat="47.25194874223997" lon="-1.5732516255244362"><ele>38.0</ele><time>2026-04-20T17:25:43.969Z</time></trkpt><trkpt lat="47.25188478831877" lon="-1.5731166768833744"><ele>38.0</ele><time>2026-04-20T17:25:45.973Z</time></trkpt><trkpt lat="47.25181425460358" lon="-1.5729559957995758"><ele>38.0</ele><time>2026-04-20T17:25:47.969Z</time></trkpt><trkpt lat="47.25178236146201" lon="-1.5728703327491627"><ele>38.0</ele><time>2026-04-20T17:25:48.966Z</time></trkpt><trkpt lat="47.2517484985732" lon="-1.5727262478336437"><ele>37.83333333333333</ele><time>2026-04-20T17:25:49.971Z</time></trkpt><trkpt lat="47.25168140143831" lon="-1.5725952386870725"><ele>37.666666666666664</ele><time>2026-04-20T17:25:51.972Z</time></trkpt><trkpt lat="47.25165005312045" lon="-1.5724624693408351"><ele>37.5</ele><time>2026-04-20T17:25:52.976Z</time></trkpt><trkpt lat="47.25161275365134" lon="-1.5723706875011068"><ele>37.333333333333336</ele><time>2026-04-20T17:25:53.971Z</time></trkpt><trkpt lat="47.251578974581555" lon="-1.5722651593401769"><ele>37.16666666666667</ele><time>2026-04-20T17:25:54.973Z</time></trkpt><trkpt lat="47.25154221993615" lon="-1.572181172670398"><ele>37.0</ele><time>2026-04-20T17:25:55.975Z</time></trkpt><trkpt lat="47.25150672257622" lon="-1.5721010416760781"><ele>37.0</ele><time>2026-04-20T17:25:56.983Z</time></trkpt><trkpt lat="47.25146917165001" lon="-1.5720181446537114"><ele>37.0</ele><time>2026-04-20T17:25:57.977Z</time></trkpt><trkpt lat="47.2513946146213" lon="-1.571865677835021"><ele>37.0</ele><time>2026-04-20T17:25:59.976Z</time></trkpt><trkpt lat="47.251341724812285" lon="-1.5717010572567318"><ele>37.0</ele><time>2026-04-20T17:26:01.973Z</time></trkpt><trkpt lat="47.251279698728816" lon="-1.5715702157482239"><ele>37.0</ele><time>2026-04-20T17:26:03.974Z</time></trkpt><trkpt lat="47.25121469706972" lon="-1.5714138932540747"><ele>37.0</ele><time>2026-04-20T17:26:05.969Z</time></trkpt><trkpt lat="47.251144540540174" lon="-1.5712605044260353"><ele>37.0</ele><time>2026-04-20T17:26:07.972Z</time></trkpt><trkpt lat="47.25110652860929" lon="-1.571150450037393"><ele>37.0</ele><time>2026-04-20T17:26:08.972Z</time></trkpt><trkpt lat="47.25103804846038" lon="-1.5710105560734597"><ele>37.0</ele><time>2026-04-20T17:26:10.974Z</time></trkpt><trkpt lat="47.25096831102599" lon="-1.570897400380644"><ele>37.0</ele><time>2026-04-20T17:26:12.972Z</time></trkpt><trkpt lat="47.250933274670736" lon="-1.5708165150150384"><ele>37.0</ele><time>2026-04-20T17:26:13.981Z</time></trkpt><trkpt lat="47.25089698103" lon="-1.5707328636213864"><ele>37.0</ele><time>2026-04-20T17:26:14.971Z</time></trkpt><trkpt lat="47.250834326303796" lon="-1.5705824922784888"><ele>37.0</ele><time>2026-04-20T17:26:16.971Z</time></trkpt><trkpt lat="47.25076316394587" lon="-1.5704380720868432"><ele>37.0</ele><time>2026-04-20T17:26:18.973Z</time></trkpt><trkpt lat="47.25072452337225" lon="-1.5703575219973644"><ele>37.0</ele><time>2026-04-20T17:26:19.974Z</time></trkpt><trkpt lat="47.25068462551315" lon="-1.5702794864788374"><ele>37.0</ele><time>2026-04-20T17:26:20.974Z</time></trkpt><trkpt lat="47.25065570794721" lon="-1.5701966732755026"><ele>36.6</ele><time>2026-04-20T17:26:21.995Z</time></trkpt><trkpt lat="47.2506025666811" lon="-1.5700379200294334"><ele>36.2</ele><time>2026-04-20T17:26:23.97Z</time></trkpt><trkpt lat="47.2505354276367" lon="-1.569862738253148"><ele>35.8</ele><time>2026-04-20T17:26:25.992Z</time></trkpt><trkpt lat="47.25049695470114" lon="-1.569756455720933"><ele>35.4</ele><time>2026-04-20T17:26:26.969Z</time></trkpt><trkpt lat="47.250457266389624" lon="-1.5696567110731914"><ele>35.0</ele><time>2026-04-20T17:26:27.967Z</time></trkpt><trkpt lat="47.25037407600065" lon="-1.5694802720114305"><ele>35.0</ele><time>2026-04-20T17:26:29.988Z</time></trkpt><trkpt lat="47.25033790808846" lon="-1.5693515259787154"><ele>35.0</ele><time>2026-04-20T17:26:30.971Z</time></trkpt><trkpt lat="47.25029277153988" lon="-1.56923057511595"><ele>35.0</ele><time>2026-04-20T17:26:31.969Z</time></trkpt><trkpt lat="47.25025681317528" lon="-1.5691247116788933"><ele>35.0</ele><time>2026-04-20T17:26:32.965Z</time></trkpt><trkpt lat="47.250215658030704" lon="-1.5690268110498498"><ele>35.0</ele><time>2026-04-20T17:26:33.976Z</time></trkpt><trkpt lat="47.25015681707044" lon="-1.568916253747017"><ele>35.0</ele><time>2026-04-20T17:26:34.973Z</time></trkpt><trkpt lat="47.250108411579625" lon="-1.5688221249744005"><ele>35.0</ele><time>2026-04-20T17:26:35.973Z</time></trkpt><trkpt lat="47.25003025033255" lon="-1.568870907650859"><ele>35.0</ele><time>2026-04-20T17:26:36.971Z</time></trkpt><trkpt lat="47.249953514009015" lon="-1.5688334405436821"><ele>35.0</ele><time>2026-04-20T17:26:37.995Z</time></trkpt><trkpt lat="47.24987262864341" lon="-1.5687871724381752"><ele>35.0</ele><time>2026-04-20T17:26:38.976Z</time></trkpt><trkpt lat="47.24979379684408" lon="-1.568757500500948"><ele>35.0</ele><time>2026-04-20T17:26:39.973Z</time></trkpt><trkpt lat="47.24973420151253" lon="-1.568724727259547"><ele>35.0</ele><time>2026-04-20T17:26:40.969Z</time></trkpt><trkpt lat="47.24965440579434" lon="-1.5687010902926033"><ele>35.166666666666664</ele><time>2026-04-20T17:26:41.985Z</time></trkpt><trkpt lat="47.24957385570486" lon="-1.5686580911293333"><ele>35.33333333333333</ele><time>2026-04-20T17:26:42.97Z</time></trkpt><trkpt lat="47.24949146159668" lon="-1.5686264913543766"><ele>35.5</ele><time>2026-04-20T17:26:43.971Z</time></trkpt><trkpt lat="47.24941489291121" lon="-1.5686179418131416"><ele>35.666666666666664</ele><time>2026-04-20T17:26:44.972Z</time></trkpt><trkpt lat="47.24933304362674" lon="-1.568593382836849"><ele>35.833333333333336</ele><time>2026-04-20T17:26:45.998Z</time></trkpt><trkpt lat="47.249245704195694" lon="-1.5685718413456982"><ele>36.0</ele><time>2026-04-20T17:26:46.975Z</time></trkpt><trkpt lat="47.24916054405947" lon="-1.5685417503133123"><ele>36.0</ele><time>2026-04-20T17:26:47.974Z</time></trkpt><trkpt lat="47.249074922918574" lon="-1.5685191191747492"><ele>36.0</ele><time>2026-04-20T17:26:48.965Z</time></trkpt><trkpt lat="47.24899655212392" lon="-1.568487603218824"><ele>36.0</ele><time>2026-04-20T17:26:49.967Z</time></trkpt><trkpt lat="47.248905147469834" lon="-1.568442843855888"><ele>36.0</ele><time>2026-04-20T17:26:50.972Z</time></trkpt><trkpt lat="47.24882040642877" lon="-1.5684023592635694"><ele>36.0</ele><time>2026-04-20T17:26:51.973Z</time></trkpt><trkpt lat="47.24873147443612" lon="-1.5683670714512172"><ele>36.0</ele><time>2026-04-20T17:26:52.975Z</time></trkpt><trkpt lat="47.24866559267719" lon="-1.5683430992081466"><ele>35.333333333333336</ele><time>2026-04-20T17:26:53.971Z</time></trkpt><trkpt lat="47.24858382721175" lon="-1.5683164447560611"><ele>34.666666666666664</ele><time>2026-04-20T17:26:54.974Z</time></trkpt><trkpt lat="47.24851123993029" lon="-1.5682844258859459"><ele>34.0</ele><time>2026-04-20T17:26:55.981Z</time></trkpt><trkpt lat="47.24842331376602" lon="-1.5682583581670821"><ele>33.33333333333333</ele><time>2026-04-20T17:26:56.967Z</time></trkpt><trkpt lat="47.24833970428188" lon="-1.5682288538679183"><ele>32.666666666666664</ele><time>2026-04-20T17:26:57.975Z</time></trkpt><trkpt lat="47.24824515641411" lon="-1.5681920573129953"><ele>32.0</ele><time>2026-04-20T17:26:58.976Z</time></trkpt><trkpt lat="47.24817282058974" lon="-1.568150902168423"><ele>31.666666666666664</ele><time>2026-04-20T17:26:59.973Z</time></trkpt><trkpt lat="47.24809415642847" lon="-1.5681201405837835"><ele>31.333333333333332</ele><time>2026-04-20T17:27:00.967Z</time></trkpt><trkpt lat="47.24801000212063" lon="-1.568063730375439"><ele>31.0</ele><time>2026-04-20T17:27:01.974Z</time></trkpt><trkpt lat="47.24793297243048" lon="-1.568017713727027"><ele>30.666666666666664</ele><time>2026-04-20T17:27:02.979Z</time></trkpt><trkpt lat="47.24785523027857" lon="-1.5679681766792832"><ele>30.333333333333332</ele><time>2026-04-20T17:27:03.984Z</time></trkpt><trkpt lat="47.24778234963049" lon="-1.5679302904769479"><ele>30.0</ele><time>2026-04-20T17:27:04.975Z</time></trkpt><trkpt lat="47.247652891136006" lon="-1.5678596310332118"><ele>29.6</ele><time>2026-04-20T17:27:06.975Z</time></trkpt><trkpt lat="47.2475720057704" lon="-1.5678002033397256"><ele>29.2</ele><time>2026-04-20T17:27:07.982Z</time></trkpt><trkpt lat="47.24750264552166" lon="-1.5677472297116812"><ele>28.799999999999997</ele><time>2026-04-20T17:27:08.977Z</time></trkpt><trkpt lat="47.247397033541695" lon="-1.56765628606227"><ele>28.4</ele><time>2026-04-20T17:27:10.974Z</time></trkpt><trkpt lat="47.24733454645355" lon="-1.567626278848916"><ele>28.0</ele><time>2026-04-20T17:27:11.963Z</time></trkpt><trkpt lat="47.2472284315594" lon="-1.567672211678296"><ele>28.0</ele><time>2026-04-20T17:27:13.963Z</time></trkpt><trkpt lat="47.24716074769129" lon="-1.5677826013430651"><ele>27.999999999999996</ele><time>2026-04-20T17:27:15.96Z</time></trkpt><trkpt lat="47.24711439576675" lon="-1.567934397609502"><ele>27.999999999999996</ele><time>2026-04-20T17:27:17.971Z</time></trkpt><trkpt lat="47.24709323146124" lon="-1.568091390655905"><ele>28.0</ele><time>2026-04-20T17:27:19.963Z</time></trkpt><trkpt lat="47.24706414625724" lon="-1.5681737847640813"><ele>28.0</ele><time>2026-04-20T17:27:20.967Z</time></trkpt><trkpt lat="47.24705002275039" lon="-1.568351816387445"><ele>28.0</ele><time>2026-04-20T17:27:22.963Z</time></trkpt><trkpt lat="47.247027936435536" lon="-1.568510318176419"><ele>27.999999999999996</ele><time>2026-04-20T17:27:24.97Z</time></trkpt><trkpt lat="47.24700279072602" lon="-1.568653732539684"><ele>27.999999999999996</ele><time>2026-04-20T17:27:26.968Z</time></trkpt><trkpt lat="47.24698024340649" lon="-1.5687621105476923"><ele>28.0</ele><time>2026-04-20T17:27:29.969Z</time></trkpt><trkpt lat="47.246896759650895" lon="-1.5688039362445183"><ele>28.0</ele><time>2026-04-20T17:27:32.973Z</time></trkpt><trkpt lat="47.24681289870966" lon="-1.568808127196104"><ele>29.0</ele><time>2026-04-20T17:27:35.97Z</time></trkpt><trkpt lat="47.246755021668264" lon="-1.5687568299486943"><ele>29.0</ele><time>2026-04-20T17:27:38.972Z</time></trkpt><trkpt lat="47.24667422012169" lon="-1.5687290020301645"><ele>29.0</ele><time>2026-04-20T17:27:41.969Z</time></trkpt><trkpt lat="47.24661998920817" lon="-1.5687833167627163"><ele>29.0</ele><time>2026-04-20T17:27:45.958Z</time></trkpt></trkseg></trk></gpx>